[[{"header":{"parameterUnit":"m.s-1","parameterCategory":1,"la1":30.6,"la2":29.2853,"lo1":-89.7004,"lo2":-87.6739,"dy":0.0162,"dx":0.0183,"nx":112,"ny":82,"refTime":"2024-03-24T06:00:00:Z","depth":0,"parameterNumber":2,"parameterNumberName":"U-component_of_WINDS"},"data":[0.0,0.0,0.0,0.0,0.0,0.0,0.0,0.0,0.0,0.0,0.0,0.0,0.0,0.0,0.0,0.0,0.0,0.0,0.0,0.0,0.0,0.0,0.0,0.0,0.0,0.0,0.0,0.0,0.0,0.0,0.0,0.0,0.0,0.0,0.0,0.0,0.0,0.0,0.0,0.0,0.0,0.0,0.0,0.0,0.0,0.0,0.0,0.0,0.0,0.0,0.0,0.0,0.0,0.0,0.0,0.0,0.0,0.0,0.0,0.0,0.0,0.0,0.0,0.0,0.0,0.0,0.0,0.0,0.0,0.0,0.0,0.0,0.0,0.0,0.0,0.0,0.0,0.0,0.0,0.0,0.0,0.0,0.0,0.0,0.0,0.0,0.0,0.0,0.0,0.0,4.0774,4.5611,5.0503,5.2582,5.051,4.8121,4.5994,4.4304,0.0,0.0,0.0,0.0,0.0,0.0,0.0,0.0,0.0,0.0,0.0,0.0,0.0,0.0,0.0,0.0,0.0,0.0,0.0,0.0,0.0,0.0,0.0,0.0,0.0,0.0,0.0,0.0,0.0,0.0,0.0,0.0,0.0,0.0,0.0,0.0,0.0,0.0,0.0,0.0,0.0,0.0,0.0,0.0,0.0,0.0,0.0,0.0,0.0,0.0,0.0,0.0,0.0,0.0,0.0,0.0,0.0,0.0,0.0,0.0,0.0,0.0,0.0,0.0,0.0,0.0,0.0,0.0,0.0,0.0,0.0,0.0,0.0,0.0,0.0,0.0,0.0,0.0,0.0,0.0,0.0,0.0,0.0,0.0,0.0,0.0,0.0,0.0,0.0,0.0,0.0,0.0,0.0,0.0,0.0,0.0,0.0,0.0,0.0,0.0,0.0,0.0,0.0,0.0,4.4262,4.7777,5.1115,5.1773,4.8514,4.5383,4.3278,4.2524,0.0,0.0,0.0,0.0,0.0,0.0,0.0,0.0,0.0,0.0,0.0,0.0,0.0,0.0,0.0,0.0,0.0,0.0,0.0,0.0,0.0,0.0,0.0,0.0,0.0,0.0,0.0,0.0,0.0,0.0,0.0,0.0,0.0,0.0,0.0,0.0,0.0,0.0,0.0,0.0,0.0,0.0,0.0,0.0,0.0,0.0,0.0,0.0,0.0,0.0,0.0,0.0,0.0,0.0,0.0,0.0,0.0,0.0,0.0,0.0,0.0,0.0,0.0,0.0,0.0,0.0,0.0,0.0,0.0,0.0,0.0,0.0,0.0,0.0,0.0,0.0,0.0,0.0,0.0,0.0,0.0,0.0,0.0,0.0,0.0,0.0,0.0,0.0,0.0,0.0,0.0,0.0,0.0,0.0,0.0,0.0,0.0,0.0,0.0,0.0,0.0,0.0,0.0,4.5142,4.7141,5.0081,5.1607,5.1312,4.87,4.5024,4.313,4.368,3.9812,0.0,0.0,0.0,0.0,0.0,0.0,0.0,0.0,0.0,0.0,0.0,0.0,0.0,0.0,0.0,0.0,0.0,0.0,0.0,0.0,0.0,0.0,0.0,0.0,0.0,0.0,0.0,0.0,0.0,0.0,0.0,0.0,0.0,0.0,0.0,0.0,0.0,0.0,0.0,0.0,0.0,0.0,0.0,0.0,0.0,0.0,0.0,0.0,0.0,0.0,0.0,0.0,0.0,0.0,0.0,0.0,0.0,0.0,0.0,0.0,0.0,0.0,0.0,0.0,0.0,0.0,0.0,0.0,0.0,0.0,0.0,0.0,0.0,0.0,0.0,0.0,0.0,0.0,0.0,0.0,0.0,0.0,0.0,0.0,0.0,0.0,0.0,0.0,0.0,0.0,0.0,0.0,0.0,0.0,0.0,0.0,0.0,0.0,0.0,0.0,0.0,0.0,4.7787,4.9027,5.0959,5.1466,5.0782,4.8532,4.5141,4.3535,4.4539,3.9573,0.0,0.0,0.0,0.0,0.0,0.0,0.0,0.0,0.0,0.0,0.0,0.0,0.0,0.0,0.0,0.0,0.0,0.0,0.0,0.0,0.0,0.0,0.0,0.0,0.0,0.0,0.0,0.0,0.0,0.0,0.0,0.0,0.0,0.0,0.0,0.0,0.0,0.0,0.0,0.0,0.0,0.0,0.0,0.0,0.0,0.0,0.0,0.0,0.0,0.0,0.0,0.0,0.0,0.0,0.0,0.0,0.0,0.0,0.0,0.0,0.0,0.0,0.0,0.0,0.0,0.0,0.0,0.0,0.0,0.0,0.0,0.0,0.0,0.0,0.0,0.0,0.0,0.0,0.0,0.0,0.0,0.0,0.0,0.0,0.0,0.0,0.0,0.0,0.0,0.0,0.0,0.0,0.0,0.0,0.0,0.0,0.0,0.0,0.0,0.0,0.0,0.0,4.8661,4.9379,4.9059,5.0196,4.9768,4.6765,4.488,4.3608,4.3082,3.9911,0.0,0.0,0.0,0.0,0.0,0.0,0.0,0.0,0.0,0.0,0.0,0.0,0.0,0.0,0.0,0.0,0.0,0.0,0.0,0.0,0.0,0.0,0.0,0.0,0.0,0.0,0.0,0.0,0.0,0.0,0.0,0.0,0.0,0.0,0.0,0.0,0.0,0.0,0.0,0.0,0.0,0.0,0.0,0.0,0.0,0.0,0.0,0.0,0.0,0.0,0.0,0.0,0.0,0.0,0.0,0.0,0.0,0.0,0.0,0.0,0.0,0.0,0.0,0.0,0.0,0.0,0.0,0.0,0.0,0.0,0.0,0.0,0.0,0.0,0.0,0.0,0.0,0.0,0.0,0.0,0.0,0.0,0.0,0.0,0.0,0.0,0.0,0.0,0.0,0.0,0.0,0.0,0.0,0.0,0.0,0.0,0.0,0.0,0.0,0.0,0.0,0.0,4.854,4.9309,0.0,4.9275,4.8531,4.5918,4.3622,4.2507,4.2954,0.0,0.0,0.0,0.0,0.0,0.0,0.0,0.0,0.0,0.0,0.0,0.0,0.0,0.0,0.0,0.0,0.0,0.0,0.0,0.0,0.0,0.0,0.0,0.0,0.0,0.0,0.0,0.0,0.0,0.0,0.0,0.0,0.0,0.0,0.0,0.0,0.0,0.0,0.0,0.0,0.0,0.0,0.0,0.0,0.0,0.0,0.0,0.0,0.0,0.0,0.0,0.0,0.0,0.0,0.0,0.0,0.0,0.0,0.0,0.0,0.0,0.0,0.0,0.0,0.0,0.0,0.0,0.0,0.0,0.0,0.0,0.0,0.0,0.0,0.0,0.0,0.0,0.0,0.0,0.0,0.0,0.0,0.0,0.0,0.0,0.0,0.0,0.0,0.0,0.0,0.0,0.0,0.0,0.0,0.0,0.0,0.0,0.0,0.0,0.0,0.0,0.0,4.6611,4.8024,4.873,0.0,4.8314,4.7412,4.5157,4.3081,4.2096,4.2618,0.0,0.0,0.0,0.0,0.0,0.0,0.0,0.0,0.0,0.0,0.0,0.0,0.0,0.0,0.0,0.0,0.0,0.0,0.0,0.0,0.0,0.0,0.0,0.0,0.0,0.0,0.0,0.0,0.0,0.0,0.0,0.0,0.0,0.0,0.0,0.0,0.0,0.0,0.0,0.0,0.0,0.0,0.0,0.0,0.0,0.0,0.0,0.0,0.0,0.0,0.0,0.0,0.0,0.0,0.0,0.0,0.0,0.0,0.0,0.0,0.0,0.0,0.0,0.0,0.0,0.0,0.0,0.0,0.0,0.0,0.0,0.0,0.0,0.0,0.0,0.0,0.0,0.0,0.0,0.0,0.0,0.0,0.0,0.0,0.0,0.0,0.0,0.0,0.0,0.0,0.0,0.0,0.0,0.0,0.0,0.0,0.0,0.0,0.0,0.0,0.0,0.0,4.6108,4.7107,4.7589,4.7327,4.7309,4.6471,4.4446,4.3431,4.2587,0.0,0.0,0.0,0.0,0.0,0.0,0.0,0.0,0.0,0.0,0.0,0.0,0.0,0.0,0.0,0.0,0.0,0.0,0.0,0.0,0.0,0.0,0.0,0.0,0.0,0.0,0.0,0.0,0.0,0.0,0.0,0.0,0.0,0.0,0.0,0.0,0.0,0.0,0.0,0.0,0.0,0.0,0.0,0.0,0.0,0.0,0.0,0.0,0.0,0.0,0.0,0.0,0.0,0.0,0.0,0.0,0.0,0.0,0.0,0.0,0.0,0.0,0.0,0.0,0.0,0.0,0.0,0.0,0.0,0.0,0.0,0.0,0.0,0.0,0.0,0.0,0.0,0.0,0.0,0.0,0.0,0.0,0.0,0.0,0.0,0.0,0.0,0.0,0.0,0.0,0.0,0.0,0.0,0.0,0.0,0.0,0.0,0.0,0.0,0.0,0.0,0.0,0.0,4.6656,4.6412,4.6348,4.7211,4.6869,4.5792,4.3838,4.2108,4.1641,4.2811,0.0,0.0,0.0,0.0,0.0,0.0,0.0,0.0,0.0,0.0,0.0,0.0,0.0,0.0,0.0,0.0,0.0,0.0,0.0,0.0,0.0,0.0,0.0,0.0,0.0,0.0,0.0,0.0,0.0,0.0,0.0,0.0,0.0,0.0,0.0,0.0,0.0,0.0,0.0,0.0,0.0,0.0,0.0,0.0,0.0,0.0,0.0,0.0,0.0,0.0,0.0,0.0,0.0,0.0,0.0,0.0,0.0,0.0,0.0,0.0,0.0,0.0,0.0,0.0,0.0,0.0,0.0,0.0,0.0,0.0,0.0,0.0,0.0,0.0,0.0,0.0,0.0,0.0,0.0,0.0,0.0,0.0,0.0,0.0,0.0,0.0,0.0,0.0,0.0,0.0,0.0,0.0,0.0,0.0,0.0,0.0,0.0,0.0,0.0,0.0,0.0,0.0,4.6799,4.61,4.5693,4.68,4.63,4.5125,4.3169,4.1145,4.0516,4.1789,0.0,0.0,0.0,0.0,0.0,0.0,0.0,0.0,0.0,0.0,0.0,0.0,0.0,0.0,0.0,0.0,0.0,0.0,0.0,0.0,0.0,0.0,0.0,0.0,0.0,0.0,0.0,0.0,0.0,0.0,0.0,0.0,0.0,0.0,0.0,0.0,0.0,0.0,0.0,0.0,0.0,0.0,0.0,0.0,0.0,0.0,0.0,0.0,0.0,0.0,0.0,0.0,0.0,0.0,0.0,0.0,0.0,0.0,0.0,0.0,0.0,0.0,0.0,0.0,0.0,0.0,0.0,0.0,0.0,0.0,0.0,0.0,0.0,0.0,0.0,0.0,0.0,0.0,0.0,0.0,0.0,0.0,0.0,0.0,0.0,0.0,0.0,0.0,0.0,0.0,0.0,0.0,0.0,0.0,0.0,0.0,0.0,0.0,0.0,0.0,0.0,0.0,4.6861,4.6083,4.5574,4.6241,4.5693,4.4487,4.247,4.0516,3.9514,3.9722,0.0,0.0,0.0,0.0,0.0,0.0,0.0,0.0,0.0,0.0,0.0,0.0,0.0,0.0,0.0,0.0,0.0,0.0,0.0,0.0,0.0,0.0,0.0,0.0,0.0,0.0,0.0,0.0,0.0,0.0,0.0,0.0,0.0,0.0,0.0,0.0,0.0,0.0,0.0,0.0,0.0,0.0,0.0,0.0,0.0,0.0,0.0,0.0,0.0,0.0,0.0,0.0,0.0,0.0,0.0,0.0,0.0,0.0,0.0,0.0,3.2874,0.0,0.0,0.0,0.0,0.0,0.0,0.0,0.0,0.0,0.0,0.0,0.0,0.0,0.0,0.0,0.0,0.0,0.0,0.0,0.0,0.0,0.0,0.0,0.0,0.0,0.0,0.0,0.0,0.0,0.0,0.0,0.0,0.0,0.0,0.0,0.0,0.0,0.0,0.0,0.0,0.0,4.8102,4.6657,4.5574,4.6241,4.5693,4.4307,4.1822,4.0247,3.9583,3.9982,3.8443,0.0,0.0,0.0,0.0,0.0,0.0,0.0,0.0,0.0,0.0,0.0,0.0,0.0,0.0,0.0,0.0,0.0,0.0,0.0,0.0,0.0,0.0,0.0,0.0,0.0,0.0,0.0,0.0,0.0,0.0,0.0,0.0,0.0,0.0,0.0,0.0,0.0,0.0,0.0,0.0,0.0,0.0,0.0,0.0,0.0,0.0,0.0,0.0,0.0,0.0,0.0,0.0,0.0,0.0,0.0,0.0,0.0,0.0,0.0,0.0,3.6646,0.0,0.0,0.0,0.0,0.0,0.0,0.0,0.0,0.0,0.0,0.0,0.0,0.0,0.0,0.0,0.0,0.0,0.0,0.0,0.0,0.0,0.0,0.0,0.0,0.0,0.0,0.0,0.0,0.0,0.0,0.0,0.0,0.0,0.0,0.0,0.0,0.0,0.0,0.0,0.0,4.6674,4.5724,4.5095,4.5753,4.5214,4.3898,4.1583,4.0187,3.9229,3.8832,3.823,0.0,0.0,0.0,0.0,0.0,0.0,0.0,0.0,0.0,0.0,0.0,0.0,0.0,0.0,0.0,0.0,0.0,0.0,0.0,0.0,0.0,0.0,0.0,0.0,0.0,0.0,0.0,0.0,0.0,0.0,0.0,0.0,0.0,0.0,0.0,0.0,0.0,0.0,0.0,0.0,0.0,0.0,0.0,0.0,0.0,0.0,0.0,0.0,0.0,0.0,0.0,0.0,0.0,4.2809,4.403,4.5771,4.5042,4.5687,4.7227,4.3595,4.0935,3.9161,0.0,0.0,0.0,0.0,0.0,0.0,0.0,0.0,0.0,0.0,0.0,0.0,0.0,0.0,0.0,0.0,0.0,0.0,0.0,0.0,0.0,0.0,0.0,0.0,0.0,3.9052,3.9314,0.0,0.0,0.0,0.0,0.0,0.0,0.0,0.0,0.0,0.0,0.0,0.0,4.4651,4.4484,4.4506,4.5065,4.4646,4.3509,4.1583,4.0277,3.8943,3.7477,3.8184,3.8027,0.0,0.0,0.0,0.0,0.0,0.0,0.0,0.0,0.0,0.0,0.0,0.0,0.0,0.0,0.0,0.0,0.0,0.0,0.0,0.0,0.0,0.0,0.0,0.0,0.0,0.0,0.0,0.0,0.0,0.0,0.0,0.0,3.0844,3.0555,0.0,0.0,0.0,0.0,0.0,0.0,0.0,0.0,0.0,0.0,0.0,0.0,0.0,3.8947,3.9517,4.2528,4.3274,4.1795,4.3478,4.4083,4.3807,4.4198,4.4847,4.5676,4.6222,0.0,4.3473,4.0309,0.0,0.0,0.0,0.0,0.0,0.0,0.0,0.0,0.0,0.0,0.0,0.0,0.0,0.0,0.0,0.0,0.0,0.0,0.0,0.0,0.0,0.0,3.8052,3.9667,3.9745,3.9535,0.0,3.9803,3.9692,3.9234,3.8671,0.0,0.0,0.0,0.0,0.0,0.0,0.0,4.4402,4.4445,4.4326,4.4416,4.4356,4.3509,4.1583,4.0696,3.9439,3.7524,3.7053,3.649,3.5714,3.7258,0.0,0.0,0.0,0.0,0.0,0.0,0.0,0.0,0.0,0.0,0.0,0.0,0.0,0.0,0.0,0.0,0.0,0.0,0.0,0.0,0.0,0.0,0.0,0.0,0.0,0.0,0.0,0.0,0.0,3.2478,3.3088,3.1949,3.2769,3.3211,0.0,0.0,0.0,0.0,0.0,0.0,0.0,0.0,0.0,3.8884,4.1645,4.3324,4.3601,4.5659,4.6611,4.6425,4.6811,4.7456,4.8273,4.7722,4.8316,4.9692,4.9555,4.8825,4.7555,4.4219,4.2534,4.1873,0.0,0.0,0.0,0.0,3.8258,3.9172,3.9138,3.9148,0.0,3.8237,0.0,0.0,0.0,0.0,0.0,0.0,0.0,0.0,0.0,0.0,0.0,4.164,4.1564,4.1485,4.1055,4.0649,4.0265,0.0,3.9571,3.9787,4.1161,0.0,0.0,0.0,0.0,4.1853,4.2678,4.3356,4.3878,4.4267,4.3967,4.31,4.1523,4.0786,3.9529,3.7507,3.6836,3.6178,3.5519,3.629,3.6543,0.0,0.0,0.0,0.0,0.0,0.0,0.0,0.0,0.0,0.0,0.0,0.0,0.0,0.0,0.0,0.0,0.0,0.0,0.0,0.0,0.0,0.0,0.0,0.0,0.0,0.0,0.0,0.0,3.4585,3.4942,3.3349,3.4123,3.456,0.0,0.0,0.0,0.0,0.0,0.0,3.8087,4.1171,4.2846,4.2673,4.5156,4.6618,4.6854,4.808,4.9176,5.0172,4.9766,5.0463,5.2058,5.1014,5.1373,5.2795,5.1823,5.1035,5.0171,4.7086,4.5222,4.4082,4.2098,4.1928,4.2646,4.1264,4.1621,4.2842,4.3295,4.2818,4.1979,4.1727,0.0,3.9551,3.7714,0.0,0.0,0.0,0.0,4.1786,4.2736,4.412,4.4981,4.3698,4.3599,4.3549,4.2581,4.1743,4.0916,0.0,4.0108,4.0436,4.143,0.0,0.0,0.0,0.0,4.1219,4.1389,4.2502,4.3489,4.3997,4.3459,4.2611,4.1493,4.0786,3.9529,3.7507,3.7135,3.6537,3.5549,3.5669,3.5931,3.6291,0.0,0.0,0.0,0.0,0.0,0.0,0.0,0.0,0.0,0.0,0.0,0.0,0.0,0.0,0.0,0.0,0.0,0.0,0.0,0.0,0.0,0.0,0.0,0.0,0.0,0.0,0.0,0.0,0.0,3.5075,3.4824,0.0,0.0,0.0,0.0,3.9123,4.163,4.2894,4.2781,4.5272,4.6034,4.4515,4.6149,4.7559,4.8649,4.9758,5.0305,5.0388,5.0927,5.1514,5.211,5.2035,5.2068,5.2161,5.2085,5.1581,5.0522,4.7055,4.5699,4.5688,4.4611,4.5087,4.6258,4.5545,4.5334,4.5202,4.3808,4.289,4.258,4.3738,4.3259,4.2166,4.1795,4.1398,0.0,0.0,4.4344,4.3027,4.595,4.5072,4.3898,4.5672,4.5633,4.5185,4.5125,4.4057,4.2412,0.0,3.9445,3.9895,4.1357,0.0,3.9229,4.1217,4.0891,4.0692,4.1313,4.2502,4.329,4.3349,4.281,4.2152,4.1463,4.0786,3.9529,3.7507,3.7973,3.7464,3.5579,3.6118,3.6181,3.5584,3.7467,0.0,0.0,0.0,0.0,0.0,0.0,0.0,0.0,0.0,0.0,0.0,0.0,0.0,0.0,0.0,0.0,0.0,0.0,0.0,0.0,0.0,0.0,0.0,0.0,0.0,0.0,0.0,0.0,3.9341,4.0231,0.0,4.0601,4.0078,4.0538,4.2539,4.3308,4.4264,4.5588,4.7587,4.9071,4.9916,5.087,5.1724,5.2512,5.2528,5.2528,5.2528,5.2402,5.2452,5.2594,5.2594,5.2594,5.2628,5.2251,5.1925,5.1456,4.9132,4.7891,4.7327,4.5767,4.6096,4.7357,4.6739,4.7361,4.8505,4.7938,4.7369,4.6552,4.4855,4.315,4.1741,4.1652,4.1512,4.1847,4.3953,4.3823,4.3583,4.5934,4.5888,4.5403,4.6121,4.6121,4.5843,4.5394,4.4586,4.3788,4.3299,4.1504,4.0219,4.074,3.9848,3.9757,4.1817,4.1881,4.1912,4.2532,4.3399,4.3788,4.3349,4.278,4.2141,4.1463,4.0397,3.926,3.8123,3.7494,3.6883,3.6178,3.5968,3.5938,3.6118,3.6444,3.7549,0.0,0.0,0.0,0.0,0.0,0.0,0.0,0.0,0.0,0.0,0.0,0.0,0.0,0.0,0.0,0.0,0.0,0.0,0.0,0.0,0.0,0.0,0.0,0.0,0.0,0.0,4.2552,4.3247,4.4138,4.4722,4.4778,4.4057,4.4209,4.5776,4.6336,4.733,4.8955,5.0645,5.2226,5.3708,5.4084,5.4461,5.4873,5.4461,5.4185,5.3984,5.3457,5.3181,5.3146,5.297,5.2895,5.287,5.2494,5.2277,5.2026,5.0896,4.9876,4.8928,4.7403,4.7949,4.9517,4.9087,5.0048,5.1374,5.0236,4.9468,4.8492,4.5798,4.4237,4.3349,4.312,4.29,4.296,4.4047,4.4377,4.4736,4.6241,4.6629,4.6629,4.6629,4.6629,4.645,4.5783,4.5304,4.5044,4.5244,4.3359,4.2073,4.321,4.2851,4.3299,4.5984,4.6193,4.6343,4.7198,4.6531,4.5813,4.5394,4.3379,4.1882,4.1433,4.1009,4.0082,3.8517,3.8456,3.7978,3.6853,3.6797,3.6987,3.7426,3.7735,3.8758,4.0587,0.0,0.0,0.0,0.0,0.0,0.0,0.0,0.0,0.0,0.0,0.0,0.0,0.0,0.0,0.0,0.0,0.0,0.0,0.0,0.0,0.0,0.0,0.0,4.0338,4.2008,4.4193,4.6544,4.6201,4.5748,4.5773,4.5799,4.6708,4.8843,5.0996,5.2477,5.2995,5.4561,5.544,5.5465,5.5465,5.5465,5.544,5.544,5.5164,5.4622,5.4009,5.3733,5.3683,5.3146,5.292,5.2895,5.2895,5.2628,5.2126,5.2126,5.1448,5.0373,4.9529,5.067,5.2757,5.2728,5.3299,5.36,5.0332,4.8763,4.799,4.6636,4.6706,4.7184,4.6463,4.5827,4.5481,4.6147,4.6348,4.654,4.7168,4.7369,4.7339,4.7339,4.7309,4.713,4.648,4.63,4.6121,4.5484,4.4825,4.5394,4.8618,4.8648,4.9494,5.3384,5.3384,0.0,5.476,5.1552,4.9209,4.9299,4.4577,4.1463,4.1553,4.2598,4.1888,3.8624,4.0829,4.0779,3.7541,3.8571,3.9212,3.9181,4.1384,4.1216,3.8564,0.0,0.0,0.0,0.0,0.0,0.0,0.0,0.0,0.0,0.0,0.0,0.0,0.0,0.0,0.0,0.0,0.0,0.0,0.0,0.0,0.0,4.0669,4.2605,4.232,4.5636,4.8404,4.9286,5.06,5.1599,5.2059,5.2461,5.2904,5.3567,5.4511,5.5315,5.5831,5.6308,5.6771,5.7198,5.7198,5.6997,5.6533,5.6533,5.6118,5.52,5.4988,5.4486,5.3683,5.3557,5.3281,5.2895,5.2895,5.282,5.2644,5.2277,5.1925,5.1481,5.004,5.0293,5.1453,5.1051,5.1207,5.133,4.9578,4.8887,4.8489,4.6708,4.6642,4.6998,4.5813,4.6019,4.6718,4.6899,4.7693,4.8528,4.8708,4.8409,4.8027,4.8027,4.7638,4.7249,4.7048,4.6629,4.639,4.6711,4.6211,4.5882,4.6322,4.6253,4.6651,4.8245,4.8304,0.0,4.8693,4.7369,4.7151,4.9097,4.5016,4.29,4.4796,4.2215,4.0118,3.917,3.8898,3.8361,3.7434,3.7335,3.7044,3.6545,3.9042,3.9532,0.0,0.0,0.0,0.0,0.0,0.0,0.0,0.0,0.0,0.0,0.0,0.0,0.0,0.0,0.0,0.0,0.0,0.0,0.0,0.0,0.0,0.0,4.4042,4.6652,4.7129,4.9343,5.1288,5.2352,5.4034,5.5239,5.5566,5.6294,5.6808,5.6808,5.7499,5.7876,5.7713,5.8139,5.8315,5.8252,5.8453,5.8303,5.7713,5.7713,5.7298,5.6445,5.5968,5.539,5.4737,5.4285,5.3758,0.0,5.3256,5.3096,5.287,5.2544,5.2302,0.0,0.0,0.0,0.0,0.0,5.0723,4.9979,4.8788,4.8242,4.7837,4.6723,4.6852,4.7288,4.6484,4.6593,4.7165,4.7802,4.8346,4.8902,4.9536,4.9217,4.8708,4.8708,4.8229,4.7728,4.7728,4.6769,4.6035,4.6418,4.5756,0.0,4.4617,4.6329,4.8476,5.0518,5.0607,5.0541,5.081,4.9045,4.8267,4.9523,4.5544,4.318,4.4167,4.2552,0.0,0.0,0.0,3.9221,3.8625,3.8551,0.0,0.0,0.0,4.0718,3.8873,0.0,0.0,0.0,3.9172,3.9975,0.0,0.0,0.0,0.0,0.0,0.0,0.0,0.0,0.0,0.0,0.0,0.0,0.0,0.0,0.0,0.0,4.8432,5.188,5.3265,5.3181,5.3607,5.544,5.6696,5.7361,5.7361,5.8353,5.8994,5.8994,5.9859,6.001,5.9018,0.0,0.0,0.0,0.0,5.9408,5.8805,5.8842,5.8554,5.7901,5.6947,5.6394,5.6168,5.5189,5.4396,5.3708,5.3708,5.3406,5.2895,5.2895,5.2569,5.2,5.087,5.1254,5.2492,5.2195,5.0957,4.9252,4.7985,0.0,0.0,4.6565,4.7025,4.7642,4.7483,4.7128,4.7055,4.8361,4.8386,4.8316,4.9816,4.9683,4.9193,4.9193,4.8776,4.829,4.7934,4.6618,4.5452,4.5235,4.4312,4.3586,4.3504,4.7426,5.1733,5.5249,5.5462,5.5384,5.5927,5.2875,5.0518,5.0226,0.0,0.0,4.2152,4.3361,4.2879,3.9817,4.1152,4.1508,4.0244,4.0624,4.145,4.2709,4.3499,4.2732,4.0351,4.1692,4.102,3.8547,4.0408,4.1199,0.0,0.0,0.0,0.0,0.0,0.0,0.0,0.0,0.0,0.0,0.0,0.0,0.0,0.0,0.0,4.8273,5.1038,5.3586,5.652,5.76,5.7901,5.7474,5.8755,5.9645,5.9645,6.0286,6.0727,6.0727,6.0889,6.0939,6.0713,6.0889,6.0914,6.0713,6.0814,6.0362,5.9357,5.9784,5.9307,5.7901,0.0,0.0,5.6194,5.5993,5.5089,5.3708,5.3708,5.3406,5.2895,5.2895,5.2569,5.2,5.087,5.059,5.0738,4.9842,4.9269,4.8708,4.7106,4.7243,4.7741,4.5681,4.5868,4.6688,4.5564,4.5911,0.0,4.7079,4.7509,4.8241,4.9688,4.9219,4.8426,4.8426,4.8784,4.8377,4.5676,4.5665,4.574,4.4153,4.401,4.4035,4.3586,4.5164,4.6789,4.7567,4.8433,4.9075,4.9194,4.8035,4.8005,4.9986,4.654,4.4655,4.6052,4.4068,4.2275,4.1074,4.0346,3.986,3.9571,3.8657,3.8293,3.8568,3.9249,3.9347,3.8817,3.9655,3.9745,3.923,3.9606,3.9792,0.0,0.0,0.0,0.0,0.0,0.0,0.0,0.0,0.0,0.0,0.0,3.867,4.2471,0.0,4.8193,5.1866,5.4552,5.6796,5.8453,5.9885,6.0337,5.9232,6.0311,6.1065,6.0788,6.1517,6.1893,6.1617,6.1843,6.1893,6.1617,6.1843,6.1743,6.119,6.1441,6.119,6.0337,6.0337,5.991,5.9106,5.8855,5.8127,5.7047,5.6746,5.5717,5.4135,5.4135,5.3683,5.2895,5.2895,5.2719,5.2427,5.1599,5.0921,5.0285,4.949,4.9044,4.8642,4.7506,4.7389,4.7539,4.6259,4.615,4.6363,4.5653,4.5922,4.6653,4.7376,4.766,4.7975,4.9136,4.8739,4.7979,4.7719,4.7673,4.7228,4.5552,4.5004,4.4529,4.3539,4.3052,4.2703,4.2439,4.3242,4.4244,4.5264,4.5936,4.6594,4.7222,4.6988,4.7168,4.8155,4.6181,4.4945,4.5254,4.321,4.1762,4.1433,4.0457,3.99,3.99,3.8943,3.8404,3.8404,3.8721,3.8901,3.8901,3.9242,3.9391,3.9421,3.975,3.99,0.0,0.0,0.0,0.0,0.0,0.0,0.0,3.4596,3.6274,3.8833,4.0952,4.3526,4.7344,5.0524,5.3206,5.5099,5.7775,5.9734,5.996,6.114,6.1718,6.0874,6.1617,6.1994,6.1542,6.2295,6.2606,6.2195,6.2571,6.2581,6.2195,6.2556,6.2421,6.1542,6.1943,6.1893,6.1341,6.0763,6.0437,6.0311,5.9332,5.8579,5.8052,5.7437,5.6294,5.4748,5.4421,5.3808,5.3046,5.2945,5.2895,5.2845,5.2393,5.1649,5.067,4.9992,4.9464,4.9019,4.8309,4.7807,4.74,4.7299,4.6873,4.6476,4.6476,4.6401,4.6571,4.774,4.7592,4.733,4.8355,4.8134,4.756,4.7121,4.6727,4.626,4.5638,4.4407,4.3283,4.2892,4.2101,4.1428,4.1327,4.1902,4.2995,4.4916,4.5402,4.6014,4.7157,4.7429,4.7189,4.639,4.5693,4.4766,4.3409,4.2372,4.1773,4.1773,4.1145,4.0786,4.0786,4.0157,3.972,3.9601,3.9601,3.9541,3.9391,3.9541,3.9601,3.9601,4.0277,4.0516,3.1762,3.2147,3.289,3.3793,3.4498,3.5496,0.0,3.9113,4.0465,4.2155,4.4206,4.6642,4.9522,5.2411,5.5175,5.7813,5.9332,6.0563,6.1592,6.1893,6.2144,6.2455,6.2631,6.2681,6.2647,6.2706,6.2756,6.2706,6.2756,6.2756,6.2706,6.2756,6.2731,6.2606,6.2656,6.243,6.1918,6.1366,6.0839,6.0311,5.9709,5.9131,5.8566,5.8052,5.6897,5.5214,5.3758,5.3306,5.3582,5.3096,5.2895,5.2895,5.282,5.2452,5.1774,5.072,5.0293,5.0092,4.9038,4.8667,4.8542,4.7983,4.745,4.7023,4.7023,4.6672,4.6331,4.6511,4.6167,4.601,4.73,4.7246,4.6824,4.6745,4.7244,4.6887,4.3987,4.3719,4.3572,4.186,4.1839,4.1934,4.1403,4.1816,4.2732,4.4203,4.5473,4.6531,4.7217,4.7818,4.7698,4.645,4.5693,4.4766,4.3409,4.319,4.31,4.31,4.2511,4.2171,4.2171,4.1523,4.0894,4.0307,4.0277,4.0008,3.9391,4.0008,4.0277,4.0307,4.0984,4.0965,3.283,3.3884,3.5121,3.5094,3.6824,3.8689,3.9318,4.0801,4.2593,4.4631,4.6996,4.9947,5.3988,5.6495,5.8403,0.0,6.1065,6.1803,6.1994,6.1994,6.1843,6.1416,6.1366,6.1702,6.2706,6.2781,6.2781,6.2781,6.2781,6.2781,6.2781,6.2781,6.2781,6.2781,6.2781,6.2681,6.2496,6.1617,6.1065,6.0814,5.991,5.9232,5.8666,5.8478,5.7449,5.5767,5.411,5.3507,5.3658,5.3096,5.2895,5.2895,5.2895,5.2744,5.2443,5.1699,5.1197,5.082,5.0017,4.9515,4.9163,4.8586,4.8033,4.75,4.7199,4.6948,4.6697,4.6401,4.615,4.6023,4.6262,4.618,4.5898,4.5565,4.5736,4.5512,4.3846,4.3713,4.3606,4.2494,4.2484,4.2587,4.2333,4.2235,4.2662,4.3982,4.4117,4.4689,4.6428,4.6634,4.6513,4.6326,4.6031,4.5343,4.3997,4.3878,4.3728,4.3319,4.275,4.241,4.241,4.1782,4.1283,4.0984,4.0965,4.0846,4.0546,4.0846,4.0965,4.1014,4.1673,4.1822,3.4142,3.5298,3.6576,3.6406,3.8339,4.0387,4.075,4.244,4.4608,4.7028,4.9292,5.2208,5.6783,5.8752,6.0015,6.1236,6.222,6.2606,6.2094,6.1743,6.114,6.001,5.957,5.9921,6.1301,6.1978,6.2496,6.2756,6.2781,6.2781,6.2781,6.2631,6.2631,6.2781,6.2631,6.2631,6.2781,6.1893,6.1341,6.1165,6.0186,5.9458,5.8905,5.8415,5.7499,5.6118,5.4436,5.3708,5.3658,5.3096,5.2895,5.2895,5.2895,5.2895,5.2845,5.2477,5.1975,5.1398,5.067,5.0167,4.9741,4.922,4.8611,4.8083,4.7707,4.745,4.7199,4.6672,4.6522,4.6401,4.5849,4.5723,4.5598,4.5167,4.497,4.4744,4.4342,4.4141,4.3915,4.3514,4.3438,4.3388,4.3266,4.2889,4.2893,4.3693,4.297,4.3135,4.5378,4.5511,4.5636,4.6233,4.63,4.5822,4.4676,4.4416,4.4087,4.3609,4.3,4.2661,4.2661,4.2162,4.1852,4.1673,4.1673,4.1583,4.1403,4.1583,4.1673,4.1673,4.2331,4.2661,3.5624,3.6044,3.6664,3.8233,3.8657,3.9477,4.2588,4.4821,4.695,4.9557,5.1028,5.289,5.6294,5.7503,5.8853,6.1546,6.2446,6.2606,6.2094,6.1065,5.9921,5.8867,5.7763,5.7336,0.0,5.9985,6.1667,6.2706,6.2781,6.2781,6.2781,6.232,6.227,6.2781,6.232,6.2295,6.2781,6.227,6.1718,6.1165,6.0588,6.001,5.9408,5.7788,5.6734,5.6118,5.4436,5.3708,5.3658,5.3096,5.2895,5.2895,5.2895,5.2895,5.2895,5.287,5.2519,5.1925,5.0795,5.0386,5.0293,4.9741,4.9188,4.8768,4.8768,4.8335,4.7751,4.7224,4.7074,4.6948,4.6396,4.6276,4.6276,4.625,4.5849,4.5447,4.5447,4.4995,4.4564,4.4539,4.4539,4.4392,4.3865,4.3765,4.3592,4.312,4.2542,4.2729,4.4163,4.4977,4.5636,4.6233,4.63,4.6001,4.5334,4.4676,4.4296,4.4267,4.3638,4.326,4.326,4.323,4.297,4.2381,4.2381,4.2051,4.1403,4.2051,4.2381,4.2381,4.3,4.326,3.6195,3.7922,3.9913,4.0516,4.2005,4.3766,4.546,4.6881,4.802,4.8794,5.0053,5.1702,5.378,5.4854,5.5915,5.7429,5.9034,5.9999,5.9706,6.037,5.9935,5.7374,5.701,0.0,0.0,0.0,0.0,6.1592,6.1743,6.2044,6.2756,6.2606,6.2606,6.2781,6.2606,6.2606,6.2781,6.1918,6.1366,6.1165,6.0236,5.9684,5.9458,5.8177,5.7499,5.7223,5.5164,5.4321,5.4245,5.3306,5.2895,5.2895,5.2895,5.2895,5.2895,5.2895,5.277,5.2519,5.18,5.1297,5.0896,5.0318,4.9766,4.9238,4.8919,4.8667,4.836,4.7807,4.7626,4.7575,4.7431,4.7104,4.6823,4.6823,4.6426,4.5924,4.5573,4.5321,4.507,4.4665,4.4589,4.4414,4.389,4.379,4.3614,4.309,4.292,4.3204,4.4181,4.4954,4.5781,4.6851,4.6958,4.6689,4.6001,4.5762,4.5433,4.5005,4.4326,4.3967,4.3967,4.3549,4.322,4.3,4.3,4.2891,4.2651,4.2891,4.3,4.3,4.322,4.329,3.8708,4.0249,4.1894,4.263,4.4124,4.5712,4.6597,4.7184,4.7621,4.7817,4.8385,4.9443,5.137,5.2353,5.3461,5.5198,5.6849,5.8053,5.8491,5.8861,5.8403,5.6445,5.5993,5.5516,0.0,0.0,0.0,6.0387,6.0964,6.1567,6.2496,6.248,6.2581,6.2781,6.2606,6.248,6.248,6.1843,6.1266,6.0864,5.9935,5.9483,5.9458,5.8378,5.7775,5.7474,5.5476,5.4471,5.422,5.3306,5.2895,5.2895,5.2895,5.2895,5.2895,5.2895,5.2895,5.282,5.2302,5.1875,5.1448,5.067,5.0167,4.9791,4.927,4.9095,4.8994,4.8385,4.8209,4.8159,4.7958,4.7626,4.7375,4.7375,4.6973,4.6471,4.615,4.5924,4.5673,4.5267,4.5192,4.5045,4.4493,4.4066,4.3689,4.3341,4.3021,4.3257,4.4434,4.4816,4.5602,4.7135,4.7309,4.713,4.6689,4.645,4.6121,4.5693,4.5035,4.4676,4.4676,4.4237,4.3908,4.3668,4.3668,4.3549,4.329,4.329,4.329,4.329,4.329,4.329,4.2662,4.2819,4.2733,4.4452,4.4982,4.5289,4.6133,4.6044,4.6026,4.6777,4.6286,4.6506,4.9075,5.0066,5.1472,5.4529,5.5804,5.695,5.8297,5.6899,5.5867,5.6294,0.0,0.0,0.0,0.0,0.0,5.9257,0.0,6.1341,6.2019,6.2044,6.2295,6.2781,6.2295,6.1994,6.1994,6.1943,6.1366,6.0261,5.9734,5.9483,5.9458,5.8378,5.7575,5.691,5.529,5.427,5.3658,5.3096,5.2895,5.2895,5.2895,5.2895,5.2895,5.2895,5.2895,5.282,5.2327,5.2126,5.1925,5.082,5.0444,5.0318,4.9766,4.959,4.949,4.8994,4.8843,4.8718,4.8134,4.7983,4.7958,4.7958,4.7525,4.7149,4.7149,4.6722,4.6351,4.6351,4.6301,4.61,4.5573,4.4568,4.384,4.3815,4.2939,4.2931,4.4813,4.463,4.5053,4.705,4.7266,4.7309,4.7309,4.6719,4.636,4.636,4.5723,4.5334,4.5334,4.5304,4.5005,4.4356,4.4356,4.4027,4.3349,4.3349,4.3349,4.3349,4.3349,4.3349,4.1997,4.3714,4.5344,4.5814,4.6162,4.6426,4.6328,4.6715,4.6618,4.4805,4.5419,4.6186,4.59,4.6843,4.8127,4.9585,5.3112,5.5765,5.5909,5.8491,5.9759,5.8215,5.8052,5.76,5.6483,5.6796,0.0,0.0,5.9408,6.0311,6.2455,6.2581,6.2631,6.2781,6.2295,6.1994,6.1994,6.1165,6.0412,5.9709,5.9558,5.9483,5.9458,5.8378,5.7575,5.691,5.529,5.427,5.3658,5.3096,5.2895,5.2895,5.2895,5.2895,5.2895,5.2895,5.2895,5.287,5.2719,5.2418,5.2,5.1297,5.077,5.0318,4.9766,4.959,4.9565,4.9414,4.9389,4.9364,4.9213,4.8862,4.8592,4.8592,4.8134,4.7707,4.7707,4.7249,4.6898,4.6898,4.625,4.5648,4.5522,4.4895,4.4238,4.3865,4.3564,4.3626,4.4281,4.4307,4.4861,4.6344,4.6978,4.7309,4.7309,4.716,4.707,4.707,4.642,4.6031,4.6031,4.5574,4.5214,4.5035,4.5035,4.4736,4.4057,4.4057,4.4057,4.4057,4.4057,4.4296,4.3691,4.5167,4.643,4.7003,4.6894,4.6557,4.6293,4.6226,4.5767,4.4218,4.4956,4.5301,4.359,4.4777,4.6046,4.6065,5.0266,5.3897,5.5042,5.8096,6.001,5.9483,5.9458,5.9131,5.8202,5.8403,5.9056,0.0,5.9734,6.0272,6.2345,6.2471,6.2471,6.2471,6.1943,6.1517,6.1266,6.0387,5.9809,5.9483,5.9483,5.9382,5.9131,5.8278,5.7449,5.6559,0.0,5.427,5.3658,5.3096,5.2895,5.2895,5.2895,5.2895,5.2895,5.2895,5.2744,5.2578,5.2578,5.2201,5.1699,5.1406,5.0896,5.0318,4.9766,4.959,4.959,4.959,4.959,4.959,4.959,4.9364,4.917,4.917,4.851,4.7908,4.7908,4.7475,4.7099,4.7099,4.6426,4.5849,4.5849,4.5372,4.4895,4.4593,4.4116,4.3846,4.3936,4.3884,4.4422,4.6042,4.6337,4.6682,4.7266,4.7309,4.7309,4.7309,4.6929,4.6719,4.6719,4.6381,4.6052,4.5753,4.5753,4.5424,4.4736,4.4736,4.4736,4.4736,4.4736,4.4945,4.625,4.6724,4.6816,4.7871,4.7129,4.6044,4.5755,4.4944,4.4208,4.4052,4.4569,4.4385,4.2128,4.3826,4.527,4.4349,4.8387,5.259,5.5415,5.7348,5.9006,6.0487,6.0236,5.9935,5.9935,5.9859,6.0261,6.1316,6.0864,6.1014,6.2069,6.2044,6.1943,6.1793,6.1316,6.0788,6.0211,5.9734,5.9483,5.9483,5.9483,5.9232,5.8666,5.8152,5.7248,5.6043,5.5049,0.0,5.3557,5.3071,5.2895,5.2895,5.2895,5.2895,5.2895,5.2895,5.2544,5.2101,5.2101,5.1699,5.1172,5.1172,5.082,5.0318,4.9766,4.959,4.959,4.959,4.959,4.959,4.959,4.959,4.959,4.959,4.8837,4.8134,4.8134,4.7626,4.7199,4.7199,4.6697,4.6326,4.6371,4.5974,4.5573,4.5497,4.4644,4.3991,4.3915,4.3718,4.4244,4.6016,4.5965,4.6238,4.7342,4.7369,4.7309,4.7309,4.7309,4.7309,4.7309,4.7309,4.704,4.645,4.642,4.6091,4.5424,4.5424,4.5424,4.5424,4.5424,4.5484,4.641,4.7371,4.7851,4.7715,4.6465,4.4862,4.3437,4.333,4.3174,4.2076,4.3752,4.4652,4.2231,4.4572,4.6774,4.6428,5.0864,5.5189,5.7625,5.9901,6.1567,6.2255,6.228,6.2204,6.2204,6.1843,0.0,0.0,6.2019,6.1994,6.2647,6.2245,6.1567,6.0638,6.0512,6.0211,5.9633,5.9533,5.9483,5.9483,5.9483,5.9232,5.8666,5.8152,5.7047,5.5491,5.4873,0.0,5.302,5.292,5.2895,5.2895,5.2895,5.2895,5.2895,5.2895,5.2544,5.2101,5.2101,5.1423,5.0569,5.0569,5.0494,5.0318,4.9766,4.959,4.959,4.959,4.959,4.959,4.959,4.959,4.959,4.959,4.9439,4.9314,4.9314,4.8485,4.7782,4.7782,4.6979,4.6421,4.6873,4.6527,4.6024,4.5547,4.5321,4.502,4.4514,4.5128,4.574,4.6082,4.7143,4.7888,4.8117,4.7608,4.7309,4.7309,4.7309,4.7309,4.7309,4.7309,4.7249,4.713,4.713,4.68,4.6121,4.6121,4.6121,4.6121,4.6121,4.642,4.6706,4.7766,4.834,4.7461,4.5449,4.3495,4.2985,4.2439,4.2079,4.2378,4.408,4.4689,4.2076,4.3818,4.5398,4.4642,4.7619,5.1603,5.6032,5.6704,5.8271,6.2308,6.1722,6.1474,6.27,6.2556,6.2505,6.2781,6.2531,6.2421,6.2395,6.1592,6.0738,5.991,5.9885,5.9759,5.9483,5.9483,5.9483,5.9483,5.9232,5.8805,5.8278,5.77,5.6545,5.4974,5.4723,0.0,5.2895,5.2895,5.2895,5.2895,5.2895,5.2895,5.2895,5.2895,5.2544,5.2101,5.2101,5.1574,5.082,5.0519,5.0218,4.9941,4.9665,4.959,4.959,4.959,4.959,4.959,4.959,4.959,4.959,4.959,4.9364,4.9163,4.9163,4.851,4.7983,4.8309,4.7707,4.7129,4.7099,4.6873,4.6522,4.5999,4.5673,4.5397,4.5121,4.6537,4.7293,4.6635,4.7339,4.8115,4.8753,4.8229,4.7818,4.7818,4.7489,4.7309,4.7309,4.7309,4.7309,4.7309,4.7309,4.716,4.6809,4.6809,4.6809,4.6809,4.6809,4.701,4.7183,4.8036,4.8398,4.7012,4.418,4.1886,4.2511,4.1345,4.0731,4.2696,4.4303,4.4553,4.1955,4.3247,4.4358,4.3327,4.5254,4.8901,5.4733,5.4344,5.5731,6.1917,6.1086,6.0761,6.2618,6.2781,0.0,6.2781,6.2596,6.2295,6.1843,6.0864,6.006,5.9508,5.9483,5.9483,5.9483,5.9483,5.9483,5.9483,5.8981,5.8428,5.7876,5.7261,5.6118,5.4597,5.4597,0.0,0.0,5.2895,5.2895,5.2895,5.2895,5.2895,5.2895,5.2895,5.2544,5.2101,5.2101,5.1749,5.1197,5.0745,5.0318,4.9916,4.9665,4.9665,4.9741,4.9615,4.959,4.959,4.959,4.959,4.959,4.959,4.9264,4.8969,4.8969,4.851,4.8259,4.8868,4.8385,4.7832,4.75,4.7249,4.6948,4.6522,4.6024,4.5673,4.5673,4.7655,4.8643,4.7517,4.7881,4.8565,4.9426,4.8887,4.8468,4.8319,4.7938,4.7608,4.7309,4.7429,4.7459,4.7309,4.7309,4.7309,4.7309,4.7309,4.7309,4.7309,4.7309,4.7309,4.7963,4.8177,4.7871,4.6211,4.2617,3.9738,4.0626,3.9425,3.8812,4.1428,4.3451,4.4168,4.2138,4.4239,4.6223,4.6028,4.8989,5.2711,5.6701,5.8013,5.9397,6.1793,6.2293,6.2552,6.2781,6.2781,6.2781,6.2781,6.1893,6.1316,6.1266,6.0663,6.006,5.9508,5.9483,5.9483,5.9483,5.9483,5.9483,5.9483,5.8981,5.8428,5.7876,5.7261,5.6118,5.4597,5.4597,0.0,0.0,5.2895,5.2895,5.2895,5.2895,5.2895,5.2895,5.2895,5.2544,5.2101,5.2101,5.1749,5.1306,5.1255,5.1172,5.0946,4.9916,4.9941,5.0243,4.9741,4.959,4.959,4.959,4.959,4.959,4.959,4.9565,4.9515,4.9515,4.912,4.8894,4.9414,4.8661,4.8058,4.8567,4.7807,4.7074,4.7023,4.6572,4.6225,4.6225,4.8237,4.9362,4.8729,4.9965,5.0641,5.0166,4.9553,4.8947,4.8349,4.8798,4.8588,4.7369,4.7878,4.7908,4.7309,4.7309,4.7309,4.7309,4.7309,4.7309,4.7309,4.7309,4.7309,4.734,4.805,4.8066,4.584,4.2031,3.9302,4.1108,3.8918,3.7675,4.169,4.3438,4.3963,4.3205,4.4354,4.5603,4.6088,4.6103,4.7334,5.1024,4.9998,5.1146,5.7312,5.7577,5.8702,6.2433,6.2781,6.2781,6.2781,6.2119,6.1542,6.119,6.0311,5.9734,5.9508,5.9483,5.9483,5.9483,5.9483,5.9332,5.9031,5.8478,5.7926,5.7349,5.6445,5.5491,5.4572,5.422,0.0,0.0,5.2895,5.2895,5.2895,5.2895,5.2895,5.2895,5.2895,5.2744,5.2569,5.2569,5.2452,5.2226,5.1875,5.1774,5.1574,5.0444,5.0243,5.0368,5.0142,5.0092,5.0092,5.0092,4.9841,4.959,4.959,4.959,4.959,4.959,4.9414,4.9339,4.9565,4.9238,4.8887,4.8818,4.841,4.8008,4.7657,4.7124,4.6772,4.6772,4.8851,5.0078,4.9417,5.0813,5.1528,5.0877,5.0219,4.9733,4.9471,4.9366,4.9067,4.8528,4.8768,4.8588,4.7908,4.7908,4.7698,4.7309,4.7309,4.7309,4.7309,4.7309,4.7309,4.6618,4.7403,4.7511,4.5825,4.2204,3.9593,4.1913,3.943,3.7821,4.2035,4.3363,4.3835,4.4072,4.4571,4.5171,4.5777,4.4777,4.4958,4.7785,4.5601,4.663,5.4387,5.4113,5.5574,6.1356,6.2465,6.2781,6.2781,6.232,6.1768,6.1215,6.0261,5.9659,5.9508,5.9483,5.9483,5.9483,5.9332,5.9081,5.8666,5.8001,5.7349,5.6734,5.5817,5.4988,5.4321,5.3884,0.0,0.0,5.2895,5.2895,5.2895,5.2895,5.2895,5.2895,5.2895,5.2895,5.2895,5.2895,5.2895,5.282,5.2477,5.2126,5.1724,5.0921,5.0544,5.0444,5.0619,5.0544,5.0336,5.0185,4.9891,4.959,4.959,4.959,4.959,4.959,4.959,4.959,4.959,4.959,4.9464,4.912,4.8919,4.8667,4.8234,4.7676,4.7324,4.7324,4.9054,5.0212,4.9968,5.1267,5.1962,5.1541,5.1056,5.0637,5.0226,5.0002,4.9696,4.9329,4.9486,4.9277,4.8618,4.8588,4.8379,4.7878,4.7878,4.7878,4.7878,4.7878,4.7878,4.5992,4.6093,4.5707,4.6341,4.316,4.0485,4.2776,4.1006,3.9594,4.2107,4.3017,4.3675,4.4544,4.5182,4.5607,4.5616,4.6967,4.8398,4.943,4.8558,4.9654,5.4537,5.3627,5.4533,5.9355,6.1627,6.2781,6.2781,6.232,0.0,6.1215,6.0638,6.006,5.9508,5.9483,5.9483,5.9483,5.8981,5.8691,5.8704,5.7537,5.6709,5.6194,5.5641,5.4762,5.3708,0.0,0.0,0.0,5.2895,5.2895,5.2895,5.2895,5.2895,5.2895,5.2895,5.2895,5.2895,5.2895,5.2895,5.2895,5.2895,5.2176,5.1331,5.1306,5.087,5.0544,5.1096,5.087,5.0293,4.9741,4.959,4.959,4.959,4.959,4.959,4.959,4.959,4.959,4.959,4.959,4.959,4.959,4.917,4.8793,4.8793,4.8259,4.7908,4.7908,4.873,4.9636,5.049,5.1433,5.206,5.2157,5.2187,5.1594,5.0285,5.0817,5.0631,4.9337,4.986,4.989,4.9277,4.9299,4.9299,4.9299,4.9299,4.9299,4.9299,4.9299,4.9299,4.4603,4.5172,4.5127,4.4617,4.1805,3.9635,4.1456,3.9343,3.7709,4.0221,4.1565,4.2329,4.2589,4.3934,4.5103,4.5483,4.6652,4.7195,4.6121,4.6354,4.8216,5.2511,5.5509,5.8418,6.1555,6.0989,6.1076,6.27,6.2631,6.2169,6.124,6.1014,6.0487,5.9533,5.9483,5.9332,5.8981,5.8767,5.829,5.7512,5.6784,5.6194,5.5616,5.4662,5.4034,0.0,0.0,0.0,0.0,5.2895,5.2895,5.2895,5.2895,5.2895,5.2895,5.2895,5.2895,5.2895,5.2895,5.2895,5.2895,5.2895,5.2176,5.1348,5.1724,5.1172,5.0444,5.0645,5.0569,5.0293,4.9741,4.959,4.959,4.959,4.959,4.959,4.959,4.959,4.959,4.959,4.959,4.959,4.959,4.9439,4.9371,4.9371,4.8862,4.8542,4.8542,4.8959,4.9388,4.9667,5.0546,5.1601,5.2795,5.2875,5.2695,5.2276,5.2037,5.1708,5.1312,5.105,5.0578,4.992,4.992,4.9703,4.9277,4.9277,4.8816,4.7882,4.7882,4.7882,4.3053,4.3686,4.3661,4.3595,4.1574,3.9974,4.1341,3.9575,3.8091,3.9485,4.0548,4.1334,4.1668,4.2758,4.3886,4.4882,4.5829,4.6148,4.5146,4.5147,4.6383,4.9479,5.4773,5.8813,6.0506,6.0625,6.1242,6.27,6.2606,6.2119,6.124,6.0964,6.0337,5.9232,5.9207,5.8956,5.8403,5.7976,5.7387,5.6684,5.5968,5.529,5.4737,5.4009,5.3607,0.0,0.0,0.0,0.0,5.2895,5.2895,5.2895,5.2895,5.2895,5.2895,5.2895,5.2895,5.2895,5.2895,5.2895,5.2895,5.2895,5.2176,5.1272,5.1172,5.0971,5.0645,5.0218,5.0243,5.0343,4.9992,4.9741,4.964,4.9866,4.9741,4.959,4.959,4.959,4.959,4.959,4.959,4.959,4.959,4.959,4.959,4.959,4.9346,4.912,4.912,4.9106,4.9239,4.9601,5.0166,5.0989,5.2153,5.2013,5.2008,5.2358,5.1999,5.2013,5.2552,5.2187,5.1648,5.0966,5.0467,4.9876,4.9273,4.8752,4.8004,4.7153,4.7153,4.7153,0.0,4.1608,4.1561,4.3071,4.2152,4.1114,4.2057,4.1207,0.0,3.9657,4.0009,4.0711,4.161,4.1802,4.2389,4.4151,4.4851,4.5454,4.6205,4.5459,4.5258,4.644,5.2346,5.6573,5.7279,6.031,6.2379,6.2731,6.227,6.1718,6.114,6.0563,5.972,5.8704,5.8541,5.8303,5.7775,5.6746,5.6168,5.6068,5.5013,5.4245,5.3708,5.3658,5.3381,0.0,0.0,0.0,0.0,5.2895,5.2895,5.2895,5.2895,5.2895,5.2895,5.2895,5.2895,5.2895,5.2895,5.2895,5.287,5.2795,5.2076,5.1021,4.9916,5.0318,5.0946,4.9891,4.9967,5.0336,5.0336,4.9967,4.9715,5.0243,4.9967,4.959,4.959,4.959,4.959,4.959,4.959,4.959,4.959,4.959,4.959,4.959,4.959,4.959,4.959,4.9145,4.9132,4.9988,5.0063,5.0153,5.0487,5.0078,5.0203,5.111,5.11,5.1711,5.3063,5.3082,5.2705,5.1958,5.0693,4.9753,4.9153,4.7819,4.7126,4.7078,4.7078,4.7078,3.7918,0.0,4.0447,4.1607,4.1247,4.0665,0.0,4.0263,3.9456,3.9134,3.9894,4.0826,4.151,4.2354,4.3494,4.5315,4.5867,4.6418,4.7362,5.063,5.2586,5.1658,5.4152,5.6935,5.9334,5.7911,5.8317,6.1927,6.1692,6.1115,6.0563,5.9985,5.9207,5.8127,5.7248,5.6746,5.662,5.6344,5.5792,5.4974,5.4235,5.3833,5.3683,5.3281,5.2995,0.0,0.0,0.0,5.2895,5.2895,5.2895,5.2895,5.2895,5.2895,5.2895,5.2895,5.2895,5.2895,5.2895,5.2895,5.2744,5.195,5.1197,5.0494,4.9816,4.9791,4.9941,4.9665,4.969,4.9791,4.9791,4.969,4.9615,4.9766,4.969,4.959,4.959,4.959,4.959,4.959,4.959,4.959,4.959,4.959,4.959,4.959,4.959,4.959,4.959,4.9145,4.8869,4.9126,4.8694,4.8467,4.8552,5.0144,5.1542,5.2481,5.2044,5.1914,5.2249,5.1784,5.0902,4.9619,4.883,4.859,4.8872,4.8112,4.7401,4.6781,4.6781,4.6781,3.6641,3.8133,3.9588,4.0071,4.021,4.0227,4.0054,3.9741,3.9319,3.8684,3.9504,4.0517,4.1178,4.1744,4.2809,4.4782,4.426,4.4062,4.5327,4.8262,5.0755,5.1986,5.2844,5.4969,5.909,5.7733,5.8011,6.1376,6.1115,6.0537,5.996,5.9433,5.8529,5.7173,5.652,5.6093,5.5842,5.5315,5.4762,5.4195,5.3607,5.3356,5.3296,5.302,5.2895,0.0,0.0,0.0,5.2895,5.2895,5.2895,5.2895,5.2895,5.2895,5.2895,5.2895,5.2895,5.2895,5.2895,5.2895,5.2744,5.1925,5.1272,5.072,5.0142,4.9791,4.959,4.959,4.959,4.9715,5.0243,5.0167,5.0092,5.0619,5.0544,5.0293,5.0042,4.9967,4.9891,4.964,4.959,4.959,4.959,4.959,4.959,4.959,4.959,4.959,4.959,4.9371,4.9095,4.8818,4.8711,4.8485,4.7958,4.9144,5.03,5.1238,5.074,5.068,5.1382,5.1043,5.0067,4.8325,4.7676,4.7215,4.6873,4.6556,4.6168,4.5747,4.5747,4.5747,3.6122,3.7569,3.8842,3.8779,3.9381,3.9865,3.9402,3.9474,3.9412,3.8659,3.9432,4.0336,4.0735,4.0823,4.1468,4.3501,4.2192,4.1586,4.346,4.4294,4.6326,5.0632,5.0774,5.2494,5.7521,5.7787,5.8557,6.0781,6.0311,5.9759,5.9282,5.8679,5.7675,5.6244,5.5968,5.5616,5.5139,5.4185,5.3658,5.3582,5.313,5.2895,5.2895,5.2895,5.2895,5.2895,0.0,0.0,5.2895,5.2895,5.2895,5.2895,5.2895,5.2895,5.2895,5.2895,5.2895,5.2895,5.2895,5.2845,5.2694,5.2251,5.1674,5.1071,5.067,5.0092,4.964,4.9816,4.9791,4.9967,5.1054,5.0845,5.067,5.1724,5.1548,5.1046,5.0645,5.0544,5.0393,4.9816,4.9715,4.969,4.9615,4.959,4.9615,4.9715,4.9715,4.9715,4.9715,4.9715,4.9515,4.8994,4.9314,4.9213,4.8234,4.8083,4.8395,4.9162,4.8858,4.9185,5.0406,5.0211,4.9237,4.7505,4.6843,4.5985,4.4865,4.4765,4.4765,4.4865,4.4865,4.4865,3.4621,3.6302,3.8019,3.8836,3.9532,3.9865,3.9402,3.9341,3.9454,3.983,4.0839,4.145,4.0618,4.0746,4.1305,4.2346,4.3259,4.4909,4.7948,4.8456,4.9446,5.1878,5.1498,5.2299,5.5546,5.4487,5.5329,5.9462,5.883,5.8227,5.8152,5.7173,5.647,5.6219,5.4838,5.4034,5.3959,5.3783,5.3482,5.302,5.292,5.2895,5.2895,5.2895,5.2895,5.2895,0.0,5.2895,5.2895,5.2895,5.2895,5.2895,5.2895,5.2895,5.2895,5.2895,5.2895,5.2895,5.2895,5.2594,5.2226,5.2126,5.1398,5.0619,5.1021,5.0419,4.9791,5.0778,5.067,5.0444,5.1096,5.0845,5.0569,5.1247,5.0971,5.067,5.1071,5.1147,5.0971,5.0393,5.0293,5.0142,4.9665,4.959,4.9741,5.0218,5.0293,5.0293,5.0293,5.0293,5.0067,4.9515,4.954,4.9515,4.9339,4.8912,4.8712,4.8862,4.9045,4.9276,4.951,4.7885,4.6824,4.6509,4.5978,4.5809,4.605,4.5573,4.5598,4.605,4.605,4.605,3.3748,3.5699,3.759,3.7494,3.8564,3.9447,3.8845,3.8929,3.9204,3.9355,4.0147,4.0576,3.9819,4.1306,4.2663,4.2765,4.3003,4.3619,4.48,4.5349,4.6852,5.0219,0.0,4.9847,5.4079,5.3396,5.3995,5.7042,5.7656,5.7625,5.7022,5.6495,5.5792,5.4888,5.411,5.3557,5.3246,5.3281,5.3121,5.2895,5.2895,5.2895,5.2895,5.2895,5.2895,5.2895,0.0,5.2895,5.2895,5.2895,5.2895,5.2895,5.2895,5.2895,5.2895,5.2895,5.2895,5.2895,5.2895,5.2719,5.2468,5.2201,5.1749,5.1272,5.0921,5.0444,5.0218,5.1046,5.087,5.0619,5.1498,5.1523,5.1473,5.2026,5.1941,5.1741,5.1724,5.1724,5.1548,5.0996,5.0896,5.0795,5.0544,5.0494,5.0594,5.0845,5.0896,5.0896,5.0896,5.0896,5.067,5.0092,5.0042,4.9916,4.9615,4.912,4.8667,4.8309,4.8436,4.8398,4.8116,4.7496,4.7029,4.6722,4.6778,4.6928,4.7179,4.6928,4.6928,4.7179,4.6848,4.6722,3.3395,3.5235,3.7001,3.6527,3.7569,3.8715,3.8639,3.8436,3.8418,3.9123,3.9728,3.9764,3.8535,4.1013,4.3131,4.2822,4.3079,4.3204,4.29,4.3017,4.4696,4.8714,4.7203,4.7811,5.2842,5.2619,5.3135,5.5422,5.6548,5.6746,5.5867,5.5691,5.5039,5.3733,5.3582,5.3331,5.2895,5.2895,5.2895,5.2895,5.2895,5.2895,5.2895,5.2895,5.2895,5.2895,5.2895,5.2895,5.2895,5.2895,5.2895,5.2895,5.2895,5.2895,5.2895,5.2895,5.2895,5.2895,5.2895,5.2895,5.282,5.2427,5.2201,5.1975,5.1189,5.082,5.077,5.1473,5.1247,5.1046,5.2051,5.2201,5.2251,5.277,5.2795,5.2619,5.2352,5.2302,5.2126,5.1574,5.1473,5.1456,5.1297,5.1306,5.1356,5.1448,5.1473,5.1473,5.1473,5.1473,5.1247,5.067,5.0494,5.0193,4.964,4.9314,4.8912,4.8335,4.8058,4.7782,4.75,4.7782,4.7732,4.7299,4.7707,4.7908,4.7908,4.7908,4.7908,4.7908,4.7475,4.7274,3.3609,3.4777,3.6022,3.7043,3.7187,3.7555,3.9433,3.7838,3.6896,4.0254,4.1024,4.0032,3.6595,3.8714,4.1076,4.1173,4.4411,4.7133,4.7725,4.6454,4.6464,4.9257,4.7624,4.7827,5.1848,5.122,5.2108,5.5843,5.5318,5.4798,5.4723,5.416,5.3833,5.3708,5.3231,5.292,5.2895,5.2895,5.2895,5.2895,5.2895,5.2895,5.2895,5.2895,5.2895,5.2895,5.2895,5.2895,5.2895,5.2895,5.2895,5.2895,5.2895,5.2895,5.2895,5.2895,5.2895,5.2895,5.2895,5.2895,5.2895,5.2845,5.2528,5.2176,5.2569,5.2026,5.1448,5.2468,5.2402,5.2126,5.2669,5.2443,5.2251,5.277,5.2528,5.2302,5.2719,5.2845,5.2669,5.2151,5.2051,5.1875,5.1406,5.1306,5.1448,5.1975,5.2051,5.2051,5.2051,5.2051,5.1825,5.1272,5.0745,5.0193,4.964,5.0017,5.0067,4.9515,4.8485,4.8134,4.8667,4.8184,4.7883,4.7857,4.7883,4.7908,4.7908,4.7908,4.7908,4.7908,4.7883,4.7857,3.2856,3.4257,3.5555,3.5323,3.5922,3.7303,4.0303,3.8854,3.7688,4.0554,4.1721,4.1881,4.0752,3.9484,3.9576,4.2435,4.4356,4.5861,4.6897,4.65,4.6461,4.7448,4.6619,4.7007,4.9758,5.0019,5.1176,5.3951,5.4419,5.4446,5.4059,5.3808,5.3557,5.3196,5.2995,5.2895,5.2895,5.2895,5.2895,5.2895,5.2895,5.2895,5.2895,5.2895,5.2895,5.2895,5.2895,5.2895,5.2895,5.2895,5.2895,5.2895,5.2895,5.2895,5.2895,5.2895,5.2895,5.2895,5.2895,5.2895,5.2845,5.2528,5.2468,5.2528,5.2051,5.185,5.1875,5.2302,5.2277,5.2226,5.2744,5.2528,5.2251,5.277,5.2468,5.2251,5.277,5.2895,5.2845,5.2619,5.2628,5.2519,5.2352,5.2302,5.2377,5.2578,5.2628,5.2628,5.2628,5.2628,5.2402,5.185,5.1297,5.087,5.067,5.0845,5.072,5.0142,4.9715,4.9264,4.8818,4.8887,4.8786,4.8492,4.8786,4.8962,4.8962,4.8962,4.8962,4.8937,4.8611,4.8466,3.2744,3.3839,3.4786,3.4088,3.4623,3.6344,4.0328,3.9245,3.8147,4.0829,4.0886,4.0957,4.2575,4.024,3.9384,4.3277,4.4865,4.5723,4.622,4.6308,4.625,4.6113,4.5723,4.6228,4.8046,4.901,5.0321,5.2102,5.3345,5.3884,5.3482,5.3457,5.3306,5.2895,5.2895,5.282,5.2644,5.2795,5.2795,5.2644,5.282,5.2895,5.2895,5.2895,5.2795,5.2678,5.2678,5.2578,5.2402,5.2402,5.2468,5.2678,5.2678,5.2744,5.2895,5.2895,5.2795,5.2678,5.2678,5.2678,5.2578,5.2026,5.2327,5.2719,5.1825,5.1925,5.2377,5.2377,5.2377,5.2452,5.2795,5.2619,5.2452,5.2795,5.2594,5.2477,5.282,5.2895,5.2895,5.2895,5.2895,5.2895,5.2895,5.2895,5.2895,5.2895,5.2895,5.2895,5.2895,5.2895,5.2669,5.2176,5.1774,5.1473,5.1297,5.1481,5.1222,5.0436,5.0594,5.0193,4.912,4.9389,4.9414,4.9069,4.9414,4.959,4.959,4.959,4.959,4.959,4.9213,4.9069,3.3468,3.3526,3.3524,3.3723,3.3507,3.4474,3.9272,3.8566,3.7849,4.1176,3.8432,3.6695,4.0753,4.0567,4.064,4.3151,4.6085,4.7649,4.6457,4.6289,4.6133,4.5766,4.5273,4.5489,4.677,4.8139,4.9465,5.0673,5.2077,5.2861,5.2861,5.2895,5.2895,5.2895,5.287,5.2619,5.2101,5.2594,5.2594,5.2126,5.2619,5.2895,5.2895,5.2895,5.2628,5.2101,5.2101,5.18,5.1306,5.1306,5.1599,5.2101,5.2101,5.2427,5.287,5.287,5.2578,5.2101,5.2101,5.2101,5.2,5.1448,5.2026,5.277,5.2277,5.2477,5.2895,5.2895,5.2895,5.2895,5.2895,5.2895,5.2895,5.2895,5.2895,5.2895,5.2895,5.2895,5.2895,5.2895,5.2895,5.2895,5.2895,5.2895,5.2895,5.2895,5.2895,5.2895,5.2895,5.2895,5.2694,5.2176,5.2126,5.19,5.1348,5.18,5.1624,5.0494,5.0971,5.077,4.964,4.959,4.959,4.959,4.9615,4.9615,4.959,4.9615,4.9615,4.9615,4.9615,4.9615,3.1848,3.1354,3.1261,3.2859,3.3871,3.5255,3.8013,3.8152,3.9009,4.3714,4.0934,3.8577,4.1706,4.0965,0.0,4.1225,4.3439,4.5066,4.5359,4.541,4.5254,4.4824,4.4375,4.4715,4.6267,4.6135,4.6762,4.8629,5.0056,5.0857,5.0857,5.1782,5.2352,5.2352,5.1975,5.1699,5.1523,5.1699,5.1875,5.2101,5.1875,5.2176,5.2895,5.2895,5.2628,5.2101,5.2101,5.18,5.1306,5.1306,5.1373,5.1523,5.1523,5.1624,5.1774,5.1774,5.1674,5.1523,5.1523,5.1523,5.1498,5.1356,5.1498,5.18,5.2026,5.2226,5.2427,5.2795,5.2895,5.2895,5.2895,5.2895,5.2895,5.2895,5.2594,5.2452,5.282,5.2895,5.2895,5.2895,5.2895,5.2895,5.2895,5.2895,5.2895,5.2895,5.2895,5.2895,5.2895,5.2895,5.282,5.2669,5.2644,5.2628,5.2452,5.2544,5.2377,5.1649,5.1774,5.1172,4.9665,4.959,4.959,4.959,4.9967,4.9992,4.959,4.9992,5.0167,5.0167,5.0167,5.0393,3.0947,3.0248,2.9964,3.2209,3.3679,3.5351,3.8338,3.9401,4.069,4.3959,4.1704,3.975,4.1892,4.0811,4.0039,4.1328,4.2617,4.3769,4.4648,4.4473,4.416,4.3906,4.3476,4.3535,4.4354,4.4601,4.518,4.633,4.7722,4.8884,4.9617,5.0277,5.1015,5.1741,5.1448,5.1172,5.0946,5.1172,5.1322,5.1423,5.1322,5.1624,5.2277,5.2277,5.1975,5.1423,5.1197,5.0921,5.0619,5.0619,5.0745,5.0946,5.0946,5.1071,5.1306,5.1306,5.1147,5.0946,5.0946,5.0946,5.0896,5.067,5.0921,5.1297,5.1398,5.1599,5.19,5.2452,5.2569,5.2619,5.2845,5.2895,5.2895,5.2895,5.2644,5.2528,5.282,5.2895,5.2895,5.2895,5.2895,5.2895,5.2895,5.2895,5.2895,5.2895,5.2895,5.2895,5.2895,5.2895,5.2895,5.2895,5.2895,5.2895,5.2895,5.2895,5.2644,5.2126,5.2101,5.1548,5.0318,5.0268,5.0167,4.9916,5.0469,5.0494,4.9916,5.0494,5.077,5.077,5.077,5.0946,3.0468,2.9965,2.9523,3.1969,3.3472,3.5476,3.9807,4.1588,4.2456,4.2764,4.1406,4.0487,4.1661,4.0584,4.0254,4.2578,4.2988,4.3301,4.4101,4.3535,4.3008,4.3009,4.2617,4.2207,4.1777,4.33,4.4169,4.3811,4.5222,4.6855,4.8697,4.8571,4.9291,5.1164,5.1096,5.082,5.0343,5.082,5.082,5.031,5.082,5.1046,5.1079,5.1222,5.0971,5.0393,4.9791,4.9515,4.9515,4.9565,4.9841,5.016,5.0293,5.0619,5.1079,5.1155,5.0795,5.0343,5.0343,5.0343,5.0268,4.9766,5.0293,5.1046,5.0569,5.0795,5.1322,5.1925,5.2101,5.2226,5.2744,5.2895,5.2895,5.2895,5.2895,5.2895,5.2895,5.2895,5.2895,5.2895,5.2895,5.2895,5.2895,5.2895,5.2895,5.2895,5.2895,5.2895,5.2895,5.2895,5.2895,5.2895,5.2895,5.2895,5.2895,5.2895,5.2669,5.2201,5.2176,5.195,5.1448,5.1356,5.1021,5.0494,5.1071,5.1071,5.0494,5.1071,5.1348,5.1348,5.1348,5.1406,2.9551,2.9491,3.0093,3.3205,3.6287,3.9112,4.1104,4.1737,4.23,4.3685,4.2857,4.2034,4.2494,4.211,4.1797,4.2031,4.2344,4.2637,4.2772,4.2695,4.2441,4.2109,4.1992,4.1777,4.1348,4.1363,4.1375,4.1276,4.2708,4.4366,4.6262,4.7304,4.87,5.0528,4.9798,4.9497,4.9766,4.9464,4.9464,4.9766,4.9497,4.9346,4.9396,5.0703,5.0971,5.0368,4.9364,4.8994,4.9019,4.9414,4.9138,4.8535,4.9414,4.959,4.9396,4.9791,4.9866,4.9766,4.9766,4.9766,4.9741,4.964,4.9766,5.0017,5.0318,5.0494,5.082,5.1825,5.2101,5.2226,5.2744,5.2895,5.2895,5.2895,5.2895,5.2895,5.2895,5.2895,5.2895,5.2895,5.2895,5.2895,5.2895,5.2895,5.2895,5.2895,5.2895,5.2895,5.2895,5.2895,5.2895,5.2895,5.2895,5.2895,5.2895,5.2895,5.2845,5.2719,5.2719,5.2669,5.2544,5.1749,5.1255,5.1096,5.1649,5.1649,5.1096,5.1649,5.1925,5.1925,5.1925,5.2151,2.9153,2.9549,3.0727,3.4992,3.8335,4.0742,4.1601,4.1641,4.1876,4.3133,4.2721,4.2209,4.2525,4.2349,4.2129,4.2109,4.2109,4.2129,4.2129,4.1953,4.1738,4.1523,4.1308,4.1113,4.0879,4.0469,4.0215,4.0215,4.0775,4.2146,4.4633,4.5302,4.6684,4.9117,4.8661,4.8485,4.8786,4.851,4.851,4.8786,4.8485,4.836,4.8385,4.9264,4.949,4.9188,4.8611,4.836,4.841,4.8962,4.8686,4.8008,4.9163,4.9264,4.8843,4.912,4.9364,4.9565,4.9321,4.9364,4.959,4.959,4.959,4.969,5.0243,5.0243,5.0268,5.1398,5.1699,5.185,5.2402,5.2694,5.2895,5.2895,5.2895,5.2895,5.2895,5.2895,5.2895,5.2895,5.2895,5.2895,5.2895,5.2895,5.2895,5.2895,5.2895,5.2895,5.2895,5.2895,5.2895,5.2895,5.2895,5.2895,5.2895,5.2895,5.2895,5.2895,5.2895,5.2895,5.2895,5.2377,5.195,5.1674,5.2226,5.2226,5.1674,5.2226,5.2468,5.2468,5.2468,5.2619,2.9152,3.0268,3.1983,3.6642,3.9453,4.1152,4.1504,4.1367,4.1367,4.207,4.1992,4.1914,4.2266,4.2031,4.1894,4.2168,4.1914,4.1699,4.1699,4.1328,4.1055,4.1055,4.0684,4.041,4.041,4.0019,3.9746,3.9668,3.9238,4.0365,4.3527,4.3365,4.4625,4.7783,4.7832,4.7807,4.7908,4.7832,4.7782,4.7782,4.7682,4.7631,4.7631,4.7631,4.7732,4.7908,4.7807,4.7782,4.7832,4.8385,4.8234,4.7732,4.8862,4.8962,4.8542,4.8617,4.8944,4.9238,4.8818,4.8987,4.9464,4.9464,4.9515,4.9665,5.0142,4.9967,4.9816,5.0845,5.1197,5.1398,5.1975,5.2528,5.2895,5.2895,5.2895,5.2895,5.2895,5.2895,5.2895,5.2895,5.2895,5.2895,5.2895,5.2895,5.2895,5.2895,5.2895,5.2895,5.2895,5.2895,5.2895,5.2895,5.2895,5.2895,5.2895,5.2895,5.2895,5.2895,5.2895,5.2895,5.2895,5.2895,5.2669,5.2251,5.2669,5.2669,5.2251,5.2669,5.2895,5.2895,5.2895,5.2895,2.9793,3.2429,3.5242,3.6956,3.9004,4.0625,4.0645,4.0937,4.125,4.1348,4.1582,4.1816,4.1875,4.1836,4.1699,4.1387,4.1328,4.1289,4.1289,4.0879,4.0567,4.0567,4.0234,3.998,3.998,3.957,3.9141,3.8826,3.834,3.9449,4.2627,4.2738,4.4286,4.7783,4.745,4.7425,4.7908,4.7425,4.7199,4.7199,4.6753,4.6527,4.6527,4.6527,4.7029,4.7883,4.74,4.7199,4.7249,4.7807,4.7431,4.6627,4.7707,4.7807,4.7375,4.7857,4.8083,4.8134,4.8058,4.841,4.8919,4.8919,4.9213,4.9615,4.969,4.9665,4.9715,5.0368,5.0896,5.1398,5.1975,5.2528,5.2895,5.2895,5.2895,5.2895,5.2895,5.2895,5.2895,5.2895,5.2895,5.2895,5.2895,5.2895,5.2895,5.2895,5.2895,5.2895,5.2895,5.2895,5.2895,5.2895,5.2895,5.2895,5.2895,5.2895,5.2895,5.2895,5.2895,5.2895,5.2895,5.2895,5.287,5.2795,5.2845,5.2845,5.2795,5.287,5.2895,5.2895,5.2895,5.2895,3.1479,3.3291,3.5022,3.732,3.8489,3.9162,3.9668,4.0312,4.0742,4.0508,4.0781,4.1152,4.1406,4.1445,4.1387,4.125,4.0976,4.0801,4.0801,4.0449,4.0176,4.0176,3.9785,3.9414,3.918,3.875,3.8301,3.7891,3.7676,3.8777,4.1559,4.171,4.3209,4.6461,4.6326,4.6326,4.6552,4.6326,4.62,4.62,4.5618,4.5668,4.6276,4.5648,4.5974,4.7004,4.6747,4.6647,4.6672,4.7224,4.7004,4.6426,4.7481,4.755,4.7124,4.735,4.7626,4.7857,4.7581,4.8033,4.8793,4.8793,4.917,4.9665,4.9967,4.9841,4.9766,5.067,5.1096,5.1398,5.1975,5.2528,5.2895,5.2895,5.2895,5.2895,5.2895,5.2895,5.2895,5.2895,5.2895,5.2895,5.2895,5.2895,5.2895,5.2895,5.2895,5.2895,5.2895,5.2895,5.2895,5.2895,5.2895,5.2895,5.2895,5.2895,5.2895,5.2895,5.2895,5.2895,5.2895,5.2895,5.2895,5.2895,5.2895,5.2895,5.2895,5.2895,5.2895,5.2895,5.2895,5.2895,3.2178,3.3338,3.4315,3.6641,3.7541,3.7976,3.8588,3.9473,4.0137,3.9941,4.0156,4.043,4.0625,4.08,4.0878,4.0878,4.0488,4.0195,4.0195,3.9726,3.9394,3.9394,3.8984,3.8594,3.8317,3.7949,3.7716,3.7565,3.7714,3.8812,4.1162,4.142,4.2661,4.5183,4.5271,4.5271,4.5271,4.5271,4.5271,4.5271,4.4844,4.5041,4.5849,4.4991,4.5066,4.5874,4.5874,4.5874,4.5924,4.6471,4.6446,4.62,4.7129,4.7255,4.6898,4.6898,4.7149,4.7456,4.7023,4.7631,4.8592,4.8592,4.9044,4.9665,5.0092,5.0017,4.9967,5.082,5.1272,5.1599,5.2,5.2528,5.2895,5.2895,5.2895,5.2895,5.2895,5.2895,5.2895,5.2895,5.2895,5.2895,5.2895,5.2895,5.2895,5.2895,5.2895,5.2895,5.2895,5.2895,5.2895,5.2895,5.2895,5.2895,5.2895,5.2895,5.2895,5.2895,5.2895,5.2895,5.2895,5.2895,5.2895,5.2895,5.2895,5.2895,5.2895,5.2895,5.2895,5.2895,5.2895,5.2895,3.0674,3.2476,3.4154,3.4047,3.5854,3.7584,3.7433,3.8379,3.9394,3.9805,3.9922,3.9805,3.9375,3.9668,3.9961,3.9961,3.957,3.9277,3.9277,3.8555,3.7991,3.7991,3.7656,3.7383,3.7363,3.7344,3.7614,3.8312,3.8791,3.9986,4.1936,4.2526,4.3361,4.4636,4.464,4.464,4.464,4.464,4.464,4.464,4.4614,4.4614,4.469,4.4614,4.4614,4.469,4.469,4.469,4.4715,4.5347,4.5547,4.5598,4.6175,4.6376,4.6351,4.6351,4.6376,4.6376,4.6351,4.7054,4.7958,4.7958,4.8711,4.9615,4.9615,4.9992,5.0393,5.0444,5.1222,5.2076,5.2101,5.2528,5.2895,5.2895,5.2895,5.2895,5.2895,5.2895,5.2895,5.2895,5.2895,5.2895,5.2895,5.2895,5.2895,5.2895,5.2895,5.2895,5.2895,5.2895,5.2895,5.2895,5.2895,5.2895,5.2895,5.2895,5.2895,5.2895,5.2895,5.2895,5.2895,5.2895,5.2895,5.2895,5.2895,5.2895,5.2895,5.2895,5.2895,5.2895,5.2895,5.2895,3.1236,3.2251,3.3246,3.4345,3.5578,3.6729,3.7491,3.8316,3.8989,3.9225,3.8908,3.8496,3.8066,3.8789,3.9355,3.9101,3.8672,3.8379,3.8379,3.7891,3.7519,3.7519,3.7383,3.709,3.6523,3.6484,3.6332,3.6056,3.7167,3.8487,3.9977,4.1148,4.2504,4.4034,4.4091,4.3915,4.3564,4.3564,4.3564,4.3564,4.3564,4.394,4.4564,4.389,4.3765,4.4066,4.3714,4.3966,4.4614,4.4815,4.5146,4.5497,4.5698,4.5999,4.6301,4.6301,4.6301,4.6301,4.6301,4.7004,4.7908,4.7908,4.8686,4.959,4.959,4.9967,5.0494,5.087,5.1523,5.2176,5.2494,5.2744,5.2895,5.2895,5.2895,5.2895,5.2895,5.2895,5.2895,5.2895,5.2895,5.2895,5.2895,5.2895,5.2895,5.2895,5.2895,5.2895,5.2895,5.2895,5.2895,5.2895,5.2895,5.2895,5.2895,5.2895,5.2895,5.2895,5.2895,5.2895,5.2895,5.2895,5.2895,5.2895,5.2895,5.2895,5.2895,5.2895,5.2895,5.2895,5.2895,5.2895,3.139,3.2175,3.2919,3.4204,3.5224,3.6164,3.715,3.7603,3.7922,3.8357,3.7684,3.6992,3.6699,3.7344,3.793,3.7965,3.7578,3.725,3.725,3.6934,3.666,3.666,3.6523,3.6191,3.5625,3.5586,3.5719,3.6056,3.7287,0.0,3.9912,4.1166,4.2254,4.3209,4.3062,4.2886,4.2738,4.2509,4.2434,4.2434,4.2637,4.3115,4.379,4.324,4.319,4.3514,4.3165,4.3388,4.4091,4.4439,4.4844,4.5246,4.5623,4.5999,4.6301,4.6301,4.6301,4.6301,4.6301,4.6903,4.7682,4.7857,4.8535,4.9364,4.954,5.0117,5.0795,5.1205,5.18,5.2477,5.2795,5.2895,5.2895,5.2895,5.2895,5.2895,5.2895,5.2895,5.2895,5.2895,5.2895,5.2895,5.2895,5.2895,5.2895,5.2895,5.2895,5.2895,5.2895,5.2895,5.2895,5.2895,5.2895,5.2895,5.2895,5.2895,5.2895,5.2895,5.2895,5.2895,5.2895,5.2895,5.2895,5.2895,5.2895,5.2895,5.2895,5.2895,5.2895,5.2895,5.2895,5.2895,0.0,0.0,0.0,3.3396,3.4668,3.592,3.6187,3.608,3.6232,3.7187,3.6323,3.5418,3.5351,3.5351,3.5605,3.6499,3.625,3.5942,3.5942,3.5625,3.5371,3.5371,3.498,3.4687,3.4687,3.4687,3.5811,3.8567,3.9305,4.0363,4.2016,4.2635,4.2713,4.2213,4.163,4.1553,4.2135,4.1605,4.1275,4.1275,4.1909,4.2213,4.2238,4.2763,4.3014,4.3014,4.3014,4.3014,4.309,4.4141,4.4589,4.4715,4.5849,4.6301,4.6301,4.6301,4.6301,4.6301,4.6301,4.6647,4.7199,4.7732,4.8309,4.8919,4.9439,5.0393,5.1306,5.1306,5.2076,5.2895,5.2895,5.2895,5.2895,5.2895,5.2895,5.2895,5.2895,5.2895,5.2895,5.2895,5.2895,5.2895,5.2895,5.2895,5.2895,5.2895,5.2895,5.2895,5.2895,5.2895,5.2895,5.2895,5.2895,5.2895,5.2895,5.2895,5.2895,5.2895,5.2895,5.2895,5.2895,5.2895,5.2895,5.2895,5.2895,5.2895,5.2895,5.2895,5.2895,5.2895,5.2895,5.2895,3.1171,0.0,0.0,0.0,0.0,0.0,3.462,3.5922,3.6714,3.4744,3.5137,3.5557,3.4629,3.418,3.4141,3.474,3.4941,3.5059,3.5059,3.4961,3.4883,3.4883,3.4785,3.459,3.4277,3.4271,3.4767,0.0,3.7278,3.8543,3.9757,4.1057,4.1704,4.1528,4.1403,4.1202,4.0978,4.1177,4.1127,4.0725,4.1733,4.2213,4.2238,4.2763,4.3014,4.3014,4.3014,4.3014,4.3065,4.374,4.4267,4.4665,4.5422,4.5949,4.6301,4.6301,4.6301,4.6301,4.6301,4.6647,4.7199,4.7732,4.8309,4.8919,4.9439,5.0393,5.1306,5.1306,5.2076,5.2895,5.2895,5.2895,5.2895,5.2895,5.2895,5.2895,5.2895,5.2895,5.2895,5.2895,5.2895,5.2895,5.2895,5.2895,5.2895,5.2895,5.2895,5.2895,5.2895,5.2895,5.2895,5.2895,5.2895,5.2895,5.2895,5.2895,5.2895,5.2895,5.2895,5.2895,5.2895,5.2895,5.2895,5.2895,5.2895,5.2895,5.2895,5.2895,5.2895,5.2895,5.2895,5.2895,0.0,0.0,0.0,0.0,0.0,0.0,3.4973,3.6004,3.6283,3.3882,3.4819,3.5509,3.3707,3.4143,3.4733,3.4481,3.4485,3.4504,3.4459,3.4434,3.4375,3.418,3.4004,3.373,3.3352,3.3313,3.3731,3.4724,3.6209,3.7828,3.9501,4.0221,4.0725,4.0951,4.075,4.0575,4.0499,4.0575,4.0474,4.0199,4.1279,4.1733,4.1532,4.2537,4.2889,4.2688,4.2914,4.3014,4.3039,4.3564,4.4141,4.4665,4.5522,4.6024,4.6301,4.6301,4.6301,4.6301,4.6301,4.6496,4.6873,4.7657,4.8134,4.856,4.9364,5.0393,5.1306,5.1306,5.2076,5.2895,5.2895,5.2895,5.2895,5.2895,5.2895,5.2895,5.2895,5.2895,5.2895,5.2895,5.2895,5.2895,5.2895,5.2895,5.2895,5.2895,5.2895,5.2895,5.2895,5.2895,5.2895,5.2895,5.2895,5.2895,5.2895,5.2895,5.2895,5.2895,5.2895,5.2895,5.2895,5.2895,5.2895,5.2895,5.2895,5.2895,5.2895,5.2895,5.2895,5.2895,5.2895,5.2895,0.0,0.0,0.0,0.0,0.0,0.0,3.5954,3.6075,3.5558,3.4023,3.5021,3.5458,3.3015,3.4736,3.6152,3.5015,3.4493,3.4185,3.3968,3.3919,3.3711,3.332,3.2949,3.2578,3.2237,3.2198,3.2804,3.4299,3.5894,3.7785,4.0056,3.987,3.9923,4.04,3.9948,3.9923,4.0425,3.9948,3.9697,3.9697,4.0725,4.0976,4.0549,4.2108,4.2587,4.2238,4.2688,4.2939,4.3039,4.3564,4.4141,4.4715,4.5799,4.625,4.6301,4.6301,4.6301,4.6301,4.6301,4.6301,4.6476,4.7556,4.7908,4.8109,4.9238,5.0393,5.1297,5.1423,5.2176,5.2895,5.2895,5.2895,5.2895,5.2895,5.2895,5.2895,5.2895,5.2895,5.2895,5.2895,5.2895,5.2895,5.2895,5.2895,5.2895,5.2895,5.2895,5.2895,5.2895,5.2895,5.2895,5.2895,5.2895,5.2895,5.2895,5.2895,5.2895,5.2895,5.2895,5.2895,5.2895,5.2895,5.2895,5.2895,5.2895,5.2895,5.2895,5.2895,5.2895,5.2895,5.2895,5.2895,0.0,0.0,0.0,0.0,0.0,0.0,3.3598,3.5432,3.6447,3.3655,3.4728,3.578,3.4469,3.4556,3.4674,3.4304,3.4102,3.376,3.3155,3.2785,3.2531,3.2452,3.2374,3.2296,3.2198,3.2198,3.2655,3.3772,3.6032,3.7554,3.807,3.91,3.9747,3.9848,3.9747,3.9747,3.9848,3.9747,3.9697,3.9697,4.035,4.06,4.0524,4.1277,4.1831,4.2213,4.2286,4.2587,4.3039,4.3564,4.4141,4.4665,4.5372,4.5924,4.6301,4.6301,4.6301,4.6301,4.6301,4.6301,4.6476,4.7556,4.7908,4.8109,4.9238,5.0393,5.1473,5.2352,5.2719,5.2895,5.2895,5.2895,5.2895,5.2895,5.2895,5.2895,5.2895,5.2895,5.2895,5.2895,5.2895,5.2895,5.2895,5.2895,5.2895,5.2895,5.2895,5.2895,5.2895,5.2895,5.2895,5.2895,5.2895,5.2895,5.2895,5.2895,5.2895,5.2895,5.2895,5.2895,5.2895,5.2895,5.2895,5.2895,5.2895,5.2895,5.2895,5.2895,5.2895,5.2895,5.2895,5.2895,0.0,0.0,0.0,3.3212,0.0,0.0,0.0,3.5415,3.6067,3.349,3.4915,3.6141,3.4362,3.5047,3.5717,3.5151,3.5009,3.4604,3.348,3.2694,3.212,3.1875,3.1836,3.1758,3.1573,3.1553,3.236,3.4352,3.5671,3.7049,3.853,3.931,3.9697,3.9697,3.9697,3.9697,3.9697,3.9697,3.9697,3.9697,4.0249,4.0375,4.0149,4.0926,4.1478,4.1756,4.206,4.2487,4.3039,4.3291,4.3714,4.4292,4.5146,4.5824,4.6301,4.6301,4.6301,4.6301,4.6301,4.6301,4.6451,4.7224,4.7682,4.8058,4.8937,5.0167,5.1448,5.2277,5.2669,5.2895,5.2895,5.2895,5.2895,5.2895,5.2895,5.2895,5.2895,5.2895,5.2895,5.2895,5.2895,5.2895,5.2895,5.2895,5.2895,5.2895,5.2895,5.2895,5.2895,5.2895,5.2895,5.2895,5.2895,5.2895,5.2895,5.2895,5.2895,5.2895,5.2895,5.2895,5.2895,5.2895,5.2895,5.2895,5.2895,5.2895,5.2895,5.2895,5.2895,5.2895,5.2895,5.2895,0.0,0.0,0.0,0.0,0.0,3.4581,0.0,0.0,0.0,3.4113,3.5373,3.6161,3.4253,3.5586,3.6675,3.5818,3.5656,3.5215,3.395,3.2853,3.2144,3.2053,3.2045,3.1828,3.1245,3.07,3.1467,3.4009,3.4635,3.5987,3.8445,3.9314,3.9647,3.9546,3.9647,3.9697,3.9697,3.9697,3.9697,3.9697,4.0149,4.0124,3.9722,4.06,4.1102,4.1327,4.1806,4.2386,4.3014,4.3014,4.3313,4.389,4.492,4.5673,4.6175,4.6276,4.6301,4.6301,4.6301,4.6301,4.6401,4.6923,4.7525,4.8209,4.8919,5.0042,5.1222,5.18,5.2352,5.2744,5.2744,5.282,5.2895,5.2895,5.2895,5.2895,5.2895,5.2895,5.2895,5.2895,5.2895,5.2895,5.2895,5.2895,5.2895,5.2895,5.2895,5.2895,5.2895,5.2895,5.2895,5.2895,5.2895,5.2895,5.2895,5.2895,5.2895,5.2895,5.2895,5.2895,5.2895,5.2895,5.2895,5.2895,5.2895,5.2895,5.2895,5.2895,5.2895,5.2895,5.2895,5.2895,0.0,0.0,0.0,0.0,3.5161,0.0,0.0,0.0,3.6134,3.662,0.0,3.5454,3.5669,0.0,0.0,3.4541,3.4245,3.3911,3.3447,3.2594,3.2512,3.39,3.4084,3.3584,3.2344,3.0015,2.905,3.0159,3.227,3.3808,3.4441,3.7785,3.9471,3.8994,3.9446,3.9697,3.9697,3.9697,3.9697,3.9697,3.9747,3.9747,3.9697,3.9823,4.0399,4.1302,4.1378,4.2032,4.3014,4.3014,4.3313,4.3865,4.4493,4.507,4.5648,4.6125,4.6301,4.6301,4.6301,4.6301,4.6401,4.6923,4.7832,4.8894,4.9916,5.0368,5.0645,5.1197,5.1774,5.2201,5.2201,5.2519,5.2895,5.2895,5.2895,5.2895,5.2895,5.2895,5.2895,5.2895,5.2895,5.2895,5.2895,5.2895,5.2895,5.2895,5.2895,5.2895,5.2895,5.2895,5.2895,5.2895,5.2895,5.2895,5.2895,5.2895,5.2895,5.2895,5.2895,5.2895,5.2895,5.2895,5.2895,5.2895,5.2895,5.2895,5.2895,5.2895,5.2895,5.2895,5.2895,5.2895,0.0,0.0,0.0,0.0,0.0,0.0,3.4927,0.0,3.5065,0.0,0.0,0.0,0.0,0.0,0.0,0.0,3.4322,3.4169,3.3121,3.3314,3.3385,3.2849,0.0,0.0,3.0884,3.127,3.1651,3.1732,3.3766,3.5508,3.6694,3.7987,3.8617,3.8366,3.8944,3.9245,3.9245,3.9546,3.9697,3.9697,3.9697,3.9697,3.9697,3.9697,4.0124,4.0851,4.1177,4.1781,4.2562,4.2864,4.314,4.3413,4.4263,4.497,4.5552,4.5748,4.6024,4.6301,4.6301,4.6301,4.6451,4.7274,4.8134,4.8944,4.969,5.0167,5.0544,5.1122,5.1674,5.2176,5.2468,5.2719,5.2895,5.2895,5.2895,5.2895,5.2895,5.2895,5.2895,5.2895,5.2895,5.2895,5.2895,5.2895,5.2895,5.2895,5.2895,5.2895,5.2895,5.2895,5.2895,5.2895,5.2895,5.2895,5.2895,5.2895,5.2895,5.2895,5.2895,5.2895,5.2895,5.3196,5.3381,5.3381,5.3708,5.3884,5.3884,5.3532,5.3557,5.3858,5.3231,5.2895,3.2362,0.0,0.0,0.0,0.0,0.0,0.0,0.0,0.0,0.0,0.0,0.0,0.0,0.0,0.0,0.0,0.0,3.3948,3.2707,3.3317,3.3515,3.2578,0.0,0.0,0.0,3.1995,3.2828,3.2822,3.4337,3.5863,3.7245,3.7668,3.779,3.7563,3.8441,3.8894,3.8894,3.9446,3.9697,3.9697,3.9697,3.9697,3.9697,3.9697,3.9998,4.0524,4.1076,4.1656,4.2263,4.2788,4.3014,4.309,4.4016,4.4744,4.5296,4.5598,4.5974,4.6301,4.6301,4.6301,4.6502,4.7732,4.8309,4.8661,4.9389,4.9866,5.0318,5.0896,5.1448,5.2,5.2519,5.277,5.2895,5.2895,5.2895,5.2895,5.2895,5.2895,5.2895,5.2895,5.2895,5.2895,5.2895,5.2895,5.2895,5.2895,5.2895,5.2895,5.2895,5.2895,5.2895,5.2895,5.2895,5.2895,5.2895,5.2895,5.2895,5.2895,5.302,5.3096,5.3096,5.3658,5.3934,5.3934,5.4396,5.4597,5.4597,5.4135,5.4084,5.4346,5.3356,5.297,0.0,0.0,0.0,3.1094,0.0,0.0,0.0,0.0,3.3838,0.0,0.0,0.0,0.0,0.0,0.0,0.0,0.0,0.0,0.0,3.1919,3.2487,3.4365,3.4138,0.0,0.0,3.1344,3.0323,0.0,3.2342,3.296,3.3264,3.6039,3.7268,3.6482,3.8039,3.8894,3.8894,3.9446,3.9697,3.9697,3.9697,3.9697,3.9697,3.9697,3.9998,4.0524,4.1076,4.1656,4.2263,4.2788,4.3014,4.3065,4.3614,4.4166,4.4765,4.5874,4.6301,4.6301,4.6301,4.6301,4.6577,4.824,4.8385,4.8134,4.9264,4.9615,4.9741,5.0293,5.087,5.1448,5.2,5.2528,5.2895,5.2895,5.2895,5.2895,5.2895,5.2895,5.2895,5.2895,5.2895,5.2895,5.2895,5.2895,5.2895,5.2895,5.2895,5.2895,5.2895,5.2895,5.2895,5.2895,5.2895,5.2895,5.2895,5.2895,5.2895,5.2895,5.3406,5.3683,5.3683,5.427,5.4572,5.4572,5.4597,5.4597,5.4597,5.4572,5.4295,5.3708,5.3146,5.3206,0.0,0.0,3.207,3.0135,0.0,0.0,0.0,0.0,0.0,0.0,0.0,0.0,0.0,0.0,0.0,0.0,0.0,0.0,0.0,0.0,3.1269,3.2623,3.2895,3.2432,0.0,0.0,0.0,0.0,3.3753,0.0,3.4502,3.5956,3.6337,3.5303,3.7236,3.8291,3.8291,3.922,3.9697,3.9697,3.9697,3.9697,3.9697,3.9697,3.9798,4.0023,4.0926,4.1428,4.1681,4.261,4.3014,4.309,4.3991,4.4439,4.469,4.5472,4.5999,4.6301,4.6301,4.6778,4.7456,4.8008,4.8586,4.9088,4.9464,4.959,4.9791,5.072,5.1122,5.1498,5.2402,5.2744,5.2895,5.2895,5.2895,5.2895,5.2895,5.2895,5.2895,5.2895,5.2895,5.2895,5.2895,5.2895,5.2895,5.2895,5.2895,5.2895,5.2895,5.2895,5.2895,5.2895,5.2895,5.2895,5.2895,5.2895,5.2895,5.2895,5.3406,5.3708,5.3708,5.4612,5.515,5.515,5.5465,5.5641,5.5641,5.529,5.5013,5.4787,5.3858,5.3356,2.9387,3.0285,0.0,2.9209,3.0961,0.0,3.107,0.0,0.0,0.0,0.0,0.0,0.0,0.0,0.0,0.0,0.0,0.0,0.0,2.9798,0.0,3.0775,3.1634,3.1762,3.0733,0.0,0.0,0.0,0.0,0.0,0.0,3.5692,3.5687,3.4452,3.6759,3.8015,3.8015,3.912,3.9697,3.9697,3.9697,3.9697,3.9697,3.9697,3.9697,3.9747,4.0826,4.1302,4.1403,4.2534,4.3014,4.3115,4.4192,4.4589,4.469,4.5497,4.5999,4.6326,4.6527,4.6898,4.7431,4.8033,4.856,4.9063,4.9464,4.959,4.9841,5.1004,5.1306,5.1548,5.2594,5.2895,5.2895,5.2895,5.2895,5.2895,5.2895,5.2895,5.2895,5.2895,5.2895,5.2895,5.2895,5.2895,5.2895,5.2895,5.2895,5.2895,5.2895,5.2895,5.2895,5.2895,5.2895,5.2895,5.2895,5.2895,5.2895,5.2895,5.3406,5.3808,5.4009,5.4888,5.5566,5.5968,5.6118,5.6319,5.6458,5.5942,5.5591,5.5365,5.4436,5.3708]},{"header":{"parameterUnit":"m.s-1","parameterCategory":1,"la1":30.6,"la2":29.2853,"lo1":-89.7004,"lo2":-87.6739,"dy":0.0162,"dx":0.0183,"nx":112,"ny":82,"refTime":"2024-03-24T06:00:00:Z","depth":0,"parameterNumber":3,"parameterNumberName":"V-component_of_WINDS"},"data":[0.0,0.0,0.0,0.0,0.0,0.0,0.0,0.0,0.0,0.0,0.0,0.0,0.0,0.0,0.0,0.0,0.0,0.0,0.0,0.0,0.0,0.0,0.0,0.0,0.0,0.0,0.0,0.0,0.0,0.0,0.0,0.0,0.0,0.0,0.0,0.0,0.0,0.0,0.0,0.0,0.0,0.0,0.0,0.0,0.0,0.0,0.0,0.0,0.0,0.0,0.0,0.0,0.0,0.0,0.0,0.0,0.0,0.0,0.0,0.0,0.0,0.0,0.0,0.0,0.0,0.0,0.0,0.0,0.0,0.0,0.0,0.0,0.0,0.0,0.0,0.0,0.0,0.0,0.0,0.0,0.0,0.0,0.0,0.0,0.0,0.0,0.0,0.0,0.0,0.0,2.0385,2.3965,2.8537,3.179,3.2959,3.288,3.1353,2.8021,0.0,0.0,0.0,0.0,0.0,0.0,0.0,0.0,0.0,0.0,0.0,0.0,0.0,0.0,0.0,0.0,0.0,0.0,0.0,0.0,0.0,0.0,0.0,0.0,0.0,0.0,0.0,0.0,0.0,0.0,0.0,0.0,0.0,0.0,0.0,0.0,0.0,0.0,0.0,0.0,0.0,0.0,0.0,0.0,0.0,0.0,0.0,0.0,0.0,0.0,0.0,0.0,0.0,0.0,0.0,0.0,0.0,0.0,0.0,0.0,0.0,0.0,0.0,0.0,0.0,0.0,0.0,0.0,0.0,0.0,0.0,0.0,0.0,0.0,0.0,0.0,0.0,0.0,0.0,0.0,0.0,0.0,0.0,0.0,0.0,0.0,0.0,0.0,0.0,0.0,0.0,0.0,0.0,0.0,0.0,0.0,0.0,0.0,0.0,0.0,0.0,0.0,0.0,0.0,2.3257,2.9242,3.194,3.4025,3.5898,3.3889,3.1479,2.8954,0.0,0.0,0.0,0.0,0.0,0.0,0.0,0.0,0.0,0.0,0.0,0.0,0.0,0.0,0.0,0.0,0.0,0.0,0.0,0.0,0.0,0.0,0.0,0.0,0.0,0.0,0.0,0.0,0.0,0.0,0.0,0.0,0.0,0.0,0.0,0.0,0.0,0.0,0.0,0.0,0.0,0.0,0.0,0.0,0.0,0.0,0.0,0.0,0.0,0.0,0.0,0.0,0.0,0.0,0.0,0.0,0.0,0.0,0.0,0.0,0.0,0.0,0.0,0.0,0.0,0.0,0.0,0.0,0.0,0.0,0.0,0.0,0.0,0.0,0.0,0.0,0.0,0.0,0.0,0.0,0.0,0.0,0.0,0.0,0.0,0.0,0.0,0.0,0.0,0.0,0.0,0.0,0.0,0.0,0.0,0.0,0.0,0.0,0.0,0.0,0.0,0.0,0.0,2.3001,2.6705,3.1675,3.2917,3.4367,3.6823,3.4237,3.1878,3.0443,2.7107,0.0,0.0,0.0,0.0,0.0,0.0,0.0,0.0,0.0,0.0,0.0,0.0,0.0,0.0,0.0,0.0,0.0,0.0,0.0,0.0,0.0,0.0,0.0,0.0,0.0,0.0,0.0,0.0,0.0,0.0,0.0,0.0,0.0,0.0,0.0,0.0,0.0,0.0,0.0,0.0,0.0,0.0,0.0,0.0,0.0,0.0,0.0,0.0,0.0,0.0,0.0,0.0,0.0,0.0,0.0,0.0,0.0,0.0,0.0,0.0,0.0,0.0,0.0,0.0,0.0,0.0,0.0,0.0,0.0,0.0,0.0,0.0,0.0,0.0,0.0,0.0,0.0,0.0,0.0,0.0,0.0,0.0,0.0,0.0,0.0,0.0,0.0,0.0,0.0,0.0,0.0,0.0,0.0,0.0,0.0,0.0,0.0,0.0,0.0,0.0,0.0,0.0,2.7071,3.0118,3.3769,3.4348,3.5352,3.7493,3.4599,3.2251,3.1259,2.6693,0.0,0.0,0.0,0.0,0.0,0.0,0.0,0.0,0.0,0.0,0.0,0.0,0.0,0.0,0.0,0.0,0.0,0.0,0.0,0.0,0.0,0.0,0.0,0.0,0.0,0.0,0.0,0.0,0.0,0.0,0.0,0.0,0.0,0.0,0.0,0.0,0.0,0.0,0.0,0.0,0.0,0.0,0.0,0.0,0.0,0.0,0.0,0.0,0.0,0.0,0.0,0.0,0.0,0.0,0.0,0.0,0.0,0.0,0.0,0.0,0.0,0.0,0.0,0.0,0.0,0.0,0.0,0.0,0.0,0.0,0.0,0.0,0.0,0.0,0.0,0.0,0.0,0.0,0.0,0.0,0.0,0.0,0.0,0.0,0.0,0.0,0.0,0.0,0.0,0.0,0.0,0.0,0.0,0.0,0.0,0.0,0.0,0.0,0.0,0.0,0.0,0.0,2.9893,3.3111,3.6801,3.7954,3.8578,3.8764,3.538,3.2415,3.0412,2.6043,0.0,0.0,0.0,0.0,0.0,0.0,0.0,0.0,0.0,0.0,0.0,0.0,0.0,0.0,0.0,0.0,0.0,0.0,0.0,0.0,0.0,0.0,0.0,0.0,0.0,0.0,0.0,0.0,0.0,0.0,0.0,0.0,0.0,0.0,0.0,0.0,0.0,0.0,0.0,0.0,0.0,0.0,0.0,0.0,0.0,0.0,0.0,0.0,0.0,0.0,0.0,0.0,0.0,0.0,0.0,0.0,0.0,0.0,0.0,0.0,0.0,0.0,0.0,0.0,0.0,0.0,0.0,0.0,0.0,0.0,0.0,0.0,0.0,0.0,0.0,0.0,0.0,0.0,0.0,0.0,0.0,0.0,0.0,0.0,0.0,0.0,0.0,0.0,0.0,0.0,0.0,0.0,0.0,0.0,0.0,0.0,0.0,0.0,0.0,0.0,0.0,0.0,3.1259,3.4527,0.0,3.781,3.813,3.8317,3.576,3.3024,3.0322,0.0,0.0,0.0,0.0,0.0,0.0,0.0,0.0,0.0,0.0,0.0,0.0,0.0,0.0,0.0,0.0,0.0,0.0,0.0,0.0,0.0,0.0,0.0,0.0,0.0,0.0,0.0,0.0,0.0,0.0,0.0,0.0,0.0,0.0,0.0,0.0,0.0,0.0,0.0,0.0,0.0,0.0,0.0,0.0,0.0,0.0,0.0,0.0,0.0,0.0,0.0,0.0,0.0,0.0,0.0,0.0,0.0,0.0,0.0,0.0,0.0,0.0,0.0,0.0,0.0,0.0,0.0,0.0,0.0,0.0,0.0,0.0,0.0,0.0,0.0,0.0,0.0,0.0,0.0,0.0,0.0,0.0,0.0,0.0,0.0,0.0,0.0,0.0,0.0,0.0,0.0,0.0,0.0,0.0,0.0,0.0,0.0,0.0,0.0,0.0,0.0,0.0,2.9196,3.2814,3.5935,0.0,3.8216,3.8095,3.7765,3.5434,3.2852,3.012,0.0,0.0,0.0,0.0,0.0,0.0,0.0,0.0,0.0,0.0,0.0,0.0,0.0,0.0,0.0,0.0,0.0,0.0,0.0,0.0,0.0,0.0,0.0,0.0,0.0,0.0,0.0,0.0,0.0,0.0,0.0,0.0,0.0,0.0,0.0,0.0,0.0,0.0,0.0,0.0,0.0,0.0,0.0,0.0,0.0,0.0,0.0,0.0,0.0,0.0,0.0,0.0,0.0,0.0,0.0,0.0,0.0,0.0,0.0,0.0,0.0,0.0,0.0,0.0,0.0,0.0,0.0,0.0,0.0,0.0,0.0,0.0,0.0,0.0,0.0,0.0,0.0,0.0,0.0,0.0,0.0,0.0,0.0,0.0,0.0,0.0,0.0,0.0,0.0,0.0,0.0,0.0,0.0,0.0,0.0,0.0,0.0,0.0,0.0,0.0,0.0,0.0,3.1394,3.4778,3.7558,3.9493,3.9697,3.8994,3.7336,3.4315,3.1693,0.0,0.0,0.0,0.0,0.0,0.0,0.0,0.0,0.0,0.0,0.0,0.0,0.0,0.0,0.0,0.0,0.0,0.0,0.0,0.0,0.0,0.0,0.0,0.0,0.0,0.0,0.0,0.0,0.0,0.0,0.0,0.0,0.0,0.0,0.0,0.0,0.0,0.0,0.0,0.0,0.0,0.0,0.0,0.0,0.0,0.0,0.0,0.0,0.0,0.0,0.0,0.0,0.0,0.0,0.0,0.0,0.0,0.0,0.0,0.0,0.0,0.0,0.0,0.0,0.0,0.0,0.0,0.0,0.0,0.0,0.0,0.0,0.0,0.0,0.0,0.0,0.0,0.0,0.0,0.0,0.0,0.0,0.0,0.0,0.0,0.0,0.0,0.0,0.0,0.0,0.0,0.0,0.0,0.0,0.0,0.0,0.0,0.0,0.0,0.0,0.0,0.0,0.0,3.2253,3.5573,3.8164,3.9571,3.9371,3.8467,3.6784,3.4711,3.2864,3.139,0.0,0.0,0.0,0.0,0.0,0.0,0.0,0.0,0.0,0.0,0.0,0.0,0.0,0.0,0.0,0.0,0.0,0.0,0.0,0.0,0.0,0.0,0.0,0.0,0.0,0.0,0.0,0.0,0.0,0.0,0.0,0.0,0.0,0.0,0.0,0.0,0.0,0.0,0.0,0.0,0.0,0.0,0.0,0.0,0.0,0.0,0.0,0.0,0.0,0.0,0.0,0.0,0.0,0.0,0.0,0.0,0.0,0.0,0.0,0.0,0.0,0.0,0.0,0.0,0.0,0.0,0.0,0.0,0.0,0.0,0.0,0.0,0.0,0.0,0.0,0.0,0.0,0.0,0.0,0.0,0.0,0.0,0.0,0.0,0.0,0.0,0.0,0.0,0.0,0.0,0.0,0.0,0.0,0.0,0.0,0.0,0.0,0.0,0.0,0.0,0.0,0.0,3.2731,3.5977,3.8341,3.927,3.8894,3.7864,3.6183,3.4525,3.2956,3.1455,0.0,0.0,0.0,0.0,0.0,0.0,0.0,0.0,0.0,0.0,0.0,0.0,0.0,0.0,0.0,0.0,0.0,0.0,0.0,0.0,0.0,0.0,0.0,0.0,0.0,0.0,0.0,0.0,0.0,0.0,0.0,0.0,0.0,0.0,0.0,0.0,0.0,0.0,0.0,0.0,0.0,0.0,0.0,0.0,0.0,0.0,0.0,0.0,0.0,0.0,0.0,0.0,0.0,0.0,0.0,0.0,0.0,0.0,0.0,0.0,0.0,0.0,0.0,0.0,0.0,0.0,0.0,0.0,0.0,0.0,0.0,0.0,0.0,0.0,0.0,0.0,0.0,0.0,0.0,0.0,0.0,0.0,0.0,0.0,0.0,0.0,0.0,0.0,0.0,0.0,0.0,0.0,0.0,0.0,0.0,0.0,0.0,0.0,0.0,0.0,0.0,0.0,3.3118,3.6125,3.8241,3.8843,3.8341,3.7287,3.5558,3.3997,3.2392,3.0687,0.0,0.0,0.0,0.0,0.0,0.0,0.0,0.0,0.0,0.0,0.0,0.0,0.0,0.0,0.0,0.0,0.0,0.0,0.0,0.0,0.0,0.0,0.0,0.0,0.0,0.0,0.0,0.0,0.0,0.0,0.0,0.0,0.0,0.0,0.0,0.0,0.0,0.0,0.0,0.0,0.0,0.0,0.0,0.0,0.0,0.0,0.0,0.0,0.0,0.0,0.0,0.0,0.0,0.0,0.0,0.0,0.0,0.0,0.0,0.0,2.5111,0.0,0.0,0.0,0.0,0.0,0.0,0.0,0.0,0.0,0.0,0.0,0.0,0.0,0.0,0.0,0.0,0.0,0.0,0.0,0.0,0.0,0.0,0.0,0.0,0.0,0.0,0.0,0.0,0.0,0.0,0.0,0.0,0.0,0.0,0.0,0.0,0.0,0.0,0.0,0.0,0.0,3.4271,3.6658,3.8241,3.8843,3.8341,3.7137,3.5054,3.3771,3.2738,3.1874,2.9532,0.0,0.0,0.0,0.0,0.0,0.0,0.0,0.0,0.0,0.0,0.0,0.0,0.0,0.0,0.0,0.0,0.0,0.0,0.0,0.0,0.0,0.0,0.0,0.0,0.0,0.0,0.0,0.0,0.0,0.0,0.0,0.0,0.0,0.0,0.0,0.0,0.0,0.0,0.0,0.0,0.0,0.0,0.0,0.0,0.0,0.0,0.0,0.0,0.0,0.0,0.0,0.0,0.0,0.0,0.0,0.0,0.0,0.0,0.0,0.0,2.8535,0.0,0.0,0.0,0.0,0.0,0.0,0.0,0.0,0.0,0.0,0.0,0.0,0.0,0.0,0.0,0.0,0.0,0.0,0.0,0.0,0.0,0.0,0.0,0.0,0.0,0.0,0.0,0.0,0.0,0.0,0.0,0.0,0.0,0.0,0.0,0.0,0.0,0.0,0.0,0.0,3.4379,3.6452,3.7839,3.8391,3.7939,3.6835,3.4853,3.3721,3.2735,3.1868,3.0375,0.0,0.0,0.0,0.0,0.0,0.0,0.0,0.0,0.0,0.0,0.0,0.0,0.0,0.0,0.0,0.0,0.0,0.0,0.0,0.0,0.0,0.0,0.0,0.0,0.0,0.0,0.0,0.0,0.0,0.0,0.0,0.0,0.0,0.0,0.0,0.0,0.0,0.0,0.0,0.0,0.0,0.0,0.0,0.0,0.0,0.0,0.0,0.0,0.0,0.0,0.0,0.0,0.0,3.897,3.995,4.0052,4.0869,4.0912,4.0158,3.7193,3.4349,3.1712,0.0,0.0,0.0,0.0,0.0,0.0,0.0,0.0,0.0,0.0,0.0,0.0,0.0,0.0,0.0,0.0,0.0,0.0,0.0,0.0,0.0,0.0,0.0,0.0,0.0,3.1098,3.1272,0.0,0.0,0.0,0.0,0.0,0.0,0.0,0.0,0.0,0.0,0.0,0.0,3.4146,3.6063,3.7386,3.7814,3.7462,3.6508,3.4853,3.3796,3.2713,3.1482,3.1302,3.0316,0.0,0.0,0.0,0.0,0.0,0.0,0.0,0.0,0.0,0.0,0.0,0.0,0.0,0.0,0.0,0.0,0.0,0.0,0.0,0.0,0.0,0.0,0.0,0.0,0.0,0.0,0.0,0.0,0.0,0.0,0.0,0.0,2.9916,3.0322,0.0,0.0,0.0,0.0,0.0,0.0,0.0,0.0,0.0,0.0,0.0,0.0,0.0,3.7776,3.9259,4.2158,4.318,4.2392,4.4244,4.4909,4.4578,4.5124,4.5637,4.6026,4.6475,0.0,3.5757,3.2714,0.0,0.0,0.0,0.0,0.0,0.0,0.0,0.0,0.0,0.0,0.0,0.0,0.0,0.0,0.0,0.0,0.0,0.0,0.0,0.0,0.0,0.0,3.1402,3.2881,3.3093,3.2918,0.0,3.0646,2.8772,2.8472,2.7109,0.0,0.0,0.0,0.0,0.0,0.0,0.0,3.4341,3.6111,3.7235,3.7311,3.7261,3.6508,3.4853,3.4148,3.3093,3.1486,3.0954,3.0348,2.9571,2.9902,0.0,0.0,0.0,0.0,0.0,0.0,0.0,0.0,0.0,0.0,0.0,0.0,0.0,0.0,0.0,0.0,0.0,0.0,0.0,0.0,0.0,0.0,0.0,0.0,0.0,0.0,0.0,0.0,0.0,3.2266,3.4189,3.3926,3.4008,3.3356,0.0,0.0,0.0,0.0,0.0,0.0,0.0,0.0,0.0,3.8842,4.2102,4.4231,4.5052,4.6973,4.79,4.7917,4.9816,5.0337,4.9716,5.073,5.1082,5.0843,5.0649,4.8401,4.454,3.9858,3.6569,3.4135,0.0,0.0,0.0,0.0,2.802,2.8953,2.9326,2.9702,0.0,2.9606,0.0,0.0,0.0,0.0,0.0,0.0,0.0,0.0,0.0,0.0,0.0,3.4785,3.4876,3.4849,3.4449,3.3101,3.1707,0.0,2.992,2.9106,2.8455,0.0,0.0,0.0,0.0,3.2846,3.4444,3.5899,3.6859,3.7185,3.6934,3.6205,3.4803,3.4223,3.3169,3.1507,3.0909,3.0357,2.9804,2.9915,2.9296,0.0,0.0,0.0,0.0,0.0,0.0,0.0,0.0,0.0,0.0,0.0,0.0,0.0,0.0,0.0,0.0,0.0,0.0,0.0,0.0,0.0,0.0,0.0,0.0,0.0,0.0,0.0,0.0,3.5892,3.7758,3.7201,3.7238,3.6779,0.0,0.0,0.0,0.0,0.0,0.0,3.8588,4.2402,4.4856,4.5611,4.8477,5.0211,5.0631,5.1785,5.2793,5.3627,5.5271,5.58,5.5339,5.6408,5.6557,5.5878,5.497,5.378,5.2011,4.6271,4.1484,3.7525,3.509,3.4067,3.3733,3.195,3.219,3.3547,3.4361,3.4519,3.4375,3.4436,0.0,3.2099,2.9831,0.0,0.0,0.0,0.0,3.1524,3.3239,3.5331,3.6874,3.6465,3.6584,3.6582,3.573,3.5027,3.4067,0.0,3.2154,3.1805,3.0762,0.0,0.0,0.0,0.0,3.3267,3.4537,3.5703,3.6532,3.6959,3.6507,3.5755,3.4778,3.4223,3.3169,3.1507,3.116,3.0658,2.9829,2.993,2.9553,2.8545,0.0,0.0,0.0,0.0,0.0,0.0,0.0,0.0,0.0,0.0,0.0,0.0,0.0,0.0,0.0,0.0,0.0,0.0,0.0,0.0,0.0,0.0,0.0,0.0,0.0,0.0,0.0,0.0,0.0,3.9169,4.0326,0.0,0.0,0.0,0.0,3.9596,4.2828,4.5349,4.6841,5.0225,5.2318,5.27,5.4694,5.6366,5.7594,5.8907,5.962,5.9653,6.0424,6.1053,6.1624,6.1739,6.171,6.1683,6.1594,5.9402,5.5377,4.9154,4.5007,4.2419,4.0878,3.941,3.809,3.7419,3.7246,3.7221,3.6516,3.5909,3.561,3.666,3.6259,3.5069,3.3921,3.2856,0.0,0.0,3.4607,3.3882,3.692,3.7072,3.6835,3.8366,3.8291,3.7914,3.7864,3.7009,3.5627,0.0,3.3025,3.285,3.2276,0.0,3.2123,3.2202,3.3113,3.4031,3.4628,3.5703,3.6405,3.6455,3.5882,3.533,3.4753,3.4223,3.3169,3.1507,3.1863,3.1436,2.9854,3.0306,3.0292,2.9727,2.9703,0.0,0.0,0.0,0.0,0.0,0.0,0.0,0.0,0.0,0.0,0.0,0.0,0.0,0.0,0.0,0.0,0.0,0.0,0.0,0.0,0.0,0.0,0.0,0.0,0.0,0.0,0.0,0.0,4.4418,4.5925,0.0,4.5389,4.4756,4.4973,4.6321,4.8523,5.0752,5.2966,5.5471,5.7645,5.9488,6.0625,6.1642,6.2512,6.26,6.26,6.26,6.245,6.251,6.2748,6.2748,6.2748,6.272,6.2271,6.1269,5.9717,5.6148,5.1694,4.6916,4.5271,4.3696,4.2268,4.167,4.108,4.052,4.0224,3.9747,3.9019,3.7638,3.6207,3.4908,3.4526,3.4144,3.4228,3.5911,3.5885,3.5807,3.7991,3.8292,3.814,3.8743,3.8743,3.8467,3.809,3.7412,3.6783,3.6332,3.4826,3.3561,3.336,3.3031,3.3139,3.4204,3.4678,3.513,3.5728,3.6457,3.6783,3.6455,3.5857,3.5282,3.4753,3.3897,3.2943,3.1989,3.1461,3.0914,3.0357,3.0181,3.0156,3.0306,2.9975,2.9535,0.0,0.0,0.0,0.0,0.0,0.0,0.0,0.0,0.0,0.0,0.0,0.0,0.0,0.0,0.0,0.0,0.0,0.0,0.0,0.0,0.0,0.0,0.0,0.0,0.0,0.0,4.8149,4.9151,5.0552,5.139,5.1341,5.057,5.0801,5.2544,5.4433,5.6406,5.8408,6.0356,6.2241,6.4006,6.4455,6.4904,6.5323,6.4904,6.4575,6.4336,6.3707,6.3378,6.3407,6.3197,6.3108,6.3078,6.2629,6.2301,6.2002,6.0655,5.7313,5.2757,5.0226,4.7897,4.5873,4.5475,4.4474,4.3299,4.319,4.2765,4.1922,3.9724,3.7824,3.6334,3.6182,3.5958,3.6008,3.696,3.7236,3.7538,3.8843,3.917,3.917,3.917,3.917,3.9019,3.8417,3.8015,3.7838,3.7965,3.6383,3.5303,3.6257,3.5956,3.6332,3.8542,3.8718,3.8843,3.9647,3.9044,3.8442,3.809,3.6359,3.5104,3.4728,3.3956,3.3115,3.2248,3.1771,3.1307,3.0889,3.0468,3.0422,3.0749,3.0865,3.0589,2.993,0.0,0.0,0.0,0.0,0.0,0.0,0.0,0.0,0.0,0.0,0.0,0.0,0.0,0.0,0.0,0.0,0.0,0.0,0.0,0.0,0.0,0.0,0.0,4.3781,4.7066,5.0504,5.3014,5.4035,5.4521,5.4551,5.4581,5.5602,5.8145,6.0775,6.254,6.3227,6.5024,6.6071,6.6101,6.6101,6.6101,6.6071,6.6071,6.5742,6.5024,6.4366,6.4036,6.3977,6.3407,6.3138,6.3108,6.3108,6.272,6.2121,6.2121,6.1313,5.9767,5.5798,5.2071,4.8928,4.8902,4.7519,4.5627,4.5269,4.4732,4.4071,4.3062,4.1413,3.9724,3.9247,3.8667,3.829,3.8894,3.902,3.9095,3.9622,3.9747,3.9722,3.9722,3.9697,3.9546,3.9044,3.8894,3.8743,3.8165,3.7613,3.809,4.075,4.0775,4.153,4.4794,4.4794,0.0,4.5949,4.3209,4.12,4.1275,3.7363,3.4753,3.4828,3.4419,3.3619,3.2302,3.2879,3.2692,3.1466,3.1199,3.1086,3.1062,3.2369,3.1949,2.9759,0.0,0.0,0.0,0.0,0.0,0.0,0.0,0.0,0.0,0.0,0.0,0.0,0.0,0.0,0.0,0.0,0.0,0.0,0.0,0.0,0.0,4.5118,4.8103,4.7729,5.2614,5.6674,5.8026,6.0036,6.1493,6.1973,6.2452,6.3049,6.3768,6.4964,6.5922,6.661,6.7179,6.7657,6.8166,6.8166,6.7926,6.7449,6.7449,6.6879,6.5712,6.5533,6.4934,6.3977,6.3827,6.3498,6.3108,6.3108,6.3018,6.2808,6.2301,6.1882,6.1285,5.8719,5.6163,5.3867,5.3387,5.1599,4.9245,4.8192,4.6544,4.497,4.5204,4.3972,4.255,4.3427,4.2866,4.1927,4.2135,4.1413,4.0675,4.0826,4.0575,4.03,4.03,3.9973,3.9647,3.9522,3.917,3.8969,3.9195,3.8818,3.8542,3.8868,3.8768,3.9145,4.0527,4.0577,0.0,4.0904,3.9747,3.9521,4.1152,3.7689,3.5958,3.7588,3.5071,3.3255,3.2867,3.2279,3.1763,3.1411,3.0982,3.0537,3.0159,3.0986,3.0678,0.0,0.0,0.0,0.0,0.0,0.0,0.0,0.0,0.0,0.0,0.0,0.0,0.0,0.0,0.0,0.0,0.0,0.0,0.0,0.0,0.0,0.0,5.022,5.3904,5.4938,5.8029,6.0785,6.2391,6.4395,6.5832,6.6221,6.7089,6.7626,6.7626,6.8525,6.8974,6.8856,6.9365,6.9574,6.9423,6.9662,6.9482,6.8856,6.8856,6.8286,6.7268,6.67,6.6011,6.5233,6.4695,6.4066,0.0,6.3468,6.3347,6.3078,6.2689,6.2331,0.0,0.0,0.0,0.0,0.0,5.316,5.1925,5.0632,4.9092,4.7733,4.8173,4.7005,4.5615,4.6434,4.5936,4.4954,4.4333,4.3388,4.2463,4.1843,4.1252,4.0826,4.0826,4.0424,4.0049,4.0049,4.0033,4.0106,4.0439,4.0659,0.0,4.035,4.0184,4.0676,4.2436,4.2512,4.2409,4.2635,4.1153,4.0501,4.1555,3.8216,3.6232,3.7061,3.5155,0.0,0.0,0.0,3.2009,3.1628,3.1533,0.0,0.0,0.0,3.1634,2.9997,0.0,0.0,0.0,2.8755,2.8646,0.0,0.0,0.0,0.0,0.0,0.0,0.0,0.0,0.0,0.0,0.0,0.0,0.0,0.0,0.0,0.0,5.6084,6.0743,6.3409,6.3378,6.3887,6.6071,6.7567,6.8437,6.8437,6.9542,7.0228,7.0228,7.1338,7.1517,7.0412,0.0,0.0,0.0,0.0,7.0799,7.0081,7.0203,6.9782,6.9004,6.7867,6.7208,6.6939,6.5772,6.4755,6.4006,6.4006,6.3647,6.3108,6.3108,6.2718,6.1972,6.0625,5.9221,5.7599,5.4346,5.3638,5.4104,5.2827,0.0,0.0,5.132,5.0098,4.864,4.8796,4.8378,4.7519,4.6245,4.5368,4.4467,4.3019,4.2153,4.1645,4.1645,4.1109,4.0655,4.0894,4.1335,4.1695,4.1815,4.2792,4.3586,4.3504,4.3126,4.3843,4.6824,4.6693,4.6421,4.6928,4.4367,4.2436,4.2238,0.0,0.0,3.533,3.5152,3.4568,3.3373,3.3287,3.2906,3.2047,3.2386,3.2348,3.1856,3.3529,3.3498,3.1597,3.3799,3.4003,3.2273,3.1077,3.1329,0.0,0.0,0.0,0.0,0.0,0.0,0.0,0.0,0.0,0.0,0.0,0.0,0.0,0.0,0.0,5.5962,6.0023,6.365,6.7358,6.8645,6.9004,6.8495,7.0021,7.1161,7.1161,7.1846,7.2292,7.2292,7.2565,7.2624,7.2355,7.2565,7.2595,7.2355,7.2475,7.1936,7.0739,7.1248,7.0679,6.9004,0.0,0.0,6.6969,6.6729,6.5652,6.4006,6.4006,6.3647,6.3108,6.3108,6.2718,6.1972,6.0625,5.9891,5.9407,5.7653,5.7116,5.703,5.5214,5.3752,5.2732,5.2782,5.1787,5.0784,5.1899,5.1383,0.0,5.0047,4.8716,4.7045,4.563,4.4463,4.365,4.365,4.2361,4.1638,4.3345,4.2958,4.242,4.3012,4.377,4.4132,4.3586,4.2579,4.2083,4.2736,4.1871,4.1178,4.1279,4.0351,4.0326,4.2037,3.9095,3.7512,3.8642,3.6692,3.5121,3.4427,3.3592,3.3077,3.2874,3.208,3.1601,3.1512,3.2283,3.2471,3.207,3.3018,3.3276,3.2918,3.2649,3.2729,0.0,0.0,0.0,0.0,0.0,0.0,0.0,0.0,0.0,0.0,0.0,4.3708,4.8429,0.0,5.6802,6.1063,6.4725,6.7687,6.9662,7.1368,7.1906,7.059,7.1876,7.2774,7.2445,7.3313,7.3762,7.3432,7.3702,7.3762,7.3432,7.3702,7.3582,7.2924,7.3223,7.2924,7.1906,7.1906,7.1398,7.044,7.0141,6.9273,6.7986,6.7627,6.64,6.4515,6.4515,6.3977,6.3108,6.3108,6.2898,6.248,6.1493,6.0685,5.9994,5.8979,5.8384,5.7905,5.6615,5.5486,5.4687,5.4704,5.3975,5.3276,5.3988,5.3708,5.3022,5.2272,5.1109,4.9679,4.7918,4.6811,4.608,4.5731,4.47,4.4089,4.5156,4.5152,4.5018,4.5382,4.6219,4.6807,4.6466,4.5072,4.3478,4.1842,4.1044,4.0415,3.98,3.9472,3.9622,4.0451,3.8793,3.7713,3.8014,3.6257,3.5004,3.4728,3.3947,3.3517,3.3517,3.2713,3.2261,3.2261,3.2491,3.2641,3.2641,3.2964,3.309,3.3115,3.3391,3.3517,0.0,0.0,0.0,0.0,0.0,0.0,0.0,3.8549,4.0821,4.4086,4.6955,5.0514,5.5678,5.9946,6.3408,6.5592,6.8854,7.1188,7.1457,7.2864,7.3552,7.2628,7.3432,7.3881,7.3343,7.424,7.4693,7.4121,7.4569,7.4663,7.4121,7.4634,7.439,7.3343,7.3821,7.3762,7.3103,7.2415,7.2026,7.1876,7.0709,6.9812,6.9183,6.8526,6.7089,6.5174,6.4785,6.4126,6.3287,6.3168,6.3108,6.3048,6.2509,6.1553,6.0386,5.9578,5.8949,5.8354,5.7573,5.6974,5.6551,5.6432,5.5923,5.5388,5.5388,5.5299,5.4951,5.3782,5.2972,5.205,5.0018,4.9088,4.8557,4.8003,4.7239,4.6767,4.7157,4.7413,4.7599,4.7742,4.8699,4.9426,4.9307,4.8096,4.6005,4.267,4.1923,4.125,3.9877,3.9798,3.9597,3.8969,3.8341,3.7563,3.6505,3.5554,3.5052,3.5052,3.4525,3.4223,3.4223,3.3696,3.3366,3.3266,3.3266,3.3215,3.309,3.3215,3.3266,3.3266,3.3796,3.3997,4.1113,3.8652,3.7711,3.8789,3.895,3.9945,0.0,4.5293,4.6396,4.9631,5.2449,5.5402,5.8952,6.2392,6.5682,6.8823,7.0709,7.2176,7.3402,7.3762,7.4061,7.4514,7.4723,7.4783,7.4659,7.4813,7.4873,7.4813,7.4873,7.4873,7.4813,7.4873,7.4843,7.4693,7.4753,7.4484,7.3791,7.3133,7.2505,7.1876,7.1158,7.047,6.9873,6.9183,6.7807,6.5802,6.4066,6.3528,6.3857,6.3347,6.3108,6.3108,6.3018,6.251,6.1702,6.0446,5.9937,5.9697,5.8441,5.7935,5.7786,5.7184,5.6611,5.6102,5.6102,5.5683,5.5154,5.5002,5.4474,5.3633,5.213,5.1279,5.0765,5.0679,4.9244,4.8394,5.0268,4.9307,4.8286,4.8958,4.9642,4.992,4.9396,4.9559,4.8512,4.4736,4.3105,4.1668,3.9928,4.0124,4.0023,3.9019,3.8341,3.7563,3.6505,3.6281,3.6205,3.6205,3.5631,3.5307,3.5307,3.4803,3.4276,3.3822,3.3796,3.3571,3.309,3.3571,3.3796,3.3822,3.4352,3.4374,4.0768,4.0203,4.0895,4.1226,4.2831,4.5399,4.9485,5.1698,5.3667,5.6488,5.9548,6.2442,6.4841,6.7328,6.9602,0.0,7.2774,7.3735,7.3881,7.3881,7.3702,7.3193,7.3133,7.3616,7.4813,7.4903,7.4903,7.4903,7.4903,7.4903,7.4903,7.4903,7.4903,7.4903,7.4903,7.4783,7.448,7.3432,7.2774,7.2475,7.1398,7.059,6.9993,6.9692,6.8465,6.646,6.4485,6.3767,6.3947,6.3347,6.3108,6.3108,6.3108,6.2928,6.2569,6.1613,6.1014,6.0565,5.9608,5.9009,5.859,5.7902,5.7244,5.6671,5.6312,5.6013,5.5713,5.5299,5.4999,5.4545,5.3571,5.3124,5.28,5.2417,5.1695,5.1216,5.1679,5.1125,5.0496,5.0418,5.0631,5.0697,5.0451,5.0278,4.9402,4.7061,4.5585,4.3916,4.1666,4.1258,4.0567,3.9045,3.8668,3.809,3.6959,3.6859,3.6733,3.643,3.5832,3.5508,3.5508,3.4981,3.4603,3.4352,3.4374,3.4274,3.4022,3.4274,3.4374,3.4377,3.4929,3.5054,4.1463,4.2535,4.4469,4.4708,4.7716,5.1577,5.5323,5.8346,6.1116,6.3846,6.669,6.9046,7.0278,7.1749,7.2885,7.314,7.4151,7.4693,7.4001,7.3582,7.2864,7.1517,7.1071,7.149,7.3137,7.3945,7.448,7.4873,7.4903,7.4903,7.4903,7.4723,7.4723,7.4903,7.4723,7.4723,7.4903,7.3762,7.3103,7.2894,7.1727,7.0859,7.0201,6.9694,6.8525,6.6879,6.4874,6.4006,6.3947,6.3347,6.3108,6.3108,6.3108,6.3108,6.3048,6.254,6.1942,6.1253,6.0386,5.9787,5.9279,5.8593,5.7932,5.7304,5.6855,5.6611,5.6312,5.5683,5.5504,5.5299,5.464,5.4491,5.4341,5.3887,5.3593,5.3324,5.2845,5.2606,5.2336,5.1858,5.1768,5.1708,5.1505,5.1056,5.0388,4.9278,4.8144,4.6409,4.3487,4.2208,4.0911,3.9095,3.8894,3.8492,3.7487,3.7311,3.7034,3.6632,3.6081,3.5757,3.5757,3.5378,3.5079,3.4929,3.4929,3.4853,3.4703,3.4853,3.4929,3.4929,3.5481,3.5757,4.4836,4.6394,4.838,5.0279,5.3946,5.8184,6.2256,6.5367,6.8312,7.1686,7.3471,7.4406,7.4282,7.4686,7.4823,7.4001,7.442,7.4693,7.4001,7.2774,7.149,7.0233,6.8916,6.8407,0.0,7.1487,7.3492,7.4813,7.4903,7.4903,7.4903,7.427,7.421,7.4903,7.427,7.424,7.4903,7.421,7.3552,7.2894,7.2206,7.1517,7.0799,6.8945,6.7688,6.6879,6.4874,6.4006,6.3947,6.3347,6.3108,6.3108,6.3108,6.3108,6.3108,6.3078,6.2659,6.1882,6.0535,6.0114,5.9937,5.9279,5.862,5.8055,5.8055,5.7603,5.6971,5.6342,5.6162,5.6013,5.5354,5.5149,5.5149,5.5119,5.464,5.4162,5.4162,5.3623,5.3169,5.3139,5.3139,5.2905,5.2276,5.2157,5.1894,5.1218,5.0531,4.8723,4.494,4.2775,4.0911,3.9095,3.8894,3.8642,3.804,3.7487,3.721,3.7185,3.6658,3.638,3.638,3.6355,3.6056,3.5483,3.5483,3.5207,3.4703,3.5207,3.5483,3.5483,3.6081,3.638,4.7117,4.9926,5.3755,5.713,6.0761,6.4809,6.9919,7.2536,7.4032,7.46,7.4469,7.3667,7.153,6.9817,6.9824,7.3259,7.2577,7.2543,7.5144,7.3806,7.1427,6.8375,6.8017,0.0,0.0,0.0,0.0,7.3402,7.3582,7.3941,7.4873,7.4693,7.4693,7.4903,7.4693,7.4693,7.4903,7.3791,7.3133,7.2894,7.1787,7.1128,7.0859,6.9333,6.8525,6.8196,6.5742,6.4665,6.4575,6.3528,6.3108,6.3108,6.3108,6.3108,6.3108,6.3108,6.2958,6.2659,6.1732,6.1134,6.0655,5.9967,5.9308,5.868,5.8234,5.7935,5.7633,5.6974,5.6821,5.6761,5.6526,5.6137,5.5863,5.5863,5.5329,5.473,5.4311,5.4012,5.3713,5.3288,5.3198,5.2989,5.2306,5.2187,5.1977,5.1295,4.9592,4.7407,4.4812,4.28,4.1041,3.9574,3.9446,3.922,3.8642,3.8441,3.8165,3.7764,3.7235,3.6934,3.6934,3.6582,3.6306,3.6081,3.6081,3.6029,3.5828,3.6029,3.6081,3.6081,3.6306,3.6405,5.1193,5.5399,6.0601,6.4254,6.7945,7.1754,7.5854,7.7281,7.7426,7.6246,7.4773,7.2617,6.9186,6.7311,6.7284,7.0491,7.0124,7.0503,7.3615,7.1962,6.9602,6.7268,6.6729,6.6161,0.0,0.0,0.0,7.1966,7.2654,7.3373,7.448,7.4544,7.4663,7.4903,7.4693,7.4544,7.4544,7.3702,7.3013,7.2535,7.1427,7.0889,7.0859,6.9572,6.8854,6.8495,6.6041,6.4845,6.4545,6.3528,6.3108,6.3108,6.3108,6.3108,6.3108,6.3108,6.3108,6.3018,6.2331,6.1822,6.1313,6.0386,5.9787,5.9338,5.8653,5.8444,5.8324,5.7663,5.7453,5.7393,5.7154,5.6821,5.6521,5.6521,5.6042,5.5444,5.4999,5.473,5.4431,5.4007,5.3917,5.3683,5.3025,5.2516,5.2067,5.1594,4.9763,4.7518,4.5167,4.3563,4.1878,3.9903,3.9697,3.9546,3.922,3.9019,3.8743,3.8341,3.7789,3.7487,3.7487,3.716,3.6884,3.6683,3.6683,3.6582,3.6405,3.6405,3.6405,3.6405,3.6405,3.6405,5.7066,6.2667,6.8553,7.1485,7.5234,7.8542,7.9904,7.955,7.843,7.6614,7.4163,7.1102,6.7237,6.6894,6.7004,6.6371,6.7395,6.8779,7.025,6.8111,6.658,6.7089,0.0,0.0,0.0,0.0,0.0,7.062,0.0,7.3103,7.3911,7.3941,7.424,7.4903,7.424,7.3881,7.3881,7.3821,7.3133,7.1816,7.1188,7.0889,7.0859,6.9572,6.8615,6.7898,6.5892,6.4605,6.3947,6.3347,6.3108,6.3108,6.3108,6.3108,6.3108,6.3108,6.3108,6.3018,6.2361,6.2121,6.1882,6.0565,6.0116,5.9967,5.9308,5.9099,5.8979,5.8324,5.8145,5.7995,5.7363,5.7184,5.7154,5.7154,5.6701,5.6252,5.6252,5.5743,5.5239,5.5239,5.5179,5.494,5.4311,5.3114,5.2247,5.2217,5.1116,4.9169,4.6052,4.4972,4.3318,4.0185,3.9749,3.9697,3.9697,3.9245,3.8944,3.8944,3.8366,3.804,3.804,3.8015,3.7764,3.7261,3.7261,3.6984,3.6455,3.6455,3.6455,3.6455,3.6455,3.6455,6.3829,6.8535,7.3185,7.7103,7.9255,8.0412,8.0242,7.8521,7.5887,7.214,6.8216,6.4602,6.196,6.0362,6.1739,6.8798,6.8056,6.8941,7.5643,7.3864,7.1218,6.9454,6.9183,6.8645,6.7389,6.7687,0.0,0.0,7.0799,7.1876,7.4514,7.4663,7.4723,7.4903,7.424,7.3881,7.3881,7.2894,7.1996,7.1158,7.0979,7.0889,7.0859,6.9572,6.8615,6.7898,6.5892,6.4605,6.3947,6.3347,6.3108,6.3108,6.3108,6.3108,6.3108,6.3108,6.3108,6.3078,6.2898,6.2539,6.1972,6.1134,6.0505,5.9967,5.9308,5.9099,5.9069,5.889,5.886,5.883,5.865,5.8231,5.7846,5.7846,5.7363,5.6855,5.6855,5.6372,5.5953,5.5953,5.5119,5.4401,5.4251,5.3503,5.2779,5.2276,5.1917,5.0686,4.7956,4.5781,4.3797,4.205,4.0568,3.9697,3.9697,3.9572,3.9496,3.9496,3.8994,3.8668,3.8668,3.8241,3.7939,3.7789,3.7789,3.7538,3.7009,3.7009,3.7009,3.7009,3.7009,3.721,6.9751,7.3707,7.7463,8.08,8.1224,8.0336,7.859,7.5898,7.2274,6.7044,6.3464,6.0116,5.636,5.7119,5.9941,6.488,6.6253,6.883,7.5068,7.3529,7.1517,7.0889,7.0859,7.047,6.9363,6.9602,7.038,0.0,7.1188,7.1909,7.43,7.445,7.445,7.445,7.3821,7.3313,7.3013,7.1966,7.1278,7.0889,7.0889,7.0769,7.047,6.9453,6.8465,6.7479,0.0,6.4605,6.3947,6.3347,6.3108,6.3108,6.3108,6.3108,6.3108,6.3108,6.2928,6.266,6.266,6.2211,6.1613,6.1196,6.0655,5.9967,5.9308,5.9099,5.9099,5.9099,5.9099,5.9099,5.9099,5.883,5.8534,5.8534,5.7812,5.7094,5.7094,5.6641,5.6192,5.6192,5.5329,5.464,5.464,5.4072,5.3503,5.3144,5.2576,5.1679,5.021,4.7525,4.4959,4.2841,4.1357,4.0313,3.9749,3.9697,3.9697,3.9697,3.9421,3.9245,3.9245,3.8919,3.8642,3.8391,3.8391,3.8115,3.7538,3.7538,3.7538,3.7538,3.7538,3.7713,7.5013,7.8244,8.1088,8.2915,8.1629,7.9052,7.5681,7.21,6.7751,6.1758,5.9347,5.6682,5.1333,5.5531,5.96,5.9121,6.356,6.846,7.23,7.0977,7.032,7.2086,7.1787,7.1427,7.1427,7.1338,7.1816,7.3073,7.2535,7.2714,7.3971,7.3941,7.3821,7.3642,7.3073,7.2445,7.1757,7.1188,7.0889,7.0889,7.0889,7.059,6.9993,6.9303,6.8226,6.6789,6.5532,0.0,6.3827,6.3317,6.3108,6.3108,6.3108,6.3108,6.3108,6.3108,6.2689,6.2091,6.2091,6.1613,6.0984,6.0984,6.0565,5.9967,5.9308,5.9099,5.9099,5.9099,5.9099,5.9099,5.9099,5.9099,5.9099,5.9099,5.8201,5.7363,5.7363,5.6821,5.6312,5.6312,5.5713,5.5209,5.5324,5.479,5.4311,5.4221,5.3204,5.2426,5.2336,4.936,4.6168,4.3383,4.2119,4.0998,3.9901,3.9747,3.9697,3.9697,3.9697,3.9697,3.9697,3.9697,3.9471,3.9019,3.8994,3.8718,3.8115,3.8115,3.8115,3.8115,3.8115,3.8165,7.9382,8.1534,8.2881,8.2644,8.0479,7.7119,7.2381,6.7203,6.209,5.7451,5.4942,5.2686,4.972,5.2651,5.6868,6.1125,6.3659,6.7547,7.4591,7.4137,7.3373,7.4274,7.4304,7.4214,7.4214,7.3702,0.0,0.0,7.3911,7.3881,7.4659,7.418,7.3373,7.2265,7.2116,7.1757,7.1068,7.0949,7.0889,7.0889,7.0889,7.059,6.9993,6.9303,6.7986,6.6131,6.5323,0.0,6.3257,6.3138,6.3108,6.3108,6.3108,6.3108,6.3108,6.3108,6.2689,6.2091,6.2091,6.1283,6.0266,6.0266,6.0176,5.9967,5.9308,5.9099,5.9099,5.9099,5.9099,5.9099,5.9099,5.9099,5.9099,5.9099,5.8919,5.877,5.877,5.7782,5.6944,5.6944,5.5987,5.5384,5.5923,5.5448,5.485,5.4281,5.4012,5.3653,5.3109,4.9194,4.6292,4.5731,4.2681,4.0585,4.0375,3.9948,3.9697,3.9697,3.9697,3.9697,3.9697,3.9697,3.9647,3.9546,3.9546,3.927,3.8743,3.8743,3.8743,3.8743,3.8743,3.8994,7.8799,8.1394,8.3727,8.2205,7.872,7.4117,6.821,6.3066,5.8318,5.3937,5.2708,5.1522,4.867,5.2163,5.6125,5.8113,6.0201,6.4368,7.2366,7.209,7.2039,7.4586,7.5628,7.5829,7.4971,7.4634,7.4574,7.4903,7.4604,7.439,7.436,7.3402,7.2385,7.1398,7.1368,7.1218,7.0889,7.0889,7.0889,7.0889,7.059,7.0081,6.9453,6.8764,6.7388,6.5443,6.5144,0.0,6.3108,6.3108,6.3108,6.3108,6.3108,6.3108,6.3108,6.3108,6.2689,6.2091,6.2091,6.1463,6.0565,6.0206,5.9847,5.9518,5.9189,5.9099,5.9099,5.9099,5.9099,5.9099,5.9099,5.9099,5.9099,5.9099,5.883,5.859,5.859,5.7812,5.7184,5.7573,5.6855,5.6166,5.6192,5.5923,5.5504,5.482,5.4431,5.4102,5.3773,5.0179,4.7448,4.689,4.3855,4.1642,4.0954,4.0424,4.0124,4.0124,3.9848,3.9697,3.9697,3.9697,3.9697,3.9697,3.9697,3.9572,3.9321,3.9321,3.9321,3.9321,3.9321,3.9446,7.8332,8.1144,8.3828,8.1426,7.6521,7.0667,6.4379,5.946,5.5045,5.1166,5.1133,5.0915,4.7946,5.1826,5.5207,5.4531,5.6892,6.1477,6.9117,6.9324,7.022,7.42,7.5942,7.6302,7.504,7.4903,0.0,7.4903,7.4599,7.424,7.3702,7.2535,7.1577,7.0919,7.0889,7.0889,7.0889,7.0889,7.0889,7.0889,7.029,6.9632,6.8974,6.8317,6.6879,6.4994,6.4994,0.0,0.0,6.3108,6.3108,6.3108,6.3108,6.3108,6.3108,6.3108,6.2689,6.2091,6.2091,6.1672,6.1014,6.0475,5.9967,5.9488,5.9189,5.9189,5.9279,5.9129,5.9099,5.9099,5.9099,5.9099,5.9099,5.9099,5.871,5.8294,5.8294,5.7812,5.7513,5.8175,5.7663,5.7004,5.6671,5.6372,5.6013,5.5504,5.485,5.4431,5.4431,5.1327,4.8749,4.7776,4.4992,4.2731,4.1611,4.0976,4.0625,4.0499,4.0224,3.9948,3.9697,3.9798,3.9823,3.9697,3.9697,3.9697,3.9697,3.9697,3.9697,3.9697,3.9697,3.9697,8.1731,8.3235,8.2915,8.004,7.3815,6.7127,6.2112,5.637,5.1506,4.9426,4.9492,4.9378,4.7472,4.9838,5.236,5.3359,5.648,6.0904,6.7052,6.8756,7.0552,7.3642,7.465,7.5044,7.4903,7.4903,7.4903,7.4903,7.3762,7.3073,7.3013,7.2295,7.1577,7.0919,7.0889,7.0889,7.0889,7.0889,7.0889,7.0889,7.029,6.9632,6.8974,6.8317,6.6879,6.4994,6.4994,0.0,0.0,6.3108,6.3108,6.3108,6.3108,6.3108,6.3108,6.3108,6.2689,6.2091,6.2091,6.1672,6.1076,6.1016,6.0984,6.0715,5.9488,5.9518,5.9877,5.9279,5.9099,5.9099,5.9099,5.9099,5.9099,5.9099,5.9069,5.9009,5.9009,5.8474,5.8205,5.889,5.7992,5.7274,5.7816,5.6974,5.6162,5.6102,5.5564,5.5089,5.5089,5.2012,4.9578,4.8995,4.5385,4.2776,4.2187,4.158,4.1026,4.0524,4.0901,4.0725,3.9747,4.0174,4.0199,3.9697,3.9697,3.9697,3.9697,3.9697,3.9697,3.9697,3.9697,3.9697,7.5485,7.9771,8.3253,7.9397,7.28,6.5978,6.1089,5.4624,4.9377,4.8383,4.8668,4.888,4.8195,4.9369,5.0925,5.2323,5.257,5.4451,5.9676,6.1195,6.3584,6.8529,7.0943,7.2896,7.4736,7.4903,7.4903,7.4903,7.4031,7.3343,7.2924,7.1876,7.1188,7.0919,7.0889,7.0889,7.0889,7.0889,7.0709,7.035,6.9692,6.9034,6.8345,6.7268,6.6131,6.4964,6.4545,0.0,0.0,6.3108,6.3108,6.3108,6.3108,6.3108,6.3108,6.3108,6.2928,6.2718,6.2718,6.251,6.2241,6.1822,6.1702,6.1463,6.0116,5.9877,6.0027,5.9757,5.9697,5.9697,5.9697,5.9398,5.9099,5.9099,5.9099,5.9099,5.9099,5.889,5.88,5.9069,5.868,5.8261,5.8115,5.7693,5.7214,5.6795,5.6222,5.5803,5.5803,5.2615,5.0187,4.9633,4.5903,4.3237,4.2738,4.2185,4.1731,4.1557,4.1378,4.1127,4.0675,4.0876,4.0725,4.0199,4.0199,4.0023,3.9697,3.9697,3.9697,3.9697,3.9697,3.9697,7.0935,7.6137,8.0457,7.7505,7.1115,6.4295,5.9444,5.3044,4.8029,4.7512,4.7896,4.8364,4.8466,4.9015,4.9948,5.1345,5.0667,5.1547,5.6073,5.7264,5.9885,6.583,6.8412,7.0892,7.3854,7.4608,7.4903,7.4903,7.427,7.3612,7.2954,7.1816,7.1098,7.0919,7.0889,7.0889,7.0889,7.0709,7.041,6.9993,6.9123,6.8345,6.7688,6.652,6.5533,6.4665,6.4216,0.0,0.0,6.3108,6.3108,6.3108,6.3108,6.3108,6.3108,6.3108,6.3108,6.3108,6.3108,6.3108,6.3018,6.254,6.2121,6.1642,6.0685,6.0236,6.0116,6.0326,6.0236,6.0054,5.9874,5.9458,5.9099,5.9099,5.9099,5.9099,5.9099,5.9099,5.9099,5.9099,5.9099,5.8949,5.8474,5.8234,5.7935,5.7483,5.6881,5.6462,5.6462,5.365,5.1263,5.0296,4.7029,4.4478,4.3344,4.2889,4.2537,4.2238,4.1957,4.1654,4.13,4.1478,4.1302,4.075,4.0725,4.0549,4.0174,4.0174,4.0174,4.0174,4.0174,4.0174,7.0738,7.3408,7.3235,7.3714,6.8239,6.1457,5.6638,5.1436,4.7396,4.6662,4.6996,4.7559,4.7925,4.8505,4.9284,5.044,5.222,5.4764,5.8519,5.9698,6.2076,6.7272,6.795,6.9175,7.2163,7.3934,7.4903,7.4903,7.427,0.0,7.2954,7.2265,7.1577,7.0919,7.0889,7.0889,7.0889,7.029,7.0023,6.9961,6.8646,6.7658,6.6969,6.6311,6.5263,6.4006,0.0,0.0,0.0,6.3108,6.3108,6.3108,6.3108,6.3108,6.3108,6.3108,6.3108,6.3108,6.3108,6.3108,6.3108,6.3108,6.2181,6.1106,6.1076,6.0625,6.0236,6.0894,6.0625,5.9937,5.9279,5.9099,5.9099,5.9099,5.9099,5.9099,5.9099,5.9099,5.9099,5.9099,5.9099,5.9099,5.9099,5.8534,5.8085,5.8085,5.7513,5.7094,5.7094,5.5201,5.3112,5.1099,4.8968,4.6619,4.4008,4.379,4.3341,4.2288,4.2688,4.2484,4.1352,4.1884,4.1909,4.1302,4.1275,4.1275,4.1275,4.1275,4.1275,4.1275,4.1275,4.1275,6.1602,6.5267,6.7378,6.5837,6.1041,5.5888,5.2823,4.8261,4.4642,4.4523,4.536,4.6143,4.6275,4.7372,4.8792,5.0403,5.1926,5.3169,5.4001,5.7562,6.1024,6.363,7.0097,7.427,7.4095,7.5568,7.6099,7.4971,7.4723,7.4091,7.2984,7.2714,7.2086,7.0949,7.0889,7.0709,7.029,7.0113,6.9544,6.8616,6.7748,6.6969,6.6281,6.5144,6.4395,0.0,0.0,0.0,0.0,6.3108,6.3108,6.3108,6.3108,6.3108,6.3108,6.3108,6.3108,6.3108,6.3108,6.3108,6.3108,6.3108,6.2181,6.1194,6.1642,6.0984,6.0116,6.0356,6.0266,5.9937,5.9279,5.9099,5.9099,5.9099,5.9099,5.9099,5.9099,5.9099,5.9099,5.9099,5.9099,5.9099,5.9099,5.8919,5.8773,5.8773,5.8231,5.7786,5.7786,5.552,5.3662,5.3029,5.1044,4.8277,4.4645,4.4367,4.4217,4.3865,4.3664,4.3388,4.3009,4.2836,4.2487,4.1934,4.1934,4.1706,4.1302,4.1302,4.1785,4.2736,4.2736,4.2736,5.4797,5.8105,6.0163,5.9388,5.5928,5.2095,4.9652,4.6081,4.3386,4.3661,4.4542,4.5306,4.5423,4.7021,4.8634,4.9682,5.1404,5.2738,5.3035,5.6378,6.0175,6.3904,7.1463,7.6043,7.5305,7.596,7.5966,7.4971,7.4693,7.4031,7.2984,7.2654,7.1906,7.059,7.056,7.026,6.9602,6.9093,6.8466,6.7628,6.67,6.5892,6.5233,6.4366,6.3887,0.0,0.0,0.0,0.0,6.3108,6.3108,6.3108,6.3108,6.3108,6.3108,6.3108,6.3108,6.3108,6.3108,6.3108,6.3108,6.3108,6.2181,6.1104,6.0984,6.0745,6.0356,5.9847,5.9877,5.9997,5.9578,5.9279,5.9159,5.9428,5.9279,5.9099,5.9099,5.9099,5.9099,5.9099,5.9099,5.9099,5.9099,5.9099,5.9099,5.9099,5.8743,5.8474,5.8474,5.674,5.5167,5.4367,5.3096,5.0823,4.7217,4.673,4.6266,4.5514,4.5152,4.4718,4.4145,4.379,4.3338,4.2813,4.3341,4.3308,4.2691,4.3227,4.394,4.4796,4.4796,4.4796,0.0,5.1554,5.1842,5.3786,5.2169,4.9434,4.6812,4.4627,0.0,4.3611,4.424,4.4869,4.5211,4.7144,4.8656,4.8447,5.0862,5.3337,5.5004,5.6578,6.0197,6.7335,7.2297,7.5246,7.5496,7.5312,7.5086,7.4843,7.421,7.3552,7.2864,7.2176,7.1251,6.9961,6.9844,6.9482,6.8854,6.7627,6.6939,6.6819,6.5562,6.4575,6.4006,6.3947,6.3617,0.0,0.0,0.0,0.0,6.3108,6.3108,6.3108,6.3108,6.3108,6.3108,6.3108,6.3108,6.3108,6.3108,6.3108,6.3078,6.2988,6.2061,6.0805,5.9488,5.9967,6.0715,5.9458,5.9548,6.0054,6.0054,5.9548,5.9249,5.9877,5.9548,5.9099,5.9099,5.9099,5.9099,5.9099,5.9099,5.9099,5.9099,5.9099,5.9099,5.9099,5.9099,5.9099,5.9099,5.8504,5.7336,5.5335,5.5055,5.4018,5.1376,5.0462,4.9173,4.7142,4.6979,4.6306,4.4872,4.4788,4.4569,4.4181,4.5394,4.579,4.5288,4.6583,4.7229,4.7387,4.7387,4.7387,4.0485,0.0,4.4529,4.5109,4.4377,4.337,0.0,4.1921,4.1396,4.1647,4.2594,4.3541,4.4078,4.612,4.7883,4.8382,5.1108,5.3693,5.5149,6.0877,6.6183,6.9653,7.5136,7.7119,7.3189,7.5898,7.6865,7.4294,7.3522,7.2834,7.2176,7.1487,7.056,6.9273,6.8226,6.7627,6.7478,6.7148,6.649,6.5443,6.4635,6.4156,6.3977,6.3498,6.3227,0.0,0.0,0.0,6.3108,6.3108,6.3108,6.3108,6.3108,6.3108,6.3108,6.3108,6.3108,6.3108,6.3108,6.3108,6.2928,6.1912,6.1014,6.0176,5.9368,5.9338,5.9518,5.9189,5.9219,5.9338,5.9338,5.9219,5.9129,5.9308,5.9219,5.9099,5.9099,5.9099,5.9099,5.9099,5.9099,5.9099,5.9099,5.9099,5.9099,5.9099,5.9099,5.9099,5.9099,5.8504,5.7919,5.7393,5.6888,5.6311,5.5669,5.2956,5.0374,4.8248,4.7742,4.7363,4.6994,4.6576,4.6848,4.7812,4.7672,4.7749,4.8131,4.7955,4.8658,5.0166,5.0166,5.0166,3.6721,3.8762,4.0727,4.091,4.0829,4.0757,4.0982,4.0796,4.0716,4.1212,4.2317,4.3402,4.4014,4.6463,4.86,4.914,5.148,5.4291,5.7432,6.39,6.93,7.1882,7.6442,7.796,7.4286,7.6181,7.6461,7.3634,7.2834,7.2146,7.1457,7.0829,6.9752,6.8136,6.7358,6.6849,6.655,6.5922,6.5263,6.4516,6.3887,6.3588,6.3587,6.3257,6.3108,0.0,0.0,0.0,6.3108,6.3108,6.3108,6.3108,6.3108,6.3108,6.3108,6.3108,6.3108,6.3108,6.3108,6.3108,6.2928,6.1882,6.1104,6.0446,5.9757,5.9338,5.9099,5.9099,5.9099,5.9249,5.9877,5.9787,5.9697,6.0326,6.0236,5.9937,5.9638,5.9548,5.9458,5.9159,5.9099,5.9099,5.9099,5.9099,5.9099,5.9099,5.9099,5.9099,5.9099,5.8773,5.8444,5.8115,5.8052,5.7782,5.7154,5.5304,5.3238,5.1126,5.0464,4.9803,4.9134,4.881,4.92,5.0426,4.9803,4.9972,5.0985,5.064,5.0994,5.205,5.205,5.205,3.5692,3.7284,3.8884,3.9332,3.9726,4.0126,4.058,4.0565,4.0679,4.1502,4.2704,4.373,4.4212,4.7325,4.9749,4.9604,5.1986,5.5627,6.0789,6.629,7.0659,7.2985,7.6711,7.8193,7.5901,7.5993,7.5203,7.2757,7.1876,7.1218,7.0649,6.9931,6.8734,6.7029,6.67,6.6281,6.5712,6.4575,6.3947,6.3857,6.3318,6.3108,6.3108,6.3108,6.3108,6.3108,0.0,0.0,6.3108,6.3108,6.3108,6.3108,6.3108,6.3108,6.3108,6.3108,6.3108,6.3108,6.3108,6.3048,6.2868,6.2271,6.1583,6.0864,6.0386,5.9697,5.9159,5.9368,5.9338,5.9548,6.0777,6.0595,6.0386,6.1642,6.1433,6.0835,6.0356,6.0236,6.0057,5.9368,5.9249,5.9219,5.9129,5.9099,5.9129,5.9249,5.9249,5.9249,5.9249,5.9249,5.9009,5.8324,5.877,5.865,5.7483,5.7304,5.6476,5.4659,5.367,5.2571,5.1237,5.1319,5.1716,5.2471,5.1911,5.2205,5.3528,5.3408,5.3408,5.3528,5.3528,5.3528,3.4432,3.6065,3.7607,3.8836,3.9575,4.0126,4.058,4.0694,4.0856,4.1471,4.2614,4.3489,4.3415,4.734,4.9885,4.7601,5.2829,5.8991,6.4137,6.8643,7.1193,7.051,7.5991,7.7995,7.3378,7.4652,7.4517,7.1416,7.0111,6.9393,6.9303,6.8136,6.7298,6.6999,6.5353,6.4395,6.4306,6.4096,6.3737,6.3257,6.3138,6.3108,6.3108,6.3108,6.3108,6.3108,0.0,6.3108,6.3108,6.3108,6.3108,6.3108,6.3108,6.3108,6.3108,6.3108,6.3108,6.3108,6.3108,6.2748,6.2241,6.2121,6.1253,6.0326,6.0805,6.0086,5.9338,6.0448,6.0386,6.0116,6.0894,6.0595,6.0266,6.1074,6.0745,6.0386,6.0864,6.0954,6.0745,6.0057,5.9937,5.9757,5.9189,5.9099,5.9279,5.9847,5.9937,5.9937,5.9937,5.9937,5.9668,5.9009,5.9039,5.9009,5.88,5.8291,5.7796,5.7464,5.5131,5.3658,5.3442,5.4124,5.4582,5.4696,5.4071,5.4112,5.488,5.4311,5.4341,5.488,5.488,5.488,3.3092,3.512,3.7263,3.8404,3.9543,4.0537,4.1114,4.1518,4.1903,4.2296,4.3957,4.5412,4.5455,4.9172,5.2861,5.4676,6.0011,6.505,6.825,7.1013,7.2926,7.3412,0.0,7.8244,7.4948,7.5292,7.4575,7.1873,7.002,6.8675,6.7956,6.7328,6.649,6.5413,6.4485,6.3827,6.3527,6.3498,6.3377,6.3108,6.3108,6.3108,6.3108,6.3108,6.3108,6.3108,0.0,6.3108,6.3108,6.3108,6.3108,6.3108,6.3108,6.3108,6.3108,6.3108,6.3108,6.3108,6.3108,6.2898,6.2599,6.2211,6.1672,6.1104,6.0685,6.0116,5.9847,6.0835,6.0625,6.0326,6.1373,6.1403,6.1343,6.2002,6.197,6.1731,6.1642,6.1642,6.1433,6.0775,6.0655,6.0535,6.0236,6.0176,6.0296,6.0595,6.0655,6.0655,6.0655,6.0655,6.0386,5.9697,5.9638,5.9488,5.9129,5.8474,5.7935,5.7573,5.6337,5.5492,5.5168,5.5857,5.6047,5.5743,5.5748,5.5927,5.6226,5.5927,5.5927,5.6226,5.5893,5.5743,3.2391,3.4701,3.7244,3.8198,3.9417,4.0753,4.2213,4.2923,4.3567,4.4611,4.6413,4.7864,4.796,5.093,5.5579,6.238,6.6574,6.9732,7.2019,7.3763,7.5314,7.6743,7.8366,7.85,7.6349,7.541,7.3895,7.1257,6.9211,6.7627,6.658,6.637,6.5592,6.4036,6.3857,6.3558,6.3108,6.3108,6.3108,6.3108,6.3108,6.3108,6.3108,6.3108,6.3108,6.3108,6.3108,6.3108,6.3108,6.3108,6.3108,6.3108,6.3108,6.3108,6.3108,6.3108,6.3108,6.3108,6.3108,6.3108,6.3018,6.248,6.2211,6.1942,6.1072,6.0565,6.0505,6.1343,6.1074,6.0835,6.2032,6.2211,6.2271,6.2958,6.2988,6.2778,6.2391,6.2331,6.2121,6.1463,6.1343,6.1255,6.1134,6.1076,6.1136,6.1313,6.1343,6.1343,6.1343,6.1343,6.1074,6.0386,6.0176,5.9817,5.9159,5.877,5.8291,5.7603,5.7274,5.6944,5.6671,5.6944,5.6885,5.6432,5.6855,5.7094,5.7094,5.7094,5.7094,5.7094,5.6641,5.6402,3.2955,3.5159,3.7383,3.8569,3.9187,4.0449,4.418,4.4994,4.592,4.9433,5.0267,5.0214,4.9796,5.1433,5.6149,6.6211,6.8224,7.0124,7.4733,7.7312,7.8489,7.7879,7.9161,7.8719,7.5088,7.3575,7.1311,6.7667,6.6072,6.5233,6.5144,6.4545,6.4156,6.4006,6.3438,6.3138,6.3108,6.3108,6.3108,6.3108,6.3108,6.3108,6.3108,6.3108,6.3108,6.3108,6.3108,6.3108,6.3108,6.3108,6.3108,6.3108,6.3108,6.3108,6.3108,6.3108,6.3108,6.3108,6.3108,6.3108,6.3108,6.3048,6.26,6.2181,6.2718,6.2002,6.1313,6.2599,6.245,6.2121,6.2838,6.2569,6.2271,6.2958,6.26,6.2331,6.2898,6.3048,6.2838,6.2151,6.2032,6.1822,6.1196,6.1076,6.1313,6.1942,6.2032,6.2032,6.2032,6.2032,6.1762,6.1104,6.0475,5.9817,5.9159,5.9608,5.9668,5.9009,5.7782,5.7363,5.7935,5.7423,5.7064,5.7034,5.7064,5.7094,5.7094,5.7094,5.7094,5.7094,5.7064,5.7034,3.1937,3.452,3.7182,3.7509,3.9245,4.184,4.5654,4.745,4.9171,5.214,5.4495,5.5894,5.5515,5.799,6.2047,6.791,7.1591,7.4839,7.8049,7.9238,7.9668,7.9358,7.944,7.862,7.6256,7.3548,7.0925,6.859,6.631,6.4815,6.4425,6.4126,6.3827,6.3467,6.3227,6.3108,6.3108,6.3108,6.3108,6.3108,6.3108,6.3108,6.3108,6.3108,6.3108,6.3108,6.3108,6.3108,6.3108,6.3108,6.3108,6.3108,6.3108,6.3108,6.3108,6.3108,6.3108,6.3108,6.3108,6.3108,6.3048,6.26,6.2599,6.26,6.2032,6.1792,6.1822,6.2331,6.2301,6.2241,6.2928,6.26,6.2271,6.2958,6.2599,6.2271,6.2958,6.3108,6.3048,6.2778,6.272,6.2659,6.2391,6.2331,6.2421,6.266,6.272,6.272,6.272,6.272,6.245,6.1792,6.1134,6.0625,6.0386,6.0595,6.0446,5.9757,5.9249,5.871,5.8115,5.8261,5.8141,5.7726,5.8141,5.8351,5.8351,5.8351,5.8351,5.8321,5.7932,5.7696,3.2107,3.4548,3.7263,3.7692,4.0138,4.3748,4.8868,5.0288,5.1612,5.5556,5.8256,6.0012,6.0172,6.2038,6.5063,6.9595,7.3845,7.7429,7.9854,8.0209,8.0107,7.987,7.9194,7.7993,7.6056,7.3004,7.0385,6.844,6.5875,6.4216,6.3737,6.3707,6.3528,6.3108,6.3108,6.3018,6.2808,6.2988,6.2988,6.2808,6.3018,6.3108,6.3108,6.3108,6.2988,6.278,6.278,6.266,6.245,6.245,6.2599,6.278,6.278,6.2928,6.3108,6.3108,6.2988,6.278,6.278,6.278,6.266,6.2002,6.2361,6.2898,6.1762,6.1882,6.2421,6.2421,6.2421,6.251,6.2988,6.2778,6.251,6.2988,6.2748,6.254,6.3018,6.3108,6.3108,6.3108,6.3108,6.3108,6.3108,6.3108,6.3108,6.3108,6.3108,6.3108,6.3108,6.3108,6.2838,6.2181,6.1702,6.1343,6.1134,6.1285,6.1044,6.0174,6.0296,5.9817,5.8474,5.886,5.889,5.8414,5.889,5.9099,5.9099,5.9099,5.9099,5.9099,5.865,5.8414,3.3761,3.5445,3.7726,3.9572,4.2077,4.6166,5.4177,5.3387,5.294,6.0052,6.1429,6.1756,6.3055,6.2244,6.3869,7.155,7.4472,7.6812,7.9761,8.0175,7.9904,7.9169,7.8416,7.6842,7.3859,7.1707,6.9268,6.6337,6.4238,6.3137,6.3137,6.3108,6.3108,6.3108,6.3078,6.2778,6.2091,6.2748,6.2748,6.2121,6.2778,6.3108,6.3108,6.3108,6.272,6.2091,6.2091,6.1732,6.1076,6.1076,6.1493,6.2091,6.2091,6.248,6.3078,6.3078,6.266,6.2091,6.2091,6.2091,6.1972,6.1313,6.2002,6.2958,6.2301,6.254,6.3108,6.3108,6.3108,6.3108,6.3108,6.3108,6.3108,6.3108,6.3108,6.3108,6.3108,6.3108,6.3108,6.3108,6.3108,6.3108,6.3108,6.3108,6.3108,6.3108,6.3108,6.3108,6.3108,6.3108,6.2868,6.2181,6.2121,6.1852,6.1194,6.1732,6.1523,6.0176,6.0745,6.0505,5.9159,5.9099,5.9099,5.9099,5.9129,5.9129,5.9099,5.9129,5.9129,5.9129,5.9129,5.9129,3.3051,3.4898,3.7712,4.0895,4.5153,4.9943,5.5116,5.5447,5.6231,6.1711,6.4099,6.4682,6.3085,6.5004,0.0,7.0513,7.3652,7.6411,7.8366,7.8653,7.8382,7.7638,7.686,7.5439,7.2975,7.1297,6.9573,6.7705,6.5678,6.4512,6.4512,6.3167,6.2391,6.2391,6.1942,6.1613,6.1403,6.1613,6.1822,6.2091,6.1822,6.2181,6.3108,6.3108,6.272,6.2091,6.2091,6.1732,6.1076,6.1076,6.1224,6.1403,6.1403,6.1523,6.1702,6.1702,6.1583,6.1403,6.1403,6.1403,6.1373,6.1136,6.1373,6.1732,6.2002,6.2241,6.248,6.2988,6.3108,6.3108,6.3108,6.3108,6.3108,6.3108,6.2748,6.251,6.3018,6.3108,6.3108,6.3108,6.3108,6.3108,6.3108,6.3108,6.3108,6.3108,6.3108,6.3108,6.3108,6.3108,6.3018,6.2838,6.2808,6.272,6.251,6.2689,6.2421,6.1553,6.1702,6.0984,5.9189,5.9099,5.9099,5.9099,5.9548,5.9578,5.9099,5.9578,5.9787,5.9787,5.9787,6.0057,3.437,3.637,3.9538,4.4485,4.8946,5.3473,5.8754,6.0672,6.221,6.548,6.6984,6.7483,6.6637,6.7669,6.935,7.1582,7.3815,7.5811,7.7333,7.7029,7.6487,7.6048,7.5303,7.4185,7.2556,7.1117,6.9821,6.8687,6.6673,6.5241,6.4735,6.3278,6.2231,6.1731,6.1313,6.0984,6.0715,6.0984,6.1164,6.1283,6.1164,6.1523,6.2301,6.2301,6.1942,6.1283,6.1014,6.0685,6.0326,6.0326,6.0475,6.0715,6.0715,6.0864,6.1076,6.1076,6.0954,6.0715,6.0715,6.0715,6.0655,6.0386,6.0685,6.1134,6.1253,6.1493,6.1852,6.251,6.2718,6.2778,6.3048,6.3108,6.3108,6.3108,6.2808,6.26,6.3018,6.3108,6.3108,6.3108,6.3108,6.3108,6.3108,6.3108,6.3108,6.3108,6.3108,6.3108,6.3108,6.3108,6.3108,6.3108,6.3108,6.3108,6.3108,6.3108,6.2808,6.2121,6.2091,6.1433,5.9967,5.9907,5.9787,5.9488,6.0146,6.0176,5.9488,6.0176,6.0505,6.0505,6.0505,6.0715,3.6797,3.9095,4.2607,4.9523,5.3566,5.7609,6.4484,6.7699,6.9367,6.9956,6.9771,7.0038,7.1886,7.0117,6.9722,7.3747,7.4458,7.4999,7.6386,7.5405,7.4492,7.44,7.3815,7.3105,7.236,7.1094,7.0004,6.9352,6.7361,6.5612,6.4257,6.3371,6.2315,6.1042,6.0894,6.0565,5.9997,6.0565,6.0565,6.0024,6.0565,6.0835,6.0807,6.1044,6.0745,6.0057,5.9338,5.9009,5.9009,5.9069,5.9398,5.9845,5.9937,6.0326,6.0807,6.0896,6.0535,5.9997,5.9997,5.9997,5.9907,5.9308,5.9937,6.0835,6.0266,6.0535,6.1164,6.1882,6.2091,6.2241,6.2928,6.3108,6.3108,6.3108,6.3108,6.3108,6.3108,6.3108,6.3108,6.3108,6.3108,6.3108,6.3108,6.3108,6.3108,6.3108,6.3108,6.3108,6.3108,6.3108,6.3108,6.3108,6.3108,6.3108,6.3108,6.3108,6.2838,6.2211,6.2181,6.1912,6.1313,6.1136,6.0805,6.0176,6.0864,6.0864,6.0176,6.0864,6.1194,6.1194,6.1194,6.1196,3.6738,4.0037,4.4772,5.2627,6.0317,6.6816,7.0131,7.1299,7.1012,6.8738,7.054,7.2167,7.0896,7.1578,7.2394,7.28,7.3341,7.3849,7.4177,7.395,7.351,7.2935,7.2732,7.236,7.1616,7.0749,7.0153,6.9985,6.8016,6.6242,6.4932,6.3204,6.1637,6.0351,5.9281,5.8922,5.9308,5.8949,5.8949,5.9308,5.8922,5.8743,5.8803,6.0358,6.0745,6.0027,5.883,5.8324,5.8354,5.889,5.856,5.7842,5.889,5.9099,5.8803,5.9338,5.9428,5.9308,5.9308,5.9308,5.9279,5.9159,5.9308,5.9608,5.9967,6.0176,6.0565,6.1762,6.2091,6.2241,6.2928,6.3108,6.3108,6.3108,6.3108,6.3108,6.3108,6.3108,6.3108,6.3108,6.3108,6.3108,6.3108,6.3108,6.3108,6.3108,6.3108,6.3108,6.3108,6.3108,6.3108,6.3108,6.3108,6.3108,6.3108,6.3108,6.3048,6.2898,6.2898,6.2838,6.2689,6.1672,6.1016,6.0894,6.1553,6.1553,6.0894,6.1553,6.1882,6.1882,6.1882,6.2151,3.8339,4.2446,4.8,5.795,6.5324,7.0567,7.2056,7.2124,7.1626,7.0646,7.1807,7.2742,7.1923,7.2435,7.2969,7.2935,7.2935,7.2969,7.2969,7.2665,7.2293,7.1921,7.1548,7.121,7.0804,7.0094,6.9654,6.9654,6.8283,6.6476,6.4263,6.2784,6.0978,5.8731,5.7992,5.7782,5.8141,5.7812,5.7812,5.8141,5.7782,5.7633,5.7663,5.871,5.8979,5.862,5.7932,5.7633,5.7693,5.8351,5.8022,5.7214,5.859,5.871,5.8145,5.8474,5.883,5.9069,5.8713,5.883,5.9099,5.9099,5.9099,5.9219,5.9877,5.9877,5.9907,6.1253,6.1613,6.1792,6.245,6.2868,6.3108,6.3108,6.3108,6.3108,6.3108,6.3108,6.3108,6.3108,6.3108,6.3108,6.3108,6.3108,6.3108,6.3108,6.3108,6.3108,6.3108,6.3108,6.3108,6.3108,6.3108,6.3108,6.3108,6.3108,6.3108,6.3108,6.3108,6.3108,6.3108,6.2421,6.1912,6.1583,6.2241,6.2241,6.1583,6.2241,6.2599,6.2599,6.2599,6.2778,3.985,4.5406,5.2191,6.283,6.8335,7.1278,7.1887,7.165,7.165,7.2868,7.2732,7.2597,7.3206,7.28,7.2563,7.3037,7.2597,7.2225,7.2225,7.1582,7.1109,7.1109,7.0466,6.9992,6.9992,6.9316,6.8842,6.8707,6.7963,6.6112,6.2891,6.2147,6.0376,5.7198,5.7004,5.6974,5.7094,5.7004,5.6944,5.6944,5.6825,5.6765,5.6765,5.6765,5.6885,5.7094,5.6974,5.6944,5.7004,5.7663,5.7483,5.6885,5.8231,5.8351,5.7786,5.7876,5.8264,5.868,5.8115,5.8381,5.8949,5.8949,5.9009,5.9189,5.9757,5.9548,5.9368,6.0595,6.1014,6.1253,6.1942,6.26,6.3108,6.3108,6.3108,6.3108,6.3108,6.3108,6.3108,6.3108,6.3108,6.3108,6.3108,6.3108,6.3108,6.3108,6.3108,6.3108,6.3108,6.3108,6.3108,6.3108,6.3108,6.3108,6.3108,6.3108,6.3108,6.3108,6.3108,6.3108,6.3108,6.3108,6.2838,6.2271,6.2838,6.2838,6.2271,6.2838,6.3108,6.3108,6.3108,6.3108,3.8784,4.8191,5.7935,6.337,6.7557,7.0364,7.0488,7.0906,7.1357,7.1526,7.2022,7.2428,7.2529,7.2462,7.2225,7.1684,7.1492,7.1424,7.1424,7.0804,7.0353,7.0353,6.9688,6.9248,6.9248,6.8538,6.7793,6.7163,6.6406,6.4612,6.1375,6.1108,5.985,5.7198,5.6611,5.6581,5.7094,5.6581,5.6312,5.6312,5.5718,5.5448,5.5448,5.5448,5.6047,5.7064,5.6551,5.6312,5.6372,5.6974,5.6526,5.5568,5.6855,5.6974,5.6521,5.7034,5.7304,5.7363,5.7274,5.7693,5.8234,5.8234,5.865,5.9129,5.9219,5.9189,5.9249,6.0027,6.0655,6.1253,6.1942,6.26,6.3108,6.3108,6.3108,6.3108,6.3108,6.3108,6.3108,6.3108,6.3108,6.3108,6.3108,6.3108,6.3108,6.3108,6.3108,6.3108,6.3108,6.3108,6.3108,6.3108,6.3108,6.3108,6.3108,6.3108,6.3108,6.3108,6.3108,6.3108,6.3108,6.3108,6.3078,6.2988,6.3048,6.3048,6.2988,6.3078,6.3108,6.3108,6.3108,6.3108,4.1869,4.9823,5.7292,6.2111,6.5505,6.7916,6.8707,6.9823,7.0567,7.0161,7.0635,7.1278,7.1718,7.1785,7.1684,7.1357,7.0973,7.0669,7.0669,7.006,6.9586,6.9586,6.891,6.8267,6.7861,6.7117,6.6339,6.5628,6.5256,6.3512,5.9977,5.9777,5.846,5.5554,5.5209,5.5209,5.5478,5.5209,5.5059,5.5059,5.4426,5.4486,5.5149,5.4401,5.479,5.6017,5.5773,5.5653,5.5683,5.6342,5.6017,5.5329,5.6585,5.6731,5.6222,5.6492,5.6821,5.7034,5.6705,5.7244,5.8085,5.8085,5.8534,5.9189,5.9548,5.9398,5.9308,6.0386,6.0894,6.1253,6.1942,6.26,6.3108,6.3108,6.3108,6.3108,6.3108,6.3108,6.3108,6.3108,6.3108,6.3108,6.3108,6.3108,6.3108,6.3108,6.3108,6.3108,6.3108,6.3108,6.3108,6.3108,6.3108,6.3108,6.3108,6.3108,6.3108,6.3108,6.3108,6.3108,6.3108,6.3108,6.3108,6.3108,6.3108,6.3108,6.3108,6.3108,6.3108,6.3108,6.3108,6.3108,4.3735,4.9368,5.4189,5.9139,6.2479,6.5037,6.6669,6.8368,6.9519,6.918,6.9553,7.0026,7.0364,7.0579,7.0714,7.0714,7.0128,6.962,6.962,6.8808,6.8233,6.8233,6.7523,6.6846,6.6284,6.573,6.4917,6.3693,6.3786,6.2113,5.8109,5.8069,5.6871,5.4026,5.3952,5.3952,5.3952,5.3952,5.3952,5.3952,5.3443,5.3737,5.464,5.3677,5.3767,5.467,5.467,5.467,5.473,5.5444,5.5414,5.5059,5.6166,5.6316,5.5953,5.5953,5.6252,5.6555,5.6102,5.6765,5.7846,5.7846,5.8384,5.9189,5.9697,5.9608,5.9548,6.0565,6.1104,6.1493,6.1972,6.26,6.3108,6.3108,6.3108,6.3108,6.3108,6.3108,6.3108,6.3108,6.3108,6.3108,6.3108,6.3108,6.3108,6.3108,6.3108,6.3108,6.3108,6.3108,6.3108,6.3108,6.3108,6.3108,6.3108,6.3108,6.3108,6.3108,6.3108,6.3108,6.3108,6.3108,6.3108,6.3108,6.3108,6.3108,6.3108,6.3108,6.3108,6.3108,6.3108,6.3108,4.1882,4.5688,4.952,5.3896,5.8294,6.2089,6.4268,6.6474,6.8233,6.8944,6.9147,6.8944,6.8199,6.8707,6.9214,6.9214,6.8538,6.803,6.803,6.6779,6.5886,6.5886,6.5222,6.4749,6.4715,6.4681,6.3618,6.1089,6.148,5.9913,5.5461,5.5798,5.5251,5.3313,5.3258,5.3258,5.3258,5.3258,5.3258,5.3258,5.3228,5.3228,5.3318,5.3228,5.3228,5.3318,5.3318,5.3318,5.3348,5.4042,5.4281,5.4341,5.5029,5.5269,5.5239,5.5239,5.5269,5.5269,5.5239,5.6077,5.7154,5.7154,5.8052,5.9129,5.9129,5.9578,6.0057,6.0116,6.1044,6.2061,6.2091,6.26,6.3108,6.3108,6.3108,6.3108,6.3108,6.3108,6.3108,6.3108,6.3108,6.3108,6.3108,6.3108,6.3108,6.3108,6.3108,6.3108,6.3108,6.3108,6.3108,6.3108,6.3108,6.3108,6.3108,6.3108,6.3108,6.3108,6.3108,6.3108,6.3108,6.3108,6.3108,6.3108,6.3108,6.3108,6.3108,6.3108,6.3108,6.3108,6.3108,6.3108,4.0433,4.3535,4.6771,5.0148,5.4072,5.7654,5.9852,6.2833,6.521,6.5524,6.6301,6.6677,6.5933,6.7184,6.8166,6.7726,6.6981,6.6474,6.6474,6.5628,6.4986,6.4986,6.4749,6.4241,6.326,6.3193,6.2378,6.0455,5.9916,5.8423,5.5595,5.4979,5.4037,5.2594,5.2546,5.2336,5.1917,5.1917,5.1917,5.1917,5.1917,5.2366,5.3169,5.2306,5.2157,5.2516,5.2097,5.2396,5.3228,5.3468,5.3803,5.4221,5.4461,5.482,5.5179,5.5179,5.5179,5.5179,5.5179,5.6017,5.7094,5.7094,5.8022,5.9099,5.9099,5.9548,6.0176,6.0625,6.1403,6.2181,6.2629,6.2928,6.3108,6.3108,6.3108,6.3108,6.3108,6.3108,6.3108,6.3108,6.3108,6.3108,6.3108,6.3108,6.3108,6.3108,6.3108,6.3108,6.3108,6.3108,6.3108,6.3108,6.3108,6.3108,6.3108,6.3108,6.3108,6.3108,6.3108,6.3108,6.3108,6.3108,6.3108,6.3108,6.3108,6.3108,6.3108,6.3108,6.3108,6.3108,6.3108,6.3108,3.9419,4.1978,4.4742,4.7622,5.0775,5.3869,5.6731,5.9597,6.1883,6.267,6.3577,6.4072,6.3565,6.4681,6.5696,6.5675,6.5087,6.46,6.46,6.3971,6.3497,6.3497,6.326,6.2685,6.1704,6.1637,6.079,5.8766,5.8178,0.0,5.3999,5.3346,5.2589,5.1552,5.1319,5.1109,5.0877,5.0661,5.0571,5.0571,5.0757,5.1325,5.2187,5.1475,5.1415,5.1858,5.1385,5.1708,5.2546,5.3019,5.3443,5.3922,5.4371,5.482,5.5179,5.5179,5.5179,5.5179,5.5179,5.5897,5.6825,5.7034,5.7842,5.883,5.9039,5.9727,6.0535,6.0956,6.1732,6.254,6.2988,6.3108,6.3108,6.3108,6.3108,6.3108,6.3108,6.3108,6.3108,6.3108,6.3108,6.3108,6.3108,6.3108,6.3108,6.3108,6.3108,6.3108,6.3108,6.3108,6.3108,6.3108,6.3108,6.3108,6.3108,6.3108,6.3108,6.3108,6.3108,6.3108,6.3108,6.3108,6.3108,6.3108,6.3108,6.3108,6.3108,6.3108,6.3108,6.3108,6.3108,6.3108,0.0,0.0,0.0,4.623,4.8491,5.1003,5.4933,5.6771,5.8336,6.0684,6.1205,6.1192,6.1231,6.1231,6.167,6.3139,6.2787,6.2333,6.2333,6.1704,6.1264,6.1264,6.0588,6.008,6.008,6.008,5.887,5.5919,5.6263,5.4735,5.0462,5.081,5.0847,5.0196,4.9613,4.9576,5.0159,4.9583,4.9299,4.9299,4.989,5.0196,5.0226,5.0907,5.1206,5.1206,5.1206,5.1206,5.1295,5.2606,5.3198,5.3348,5.464,5.5179,5.5179,5.5179,5.5179,5.5179,5.5179,5.5653,5.6312,5.6885,5.7573,5.8234,5.8919,6.0057,6.1076,6.1076,6.2061,6.3108,6.3108,6.3108,6.3108,6.3108,6.3108,6.3108,6.3108,6.3108,6.3108,6.3108,6.3108,6.3108,6.3108,6.3108,6.3108,6.3108,6.3108,6.3108,6.3108,6.3108,6.3108,6.3108,6.3108,6.3108,6.3108,6.3108,6.3108,6.3108,6.3108,6.3108,6.3108,6.3108,6.3108,6.3108,6.3108,6.3108,6.3108,6.3108,6.3108,6.3108,6.3108,6.3108,3.9144,0.0,0.0,0.0,0.0,0.0,4.91,5.2145,5.4817,5.5535,5.7267,5.8886,5.9528,5.9201,5.9133,6.0095,6.052,6.0723,6.0723,6.0554,6.0419,6.0419,6.025,5.9911,5.937,5.9284,5.8222,0.0,5.4814,5.3355,5.083,5.0139,4.9756,4.9546,4.9396,4.9157,4.8835,4.9127,4.9067,4.8588,4.968,5.0196,5.0226,5.0907,5.1206,5.1206,5.1206,5.1206,5.1265,5.2127,5.2755,5.3288,5.4132,5.476,5.5179,5.5179,5.5179,5.5179,5.5179,5.5653,5.6312,5.6885,5.7573,5.8234,5.8919,6.0057,6.1076,6.1076,6.2061,6.3108,6.3108,6.3108,6.3108,6.3108,6.3108,6.3108,6.3108,6.3108,6.3108,6.3108,6.3108,6.3108,6.3108,6.3108,6.3108,6.3108,6.3108,6.3108,6.3108,6.3108,6.3108,6.3108,6.3108,6.3108,6.3108,6.3108,6.3108,6.3108,6.3108,6.3108,6.3108,6.3108,6.3108,6.3108,6.3108,6.3108,6.3108,6.3108,6.3108,6.3108,6.3108,6.3108,0.0,0.0,0.0,0.0,0.0,0.0,4.7643,5.0129,5.218,5.2612,5.4656,5.6346,5.6307,5.6683,5.7239,5.8029,5.8253,5.865,5.9535,5.9641,5.9539,5.9201,5.8896,5.8423,5.7694,5.7627,5.6838,5.4901,5.3745,5.2185,4.9938,4.8955,4.8588,4.8858,4.8618,4.8409,4.8319,4.8409,4.8289,4.7908,4.9194,4.968,4.9441,5.0637,5.1056,5.0817,5.1086,5.1206,5.1236,5.1917,5.2606,5.3288,5.4251,5.485,5.5179,5.5179,5.5179,5.5179,5.5179,5.5474,5.5923,5.6795,5.7363,5.7872,5.883,6.0057,6.1076,6.1076,6.2061,6.3108,6.3108,6.3108,6.3108,6.3108,6.3108,6.3108,6.3108,6.3108,6.3108,6.3108,6.3108,6.3108,6.3108,6.3108,6.3108,6.3108,6.3108,6.3108,6.3108,6.3108,6.3108,6.3108,6.3108,6.3108,6.3108,6.3108,6.3108,6.3108,6.3108,6.3108,6.3108,6.3108,6.3108,6.3108,6.3108,6.3108,6.3108,6.3108,6.3108,6.3108,6.3108,6.3108,0.0,0.0,0.0,0.0,0.0,0.0,4.8424,4.9596,5.0255,5.0978,5.266,5.3635,5.2516,5.3874,5.547,5.624,5.6012,5.6475,5.8466,5.8675,5.8389,5.7712,5.707,5.6427,5.5767,5.5699,5.5208,5.3968,5.2779,5.1005,4.8484,4.7674,4.7578,4.8147,4.7608,4.7578,4.8177,4.7608,4.7309,4.7309,4.8588,4.8887,4.8379,5.0182,5.0697,5.0226,5.0817,5.1116,5.1236,5.1917,5.2606,5.3348,5.4581,5.5119,5.5179,5.5179,5.5179,5.5179,5.5179,5.5179,5.5388,5.6675,5.7094,5.7334,5.868,6.0057,6.1134,6.1283,6.2181,6.3108,6.3108,6.3108,6.3108,6.3108,6.3108,6.3108,6.3108,6.3108,6.3108,6.3108,6.3108,6.3108,6.3108,6.3108,6.3108,6.3108,6.3108,6.3108,6.3108,6.3108,6.3108,6.3108,6.3108,6.3108,6.3108,6.3108,6.3108,6.3108,6.3108,6.3108,6.3108,6.3108,6.3108,6.3108,6.3108,6.3108,6.3108,6.3108,6.3108,6.3108,6.3108,6.3108,0.0,0.0,0.0,0.0,0.0,0.0,4.5405,4.7449,4.9031,4.8345,4.9597,5.0863,5.1102,5.1656,5.214,5.2384,5.3723,5.5362,5.6995,5.6713,5.6274,5.6139,5.6003,5.5868,5.5699,5.5699,5.5024,5.3331,5.0925,4.9274,4.8727,4.7803,4.7369,4.7489,4.7369,4.7369,4.7489,4.7369,4.7309,4.7309,4.8087,4.8438,4.8349,4.9247,4.9853,5.0196,5.0338,5.0697,5.1236,5.1917,5.2606,5.3288,5.4072,5.473,5.5179,5.5179,5.5179,5.5179,5.5179,5.5179,5.5388,5.6675,5.7094,5.7334,5.868,6.0057,6.1343,6.2391,6.2898,6.3108,6.3108,6.3108,6.3108,6.3108,6.3108,6.3108,6.3108,6.3108,6.3108,6.3108,6.3108,6.3108,6.3108,6.3108,6.3108,6.3108,6.3108,6.3108,6.3108,6.3108,6.3108,6.3108,6.3108,6.3108,6.3108,6.3108,6.3108,6.3108,6.3108,6.3108,6.3108,6.3108,6.3108,6.3108,6.3108,6.3108,6.3108,6.3108,6.3108,6.3108,6.3108,6.3108,0.0,0.0,0.0,4.2509,0.0,0.0,0.0,4.6679,4.7754,4.6789,4.7782,4.8675,4.823,4.8796,4.9614,5.0493,5.1539,5.2468,5.3192,5.4682,5.5564,5.5209,5.5141,5.5006,5.4617,5.4583,5.379,5.1838,5.0414,4.9166,4.8115,4.7581,4.7309,4.7309,4.7309,4.7309,4.7309,4.7309,4.7309,4.7309,4.7967,4.8117,4.7848,4.8828,4.9486,4.9763,5.0069,5.0578,5.1236,5.1535,5.2097,5.2785,5.3803,5.461,5.5179,5.5179,5.5179,5.5179,5.5179,5.5179,5.5359,5.6342,5.6825,5.7274,5.8321,5.9787,6.1313,6.2301,6.2838,6.3108,6.3108,6.3108,6.3108,6.3108,6.3108,6.3108,6.3108,6.3108,6.3108,6.3108,6.3108,6.3108,6.3108,6.3108,6.3108,6.3108,6.3108,6.3108,6.3108,6.3108,6.3108,6.3108,6.3108,6.3108,6.3108,6.3108,6.3108,6.3108,6.3108,6.3108,6.3108,6.3108,6.3108,6.3108,6.3108,6.3108,6.3108,6.3108,6.3108,6.3108,6.3108,6.3108,0.0,0.0,0.0,0.0,0.0,4.4612,0.0,0.0,0.0,4.5996,4.6466,4.6649,4.5404,4.5908,4.6942,4.8185,4.8741,4.8916,4.8711,5.1693,5.3828,5.3609,5.3796,5.3698,5.3044,5.2775,5.2047,5.0658,5.0043,4.908,4.7581,4.7375,4.7249,4.713,4.7249,4.7309,4.7309,4.7309,4.7309,4.7309,4.7848,4.7818,4.7339,4.8438,4.9037,4.9307,4.9823,5.0458,5.1206,5.1206,5.1618,5.2306,5.3533,5.4431,5.5029,5.5149,5.5179,5.5179,5.5179,5.5179,5.5299,5.5983,5.6701,5.7453,5.8234,5.9638,6.1044,6.1732,6.2391,6.2928,6.2928,6.3018,6.3108,6.3108,6.3108,6.3108,6.3108,6.3108,6.3108,6.3108,6.3108,6.3108,6.3108,6.3108,6.3108,6.3108,6.3108,6.3108,6.3108,6.3108,6.3108,6.3108,6.3108,6.3108,6.3108,6.3108,6.3108,6.3108,6.3108,6.3108,6.3108,6.3108,6.3108,6.3108,6.3108,6.3108,6.3108,6.3108,6.3108,6.3108,6.3108,6.3108,0.0,0.0,0.0,0.0,4.6186,0.0,0.0,0.0,4.672,4.609,0.0,4.4522,4.3998,0.0,0.0,4.275,4.4378,4.5465,4.469,4.6227,4.8087,4.9789,5.089,5.1408,5.1138,5.014,4.9938,5.1009,4.8813,4.7617,4.8173,4.7609,4.704,4.642,4.701,4.7309,4.7309,4.7309,4.7309,4.7309,4.7369,4.7369,4.7309,4.7459,4.8199,4.9277,4.9366,5.0092,5.1206,5.1206,5.1618,5.2276,5.3025,5.3713,5.4401,5.497,5.5179,5.5179,5.5179,5.5179,5.5299,5.5983,5.7004,5.8205,5.9488,6.0027,6.0356,6.1014,6.1702,6.2211,6.2211,6.2659,6.3108,6.3108,6.3108,6.3108,6.3108,6.3108,6.3108,6.3108,6.3108,6.3108,6.3108,6.3108,6.3108,6.3108,6.3108,6.3108,6.3108,6.3108,6.3108,6.3108,6.3108,6.3108,6.3108,6.3108,6.3108,6.3108,6.3108,6.3108,6.3108,6.3108,6.3108,6.3108,6.3108,6.3108,6.3108,6.3108,6.3108,6.3108,6.3108,6.3108,0.0,0.0,0.0,0.0,0.0,0.0,4.5775,0.0,4.463,0.0,0.0,0.0,0.0,0.0,0.0,0.0,4.2526,4.3198,4.1686,4.3172,4.5272,4.7573,0.0,0.0,4.8362,4.844,4.8565,4.8746,4.7503,4.6854,4.7125,4.6494,4.6022,4.5723,4.636,4.6719,4.6719,4.713,4.7309,4.7309,4.7309,4.7309,4.7309,4.7309,4.7818,4.8738,4.9127,4.9793,5.0667,5.1026,5.1355,5.1738,5.2809,5.3593,5.4227,5.4521,5.485,5.5179,5.5179,5.5179,5.5359,5.6402,5.7363,5.8264,5.9219,5.9787,6.0236,6.0924,6.1583,6.2181,6.2599,6.2898,6.3108,6.3108,6.3108,6.3108,6.3108,6.3108,6.3108,6.3108,6.3108,6.3108,6.3108,6.3108,6.3108,6.3108,6.3108,6.3108,6.3108,6.3108,6.3108,6.3108,6.3108,6.3108,6.3108,6.3108,6.3108,6.3108,6.3108,6.3108,6.3108,6.3467,6.3617,6.3617,6.4006,6.4216,6.4216,6.3797,6.3827,6.4186,6.3438,6.3108,4.7197,0.0,0.0,0.0,0.0,0.0,0.0,0.0,0.0,0.0,0.0,0.0,0.0,0.0,0.0,0.0,0.0,4.0863,3.9152,4.0371,4.2371,4.4942,0.0,0.0,0.0,4.6121,4.6397,4.6496,4.5878,4.5543,4.5687,4.5492,4.5187,4.4766,4.5762,4.63,4.63,4.6958,4.7309,4.7309,4.7309,4.7309,4.7309,4.7309,4.7668,4.8349,4.9007,4.9643,5.0255,5.0936,5.1206,5.1295,5.2456,5.3324,5.3982,5.4341,5.479,5.5179,5.5179,5.5179,5.5418,5.6885,5.7573,5.7992,5.886,5.9428,5.9967,6.0655,6.1313,6.1972,6.2659,6.2958,6.3108,6.3108,6.3108,6.3108,6.3108,6.3108,6.3108,6.3108,6.3108,6.3108,6.3108,6.3108,6.3108,6.3108,6.3108,6.3108,6.3108,6.3108,6.3108,6.3108,6.3108,6.3108,6.3108,6.3108,6.3108,6.3108,6.3257,6.3347,6.3347,6.3947,6.4276,6.4276,6.4755,6.4994,6.4994,6.4515,6.4455,6.4695,6.3588,6.3197,0.0,0.0,0.0,4.6922,0.0,0.0,0.0,0.0,4.3408,0.0,0.0,0.0,0.0,0.0,0.0,0.0,0.0,0.0,0.0,3.7208,3.8418,4.1228,4.2774,0.0,0.0,4.2553,4.2857,0.0,4.3808,4.3296,4.4143,4.5055,4.491,4.3429,4.5284,4.63,4.63,4.6958,4.7309,4.7309,4.7309,4.7309,4.7309,4.7309,4.7668,4.8349,4.9007,4.9643,5.0255,5.0936,5.1206,5.1265,5.1977,5.2636,5.3408,5.467,5.5179,5.5179,5.5179,5.5179,5.5508,5.7427,5.7663,5.7363,5.871,5.9129,5.9279,5.9937,6.0625,6.1313,6.1972,6.26,6.3108,6.3108,6.3108,6.3108,6.3108,6.3108,6.3108,6.3108,6.3108,6.3108,6.3108,6.3108,6.3108,6.3108,6.3108,6.3108,6.3108,6.3108,6.3108,6.3108,6.3108,6.3108,6.3108,6.3108,6.3108,6.3108,6.3647,6.3977,6.3977,6.4605,6.4964,6.4964,6.4994,6.4994,6.4994,6.4964,6.4635,6.4006,6.3407,6.3408,0.0,0.0,5.1448,4.7589,0.0,0.0,0.0,0.0,0.0,0.0,0.0,0.0,0.0,0.0,0.0,0.0,0.0,0.0,0.0,0.0,3.617,3.7322,3.8943,3.9783,0.0,0.0,0.0,0.0,4.2481,0.0,4.3133,4.3764,4.3449,4.2073,4.4377,4.5633,4.5633,4.6741,4.7309,4.7309,4.7309,4.7309,4.7309,4.7309,4.7429,4.7698,4.8828,4.9426,4.9673,5.078,5.1206,5.1295,5.2426,5.3019,5.3318,5.4192,5.482,5.5179,5.5179,5.5748,5.6555,5.7214,5.7902,5.8501,5.8949,5.9099,5.9338,6.0446,6.0924,6.1373,6.245,6.2928,6.3108,6.3108,6.3108,6.3108,6.3108,6.3108,6.3108,6.3108,6.3108,6.3108,6.3108,6.3108,6.3108,6.3108,6.3108,6.3108,6.3108,6.3108,6.3108,6.3108,6.3108,6.3108,6.3108,6.3108,6.3108,6.3108,6.3647,6.4006,6.4006,6.5084,6.5652,6.5652,6.6101,6.6311,6.6311,6.5892,6.5562,6.5293,6.4186,6.3588,5.0013,5.1479,0.0,4.8254,4.9608,0.0,4.628,0.0,0.0,0.0,0.0,0.0,0.0,0.0,0.0,0.0,0.0,0.0,0.0,3.424,0.0,3.4367,3.6111,3.7189,3.683,0.0,0.0,0.0,0.0,0.0,0.0,4.2867,4.2719,4.1104,4.3808,4.5304,4.5304,4.6621,4.7309,4.7309,4.7309,4.7309,4.7309,4.7309,4.7309,4.7369,4.8708,4.9277,4.9396,5.069,5.1206,5.1325,5.2665,5.3198,5.3318,5.4221,5.482,5.5209,5.5448,5.5953,5.6526,5.7244,5.7872,5.8471,5.8949,5.9099,5.9398,6.0717,6.1076,6.1433,6.2748,6.3108,6.3108,6.3108,6.3108,6.3108,6.3108,6.3108,6.3108,6.3108,6.3108,6.3108,6.3108,6.3108,6.3108,6.3108,6.3108,6.3108,6.3108,6.3108,6.3108,6.3108,6.3108,6.3108,6.3108,6.3108,6.3108,6.3108,6.3647,6.4126,6.4366,6.5413,6.6221,6.67,6.6879,6.7119,6.7359,6.667,6.6251,6.5981,6.4874,6.4006]}]]